Time,TemperatureF,DewpointF,PressureIn,WindDirection,WindDirectionDegrees,WindSpeedMPH,WindSpeedGustMPH,Humidity,HourlyPrecipIn,Conditions,Clouds,dailyrainin,SoftwareType,DateUTC
2013-07-19 00:00:00,78.8,72.1,28.76,SSW,204,0.0,0.0,80,0.00,,---,0.00,VWS V14.01,2013-07-19 05:00:00,
2013-07-19 00:01:00,78.8,72.1,28.76,SSW,204,0.0,0.0,80,0.00,,---,0.00,VWS V14.01,2013-07-19 05:01:00,
2013-07-19 00:02:00,78.6,71.9,28.76,SSW,204,0.0,0.0,80,0.00,,---,0.00,VWS V14.01,2013-07-19 05:02:00,
2013-07-19 00:03:00,78.6,71.9,28.76,SSW,204,0.0,0.0,80,0.00,,---,0.00,VWS V14.01,2013-07-19 05:03:00,
2013-07-19 00:04:00,78.6,71.9,28.76,SSW,204,0.0,0.0,80,0.00,,---,0.00,VWS V14.01,2013-07-19 05:04:00,
2013-07-19 00:05:00,78.6,71.9,28.76,SSW,204,0.0,0.0,80,0.00,,---,0.00,VWS V14.01,2013-07-19 05:05:00,
2013-07-19 00:06:00,78.6,71.9,28.76,SSW,204,0.0,0.0,80,0.00,,---,0.00,VWS V14.01,2013-07-19 05:06:00,
2013-07-19 00:07:00,78.6,71.9,28.76,SSW,204,0.0,0.0,80,0.00,,---,0.00,VWS V14.01,2013-07-19 05:07:00,
2013-07-19 00:08:00,78.6,71.9,28.76,SSW,204,0.0,0.0,80,0.00,,---,0.00,VWS V14.01,2013-07-19 05:08:00,
2013-07-19 00:09:00,78.6,71.9,28.76,SSW,204,0.0,0.0,80,0.00,,---,0.00,VWS V14.01,2013-07-19 05:09:00,
2013-07-19 00:10:00,78.6,71.9,28.76,SSW,204,0.0,0.0,80,0.00,,---,0.00,VWS V14.01,2013-07-19 05:10:00,
2013-07-19 00:11:00,78.4,73.2,28.76,SSW,204,0.0,0.0,84,0.00,,---,0.00,VWS V14.01,2013-07-19 05:11:00,
2013-07-19 00:12:00,78.4,73.2,28.76,SSW,204,0.0,0.0,84,0.00,,---,0.00,VWS V14.01,2013-07-19 05:12:00,
2013-07-19 00:13:00,78.4,73.2,28.76,SSW,204,0.0,0.0,84,0.00,,---,0.00,VWS V14.01,2013-07-19 05:13:00,
2013-07-19 00:14:00,78.4,73.2,28.76,SSW,204,0.0,0.0,84,0.00,,---,0.00,VWS V14.01,2013-07-19 05:14:00,
2013-07-19 00:15:00,78.4,73.2,28.76,SSW,204,0.0,0.0,84,0.00,,---,0.00,VWS V14.01,2013-07-19 05:15:00,
2013-07-19 00:16:00,78.4,73.2,28.76,SSW,204,0.0,0.0,84,0.00,,---,0.00,VWS V14.01,2013-07-19 05:16:00,
2013-07-19 00:17:00,78.4,73.2,28.76,SSW,204,0.0,0.0,84,0.00,,---,0.00,VWS V14.01,2013-07-19 05:17:00,
2013-07-19 00:18:00,78.4,73.2,28.76,SSW,204,0.0,0.0,84,0.00,,---,0.00,VWS V14.01,2013-07-19 05:18:00,
2013-07-19 00:19:00,78.4,73.2,28.76,SSW,204,0.0,0.0,84,0.00,,---,0.00,VWS V14.01,2013-07-19 05:19:00,
2013-07-19 00:20:00,78.4,73.2,28.76,SSW,204,0.0,0.0,84,0.00,,---,0.00,VWS V14.01,2013-07-19 05:20:00,
2013-07-19 00:21:00,78.6,73.4,28.76,SSW,204,0.0,0.0,84,0.00,,---,0.00,VWS V14.01,2013-07-19 05:21:00,
2013-07-19 00:22:00,78.6,73.4,28.76,SSW,204,0.0,0.0,84,0.00,,---,0.00,VWS V14.01,2013-07-19 05:22:00,
2013-07-19 00:23:00,78.6,73.4,28.76,SSW,204,0.0,0.0,84,0.00,,---,0.00,VWS V14.01,2013-07-19 05:23:00,
2013-07-19 00:24:00,78.6,73.4,28.76,SSW,204,0.0,0.0,84,0.00,,---,0.00,VWS V14.01,2013-07-19 05:24:00,
2013-07-19 00:25:00,78.6,73.4,28.76,SSW,204,0.0,0.0,84,0.00,,---,0.00,VWS V14.01,2013-07-19 05:25:00,
2013-07-19 00:26:00,78.4,73.2,28.76,SSW,204,0.0,0.0,84,0.00,,---,0.00,VWS V14.01,2013-07-19 05:26:00,
2013-07-19 00:27:00,78.4,73.2,28.76,SSW,204,0.0,0.0,84,0.00,,---,0.00,VWS V14.01,2013-07-19 05:27:00,
2013-07-19 00:28:00,78.4,73.2,28.76,SSW,204,0.0,0.0,84,0.00,,---,0.00,VWS V14.01,2013-07-19 05:28:00,
2013-07-19 00:29:00,78.4,73.2,28.76,SSW,204,0.0,0.0,84,0.00,,---,0.00,VWS V14.01,2013-07-19 05:29:00,
2013-07-19 00:30:00,78.3,73.0,28.76,SSW,204,0.0,0.0,84,0.00,,---,0.00,VWS V14.01,2013-07-19 05:30:00,
2013-07-19 00:31:00,78.3,73.0,28.76,SSW,204,0.0,0.0,84,0.00,,---,0.00,VWS V14.01,2013-07-19 05:31:00,
2013-07-19 00:32:00,78.3,73.0,28.76,SSW,204,0.0,0.0,84,0.00,,---,0.00,VWS V14.01,2013-07-19 05:32:00,
2013-07-19 00:33:00,78.3,73.0,28.76,SSW,204,0.0,0.0,84,0.00,,---,0.00,VWS V14.01,2013-07-19 05:33:00,
2013-07-19 00:34:00,78.3,73.0,28.76,SSW,204,0.0,0.0,84,0.00,,---,0.00,VWS V14.01,2013-07-19 05:34:00,
2013-07-19 00:35:00,77.9,72.7,28.76,SSW,204,0.0,0.0,84,0.00,,---,0.00,VWS V14.01,2013-07-19 05:35:00,
2013-07-19 00:36:00,77.9,72.7,28.76,SSW,204,0.0,0.0,84,0.00,,---,0.00,VWS V14.01,2013-07-19 05:36:00,
2013-07-19 00:37:00,77.9,72.7,28.76,SSW,204,0.0,0.0,84,0.00,,---,0.00,VWS V14.01,2013-07-19 05:37:00,
2013-07-19 00:38:00,77.9,72.7,28.76,SSW,204,0.0,0.0,84,0.00,,---,0.00,VWS V14.01,2013-07-19 05:38:00,
2013-07-19 00:39:00,77.7,72.5,28.76,SSW,204,0.0,0.0,84,0.00,,---,0.00,VWS V14.01,2013-07-19 05:39:00,
2013-07-19 00:40:00,77.7,72.5,28.76,SSW,204,0.0,0.0,84,0.00,,---,0.00,VWS V14.01,2013-07-19 05:40:00,
2013-07-19 00:41:00,77.7,72.5,28.76,SSW,204,0.0,0.0,84,0.00,,---,0.00,VWS V14.01,2013-07-19 05:41:00,
2013-07-19 00:42:00,77.7,72.5,28.76,SSW,204,0.0,0.0,84,0.00,,---,0.00,VWS V14.01,2013-07-19 05:42:00,
2013-07-19 00:43:00,77.7,72.5,28.76,SSW,204,0.0,0.0,84,0.00,,---,0.00,VWS V14.01,2013-07-19 05:43:00,
2013-07-19 00:44:00,77.7,72.5,28.76,SSW,204,0.0,0.0,84,0.00,,---,0.00,VWS V14.01,2013-07-19 05:44:00,
2013-07-19 00:45:00,77.5,72.3,28.76,SSW,204,0.0,0.0,84,0.00,,---,0.00,VWS V14.01,2013-07-19 05:45:00,
2013-07-19 00:46:00,77.5,72.3,28.76,SSW,204,0.0,0.0,84,0.00,,---,0.00,VWS V14.01,2013-07-19 05:46:00,
2013-07-19 00:47:00,77.5,72.3,28.76,SSW,204,0.0,0.0,84,0.00,,---,0.00,VWS V14.01,2013-07-19 05:47:00,
2013-07-19 00:48:00,77.5,72.3,28.76,SSW,204,0.0,0.0,84,0.00,,---,0.00,VWS V14.01,2013-07-19 05:48:00,
2013-07-19 00:49:00,77.5,72.3,28.76,SSW,204,0.0,0.0,84,0.00,,---,0.00,VWS V14.01,2013-07-19 05:49:00,
2013-07-19 00:50:00,77.5,72.3,28.76,SSW,204,0.0,0.0,84,0.00,,---,0.00,VWS V14.01,2013-07-19 05:50:00,
2013-07-19 00:51:00,77.5,72.3,28.76,SSW,204,0.0,0.0,84,0.00,,---,0.00,VWS V14.01,2013-07-19 05:51:00,
2013-07-19 00:52:00,77.5,72.3,28.76,SSW,204,0.0,0.0,84,0.00,,---,0.00,VWS V14.01,2013-07-19 05:52:00,
2013-07-19 00:53:00,77.5,72.3,28.76,SSW,204,0.0,0.0,84,0.00,,---,0.00,VWS V14.01,2013-07-19 05:53:00,
2013-07-19 00:54:00,77.5,73.7,28.76,SSW,204,0.0,0.0,88,0.00,,---,0.00,VWS V14.01,2013-07-19 05:54:00,
2013-07-19 00:55:00,77.5,73.7,28.76,SSW,204,0.0,0.0,88,0.00,,---,0.00,VWS V14.01,2013-07-19 05:55:00,
2013-07-19 00:56:00,77.5,73.7,28.76,SSW,204,0.0,0.0,88,0.00,,---,0.00,VWS V14.01,2013-07-19 05:56:00,
2013-07-19 00:57:00,77.5,73.7,28.76,SSW,204,0.0,0.0,88,0.00,,---,0.00,VWS V14.01,2013-07-19 05:57:00,
2013-07-19 00:58:00,77.4,73.5,28.76,SSW,204,0.0,0.0,88,0.00,,---,0.00,VWS V14.01,2013-07-19 05:58:00,
2013-07-19 00:59:00,77.4,73.5,28.76,SSW,204,0.0,0.0,88,0.00,,---,0.00,VWS V14.01,2013-07-19 05:59:00,
2013-07-19 01:00:00,77.4,73.5,28.76,SSW,204,0.0,0.0,88,0.00,,---,0.00,VWS V14.01,2013-07-19 06:00:00,
2013-07-19 01:01:00,77.4,73.5,28.76,SSW,204,0.0,0.0,88,0.00,,---,0.00,VWS V14.01,2013-07-19 06:01:00,
2013-07-19 01:02:00,77.4,73.5,28.76,SSW,204,0.0,0.0,88,0.00,,---,0.00,VWS V14.01,2013-07-19 06:02:00,
2013-07-19 01:03:00,77.4,73.5,28.76,SSW,204,0.0,0.0,88,0.00,,---,0.00,VWS V14.01,2013-07-19 06:03:00,
2013-07-19 01:04:00,77.2,73.3,28.76,SSW,204,0.0,0.0,88,0.00,,---,0.00,VWS V14.01,2013-07-19 06:04:00,
2013-07-19 01:05:00,77.2,73.3,28.76,SSW,204,0.0,0.0,88,0.00,,---,0.00,VWS V14.01,2013-07-19 06:05:00,
2013-07-19 01:06:00,77.2,73.3,28.73,SSW,204,0.0,0.0,88,0.00,,---,0.00,VWS V14.01,2013-07-19 06:06:00,
2013-07-19 01:07:00,77.2,73.4,28.73,SSW,204,0.0,0.0,88,0.00,,---,0.00,VWS V14.01,2013-07-19 06:07:00,
2013-07-19 01:08:00,77.2,73.4,28.73,SSW,204,0.0,0.0,88,0.00,,---,0.00,VWS V14.01,2013-07-19 06:08:00,
2013-07-19 01:09:00,77.0,74.5,28.73,SSW,204,0.0,0.0,92,0.00,,---,0.00,VWS V14.01,2013-07-19 06:09:00,
2013-07-19 01:10:00,77.2,74.7,28.73,SSW,204,0.0,0.0,92,0.00,,---,0.00,VWS V14.01,2013-07-19 06:10:00,
2013-07-19 01:11:00,77.2,74.7,28.73,SSW,204,0.0,0.0,92,0.00,,---,0.00,VWS V14.01,2013-07-19 06:11:00,
2013-07-19 01:12:00,77.2,74.7,28.73,SSW,204,0.0,0.0,92,0.00,,---,0.00,VWS V14.01,2013-07-19 06:12:00,
2013-07-19 01:13:00,77.2,74.7,28.73,SSW,204,0.0,0.0,92,0.00,,---,0.00,VWS V14.01,2013-07-19 06:13:00,
2013-07-19 01:14:00,77.2,74.7,28.73,SSW,204,0.0,0.0,92,0.00,,---,0.00,VWS V14.01,2013-07-19 06:14:00,
2013-07-19 01:15:00,77.2,74.7,28.73,SSW,204,0.0,0.0,92,0.00,,---,0.00,VWS V14.01,2013-07-19 06:15:00,
2013-07-19 01:16:00,77.2,74.7,28.73,SSW,204,0.0,0.0,92,0.00,,---,0.00,VWS V14.01,2013-07-19 06:16:00,
2013-07-19 01:17:00,77.2,74.7,28.73,SSW,204,0.0,0.0,92,0.00,,---,0.00,VWS V14.01,2013-07-19 06:17:00,
2013-07-19 01:18:00,77.4,76.1,28.73,SSW,204,0.0,0.0,96,0.00,,---,0.00,VWS V14.01,2013-07-19 06:18:00,
2013-07-19 01:19:00,77.4,76.1,28.73,SSW,204,0.0,0.0,96,0.00,,---,0.00,VWS V14.01,2013-07-19 06:19:00,
2013-07-19 01:20:00,77.2,76.0,28.73,SSW,204,0.0,0.0,96,0.00,,---,0.00,VWS V14.01,2013-07-19 06:20:00,
2013-07-19 01:21:00,77.2,76.0,28.73,SSW,204,0.0,0.0,96,0.00,,---,0.00,VWS V14.01,2013-07-19 06:21:00,
2013-07-19 01:22:00,77.2,76.0,28.73,SSW,204,0.0,0.0,96,0.00,,---,0.00,VWS V14.01,2013-07-19 06:22:00,
2013-07-19 01:23:00,77.2,76.0,28.73,SSW,204,0.0,0.0,96,0.00,,---,0.00,VWS V14.01,2013-07-19 06:23:00,
2013-07-19 01:24:00,77.2,76.0,28.73,SSW,204,0.0,0.0,96,0.00,,---,0.00,VWS V14.01,2013-07-19 06:24:00,
2013-07-19 01:25:00,77.0,75.8,28.73,SSW,204,0.0,0.0,96,0.00,,---,0.00,VWS V14.01,2013-07-19 06:25:00,
2013-07-19 01:26:00,77.0,75.8,28.73,SSW,204,0.0,0.0,96,0.00,,---,0.00,VWS V14.01,2013-07-19 06:26:00,
2013-07-19 01:27:00,77.0,75.8,28.73,SSW,204,0.0,0.0,96,0.00,,---,0.00,VWS V14.01,2013-07-19 06:27:00,
2013-07-19 01:28:00,77.0,75.8,28.73,SSW,204,0.0,0.0,96,0.00,,---,0.00,VWS V14.01,2013-07-19 06:28:00,
2013-07-19 01:29:00,77.0,75.8,28.73,SSW,204,0.0,0.0,96,0.00,,---,0.00,VWS V14.01,2013-07-19 06:29:00,
2013-07-19 01:30:00,77.0,75.8,28.73,SSW,204,0.0,0.0,96,0.00,,---,0.00,VWS V14.01,2013-07-19 06:30:00,
2013-07-19 01:31:00,77.0,77.0,28.73,SSW,204,0.0,0.0,100,0.00,,---,0.00,VWS V14.01,2013-07-19 06:31:00,
2013-07-19 01:32:00,77.0,77.0,28.73,SSW,204,0.0,0.0,100,0.00,,---,0.00,VWS V14.01,2013-07-19 06:32:00,
2013-07-19 01:33:00,77.2,77.2,28.73,SSW,204,0.0,0.0,100,0.00,,---,0.00,VWS V14.01,2013-07-19 06:33:00,
2013-07-19 01:34:00,77.2,77.2,28.73,SSW,204,0.0,0.0,100,0.00,,---,0.00,VWS V14.01,2013-07-19 06:34:00,
2013-07-19 01:35:00,77.0,77.0,28.73,SSW,204,0.0,0.0,100,0.00,,---,0.00,VWS V14.01,2013-07-19 06:35:00,
2013-07-19 01:36:00,77.0,77.0,28.73,SSW,204,0.0,0.0,100,0.00,,---,0.00,VWS V14.01,2013-07-19 06:36:00,
2013-07-19 01:37:00,77.0,77.0,28.73,SSW,204,0.0,0.0,100,0.00,,---,0.00,VWS V14.01,2013-07-19 06:37:00,
2013-07-19 01:38:00,77.0,77.0,28.73,SSW,204,0.0,0.0,100,0.00,,---,0.00,VWS V14.01,2013-07-19 06:38:00,
2013-07-19 01:39:00,77.0,77.0,28.73,SSW,204,0.0,0.0,100,0.00,,---,0.00,VWS V14.01,2013-07-19 06:39:00,
2013-07-19 01:40:00,77.0,77.0,28.73,SSW,204,0.0,0.0,100,0.00,,---,0.00,VWS V14.01,2013-07-19 06:40:00,
2013-07-19 01:41:00,76.8,76.8,28.73,SSW,204,0.0,0.0,100,0.00,,---,0.00,VWS V14.01,2013-07-19 06:41:00,
2013-07-19 01:42:00,76.8,76.8,28.73,SSW,204,0.0,0.0,100,0.00,,---,0.00,VWS V14.01,2013-07-19 06:42:00,
2013-07-19 01:43:00,76.8,76.8,28.73,SSW,204,0.0,0.0,100,0.00,,---,0.00,VWS V14.01,2013-07-19 06:43:00,
2013-07-19 01:44:00,77.0,77.0,28.73,SSW,204,0.0,0.0,100,0.00,,---,0.00,VWS V14.01,2013-07-19 06:44:00,
2013-07-19 01:45:00,77.0,77.0,28.73,SSW,204,0.0,0.0,100,0.00,,---,0.00,VWS V14.01,2013-07-19 06:45:00,
2013-07-19 01:46:00,77.0,77.0,28.73,SSW,204,0.0,0.0,100,0.00,,---,0.00,VWS V14.01,2013-07-19 06:46:00,
2013-07-19 01:47:00,77.0,77.0,28.73,SSW,204,0.0,0.0,100,0.00,,---,0.00,VWS V14.01,2013-07-19 06:47:00,
2013-07-19 01:48:00,77.0,77.0,28.73,SSW,204,0.0,0.0,100,0.00,,---,0.00,VWS V14.01,2013-07-19 06:48:00,
2013-07-19 01:49:00,77.0,77.0,28.73,SSW,204,0.0,0.0,100,0.00,,---,0.00,VWS V14.01,2013-07-19 06:49:00,
2013-07-19 01:50:00,77.0,77.0,28.73,SSW,204,0.0,0.0,100,0.00,,---,0.00,VWS V14.01,2013-07-19 06:50:00,
2013-07-19 01:51:00,77.0,77.0,28.73,SSW,204,0.0,0.0,100,0.00,,---,0.00,VWS V14.01,2013-07-19 06:51:00,
2013-07-19 01:52:00,77.0,77.0,28.73,SSW,204,0.0,0.0,100,0.00,,---,0.00,VWS V14.01,2013-07-19 06:52:00,
2013-07-19 01:53:00,77.0,77.0,28.73,SSW,204,0.0,0.0,100,0.00,,---,0.00,VWS V14.01,2013-07-19 06:53:00,
2013-07-19 01:54:00,77.0,77.0,28.73,SSW,204,0.0,0.0,100,0.00,,---,0.00,VWS V14.01,2013-07-19 06:54:00,
2013-07-19 01:55:00,77.0,77.0,28.73,SSW,204,0.0,0.0,100,0.00,,---,0.00,VWS V14.01,2013-07-19 06:55:00,
2013-07-19 01:56:00,76.8,76.8,28.73,SSW,204,0.0,0.0,100,0.00,,---,0.00,VWS V14.01,2013-07-19 06:56:00,
2013-07-19 01:57:00,76.8,76.8,28.73,SSW,204,0.0,0.0,100,0.00,,---,0.00,VWS V14.01,2013-07-19 06:57:00,
2013-07-19 01:58:00,76.8,76.8,28.73,SSW,204,0.0,0.0,100,0.00,,---,0.00,VWS V14.01,2013-07-19 06:58:00,
2013-07-19 01:59:00,76.8,76.8,28.73,SSW,204,0.0,0.0,100,0.00,,---,0.00,VWS V14.01,2013-07-19 06:59:00,
2013-07-19 02:00:00,76.8,76.8,28.73,SSW,204,0.0,0.0,100,0.00,,---,0.00,VWS V14.01,2013-07-19 07:00:00,
2013-07-19 02:01:00,76.8,76.8,28.73,SSW,204,0.0,0.0,100,0.00,,---,0.00,VWS V14.01,2013-07-19 07:01:00,
2013-07-19 02:02:00,76.8,76.8,28.73,SSW,204,0.0,0.0,100,0.00,,---,0.00,VWS V14.01,2013-07-19 07:02:00,
2013-07-19 02:03:00,76.8,76.8,28.73,SSW,204,0.0,0.0,100,0.00,,---,0.00,VWS V14.01,2013-07-19 07:03:00,
2013-07-19 02:04:00,76.8,76.8,28.73,SSW,204,0.0,0.0,100,0.00,,---,0.00,VWS V14.01,2013-07-19 07:04:00,
2013-07-19 02:05:00,76.8,76.8,28.73,SSW,204,0.0,0.0,100,0.00,,---,0.00,VWS V14.01,2013-07-19 07:05:00,
2013-07-19 02:06:00,76.8,76.8,28.73,SSW,204,0.0,0.0,100,0.00,,---,0.00,VWS V14.01,2013-07-19 07:06:00,
2013-07-19 02:07:00,76.8,76.8,28.73,SSW,204,0.0,0.0,100,0.00,,---,0.00,VWS V14.01,2013-07-19 07:07:00,
2013-07-19 02:08:00,76.8,76.8,28.73,SSW,204,0.0,0.0,100,0.00,,---,0.00,VWS V14.01,2013-07-19 07:08:00,
2013-07-19 02:09:00,76.8,76.8,28.73,SSW,204,0.0,0.0,100,0.00,,---,0.00,VWS V14.01,2013-07-19 07:09:00,
2013-07-19 02:10:00,76.6,76.7,28.73,SSW,204,0.0,0.0,100,0.00,,---,0.00,VWS V14.01,2013-07-19 07:10:00,
2013-07-19 02:11:00,76.6,76.7,28.73,SSW,204,0.0,0.0,100,0.00,,---,0.00,VWS V14.01,2013-07-19 07:11:00,
2013-07-19 02:12:00,76.6,76.7,28.73,SSW,204,0.0,0.0,100,0.00,,---,0.00,VWS V14.01,2013-07-19 07:12:00,
2013-07-19 02:13:00,76.6,76.7,28.73,SSW,204,0.0,0.0,100,0.00,,---,0.00,VWS V14.01,2013-07-19 07:13:00,
2013-07-19 02:14:00,76.6,76.7,28.73,SSW,204,0.0,0.0,100,0.00,,---,0.00,VWS V14.01,2013-07-19 07:14:00,
2013-07-19 02:15:00,76.6,76.7,28.73,SSW,204,0.0,0.0,100,0.00,,---,0.00,VWS V14.01,2013-07-19 07:15:00,
2013-07-19 02:16:00,76.6,76.7,28.73,SSW,204,0.0,0.0,100,0.00,,---,0.00,VWS V14.01,2013-07-19 07:16:00,
2013-07-19 02:17:00,76.6,76.7,28.73,SSW,204,0.0,0.0,100,0.00,,---,0.00,VWS V14.01,2013-07-19 07:17:00,
2013-07-19 02:18:00,76.6,76.7,28.73,SSW,204,0.0,0.0,100,0.00,,---,0.00,VWS V14.01,2013-07-19 07:18:00,
2013-07-19 02:19:00,76.6,76.7,28.73,SSW,204,0.0,0.0,100,0.00,,---,0.00,VWS V14.01,2013-07-19 07:19:00,
2013-07-19 02:20:00,76.6,76.7,28.73,SSW,204,0.0,0.0,100,0.00,,---,0.00,VWS V14.01,2013-07-19 07:20:00,
2013-07-19 02:21:00,76.6,76.7,28.73,SSW,204,0.0,0.0,100,0.00,,---,0.00,VWS V14.01,2013-07-19 07:21:00,
2013-07-19 02:22:00,76.6,76.7,28.73,SSW,204,0.0,0.0,100,0.00,,---,0.00,VWS V14.01,2013-07-19 07:22:00,
2013-07-19 02:23:00,76.6,76.7,28.73,SSW,204,0.0,0.0,100,0.00,,---,0.00,VWS V14.01,2013-07-19 07:23:00,
2013-07-19 02:24:00,76.6,76.7,28.73,SSW,204,0.0,0.0,100,0.00,,---,0.00,VWS V14.01,2013-07-19 07:24:00,
2013-07-19 02:25:00,76.6,76.7,28.73,SSW,204,0.0,0.0,100,0.00,,---,0.00,VWS V14.01,2013-07-19 07:25:00,
2013-07-19 02:26:00,76.6,76.7,28.73,SSW,204,0.0,0.0,100,0.00,,---,0.00,VWS V14.01,2013-07-19 07:26:00,
2013-07-19 02:27:00,76.6,76.7,28.73,SSW,204,0.0,0.0,100,0.00,,---,0.00,VWS V14.01,2013-07-19 07:27:00,
2013-07-19 02:28:00,76.6,76.7,28.73,SSW,204,0.0,0.0,100,0.00,,---,0.00,VWS V14.01,2013-07-19 07:28:00,
2013-07-19 02:29:00,76.6,76.7,28.73,SSW,204,0.0,0.0,100,0.00,,---,0.00,VWS V14.01,2013-07-19 07:29:00,
2013-07-19 02:30:00,76.6,76.7,28.73,SSW,204,0.0,0.0,100,0.00,,---,0.00,VWS V14.01,2013-07-19 07:30:00,
2013-07-19 02:31:00,76.6,76.7,28.73,West,268,0.0,0.0,100,0.00,,---,0.00,VWS V14.01,2013-07-19 07:31:00,
2013-07-19 02:32:00,76.6,76.7,28.73,West,268,0.0,0.0,100,0.00,,---,0.00,VWS V14.01,2013-07-19 07:32:00,
2013-07-19 02:33:00,76.6,76.7,28.73,West,268,0.0,0.0,100,0.00,,---,0.00,VWS V14.01,2013-07-19 07:33:00,
2013-07-19 02:34:00,76.6,76.7,28.73,West,268,0.0,0.0,100,0.00,,---,0.00,VWS V14.01,2013-07-19 07:34:00,
2013-07-19 02:35:00,76.6,76.7,28.73,West,268,0.0,0.0,100,0.00,,---,0.00,VWS V14.01,2013-07-19 07:35:00,
2013-07-19 02:36:00,77.0,77.0,28.70,West,268,0.0,0.0,100,0.00,,---,0.00,VWS V14.01,2013-07-19 07:36:00,
2013-07-19 02:37:00,77.0,77.0,28.70,West,268,0.0,0.0,100,0.00,,---,0.00,VWS V14.01,2013-07-19 07:37:00,
2013-07-19 02:38:00,77.0,77.0,28.70,WSW,249,0.0,0.0,100,0.00,,---,0.00,VWS V14.01,2013-07-19 07:38:00,
2013-07-19 02:39:00,77.0,77.0,28.70,WSW,249,0.0,0.0,100,0.00,,---,0.00,VWS V14.01,2013-07-19 07:39:00,
2013-07-19 02:40:00,77.0,77.0,28.70,WSW,249,0.0,0.0,100,0.00,,---,0.00,VWS V14.01,2013-07-19 07:40:00,
2013-07-19 02:41:00,76.8,76.8,28.70,WSW,249,0.0,0.0,100,0.00,,---,0.00,VWS V14.01,2013-07-19 07:41:00,
2013-07-19 02:42:00,76.8,76.8,28.70,WSW,249,0.0,0.0,100,0.00,,---,0.00,VWS V14.01,2013-07-19 07:42:00,
2013-07-19 02:43:00,76.8,76.8,28.70,WSW,249,0.0,0.0,100,0.00,,---,0.00,VWS V14.01,2013-07-19 07:43:00,
2013-07-19 02:44:00,76.8,76.8,28.70,WSW,249,0.0,0.0,100,0.00,,---,0.00,VWS V14.01,2013-07-19 07:44:00,
2013-07-19 02:45:00,76.8,76.8,28.70,WSW,249,0.0,0.0,100,0.00,,---,0.00,VWS V14.01,2013-07-19 07:45:00,
2013-07-19 02:46:00,76.8,76.8,28.70,WSW,249,0.0,0.0,100,0.00,,---,0.00,VWS V14.01,2013-07-19 07:46:00,
2013-07-19 02:47:00,76.6,76.7,28.70,WSW,249,0.0,0.0,100,0.00,,---,0.00,VWS V14.01,2013-07-19 07:47:00,
2013-07-19 02:48:00,76.6,76.7,28.70,WSW,249,0.0,0.0,100,0.00,,---,0.00,VWS V14.01,2013-07-19 07:48:00,
2013-07-19 02:49:00,76.6,76.7,28.70,WSW,249,0.0,0.0,100,0.00,,---,0.00,VWS V14.01,2013-07-19 07:49:00,
2013-07-19 02:50:00,76.6,76.7,28.70,WSW,249,0.0,0.0,100,0.00,,---,0.00,VWS V14.01,2013-07-19 07:50:00,
2013-07-19 02:51:00,76.6,76.7,28.70,WSW,249,0.0,0.0,100,0.00,,---,0.00,VWS V14.01,2013-07-19 07:51:00,
2013-07-19 02:52:00,76.6,76.7,28.73,WSW,249,0.0,0.0,100,0.00,,---,0.00,VWS V14.01,2013-07-19 07:52:00,
2013-07-19 02:53:00,76.5,76.5,28.73,WSW,249,0.0,0.0,100,0.00,,---,0.00,VWS V14.01,2013-07-19 07:53:00,
2013-07-19 02:54:00,76.5,76.5,28.73,WSW,249,0.0,0.0,100,0.00,,---,0.00,VWS V14.01,2013-07-19 07:54:00,
2013-07-19 02:55:00,76.5,76.5,28.73,WSW,249,0.0,0.0,100,0.00,,---,0.00,VWS V14.01,2013-07-19 07:55:00,
2013-07-19 02:56:00,76.5,76.5,28.73,WSW,249,0.0,0.0,100,0.00,,---,0.00,VWS V14.01,2013-07-19 07:56:00,
2013-07-19 02:57:00,76.5,76.5,28.73,WSW,249,0.0,0.0,100,0.00,,---,0.00,VWS V14.01,2013-07-19 07:57:00,
2013-07-19 02:58:00,76.5,76.5,28.73,WSW,249,0.0,0.0,100,0.00,,---,0.00,VWS V14.01,2013-07-19 07:58:00,
2013-07-19 02:59:00,76.5,76.5,28.73,WSW,249,0.0,0.0,100,0.00,,---,0.00,VWS V14.01,2013-07-19 07:59:00,
2013-07-19 03:00:00,76.5,76.5,28.73,WSW,249,0.0,0.0,100,0.00,,---,0.00,VWS V14.01,2013-07-19 08:00:00,
2013-07-19 03:01:00,76.5,76.5,28.73,WSW,249,0.0,0.0,100,0.00,,---,0.00,VWS V14.01,2013-07-19 08:01:00,
2013-07-19 03:02:00,76.5,76.5,28.73,WSW,249,0.0,0.0,100,0.00,,---,0.00,VWS V14.01,2013-07-19 08:02:00,
2013-07-19 03:03:00,76.5,76.5,28.73,WSW,249,0.0,0.0,100,0.00,,---,0.00,VWS V14.01,2013-07-19 08:03:00,
2013-07-19 03:04:00,76.5,76.5,28.73,WSW,249,0.0,0.0,100,0.00,,---,0.00,VWS V14.01,2013-07-19 08:04:00,
2013-07-19 03:05:00,76.5,76.5,28.73,WSW,247,0.0,0.0,100,0.00,,---,0.00,VWS V14.01,2013-07-19 08:05:00,
2013-07-19 03:06:00,76.5,76.5,28.73,SSW,212,0.0,0.0,100,0.00,,---,0.00,VWS V14.01,2013-07-19 08:06:00,
2013-07-19 03:07:00,76.5,76.5,28.73,SSW,212,0.0,0.0,100,0.00,,---,0.00,VWS V14.01,2013-07-19 08:07:00,
2013-07-19 03:08:00,76.5,76.5,28.73,SSW,212,0.0,0.0,100,0.00,,---,0.00,VWS V14.01,2013-07-19 08:08:00,
2013-07-19 03:09:00,76.5,76.5,28.73,SW,214,0.0,0.0,100,0.00,,---,0.00,VWS V14.01,2013-07-19 08:09:00,
2013-07-19 03:10:00,76.5,76.5,28.73,SW,214,0.0,0.0,100,0.00,,---,0.00,VWS V14.01,2013-07-19 08:10:00,
2013-07-19 03:11:00,76.5,76.5,28.73,SW,214,0.0,0.0,100,0.00,,---,0.00,VWS V14.01,2013-07-19 08:11:00,
2013-07-19 03:12:00,76.5,76.5,28.73,SW,214,0.0,0.0,100,0.00,,---,0.00,VWS V14.01,2013-07-19 08:12:00,
2013-07-19 03:13:00,76.5,76.5,28.73,SW,214,0.0,0.0,100,0.00,,---,0.00,VWS V14.01,2013-07-19 08:13:00,
2013-07-19 03:14:00,76.5,76.5,28.73,SW,214,0.0,0.0,100,0.00,,---,0.00,VWS V14.01,2013-07-19 08:14:00,
2013-07-19 03:15:00,76.5,76.5,28.73,SSW,200,0.0,0.0,100,0.00,,---,0.00,VWS V14.01,2013-07-19 08:15:00,
2013-07-19 03:16:00,76.5,76.5,28.73,SSW,200,0.0,0.0,100,0.00,,---,0.00,VWS V14.01,2013-07-19 08:16:00,
2013-07-19 03:17:00,76.5,76.5,28.73,SSW,200,0.0,0.0,100,0.00,,---,0.00,VWS V14.01,2013-07-19 08:17:00,
2013-07-19 03:18:00,76.5,76.5,28.73,SSW,200,0.0,0.0,100,0.00,,---,0.00,VWS V14.01,2013-07-19 08:18:00,
2013-07-19 03:19:00,76.5,76.5,28.73,SSW,200,0.0,0.0,100,0.00,,---,0.00,VWS V14.01,2013-07-19 08:19:00,
2013-07-19 03:20:00,76.5,76.5,28.73,SSW,200,0.0,0.0,100,0.00,,---,0.00,VWS V14.01,2013-07-19 08:20:00,
2013-07-19 03:21:00,76.5,76.5,28.73,SSW,200,0.0,0.0,100,0.00,,---,0.00,VWS V14.01,2013-07-19 08:21:00,
2013-07-19 03:22:00,76.5,76.5,28.73,SSW,200,0.0,0.0,100,0.00,,---,0.00,VWS V14.01,2013-07-19 08:22:00,
2013-07-19 03:23:00,76.5,76.5,28.73,SSW,200,0.0,0.0,100,0.00,,---,0.00,VWS V14.01,2013-07-19 08:23:00,
2013-07-19 03:24:00,76.3,76.3,28.73,SSW,200,0.0,0.0,100,0.00,,---,0.00,VWS V14.01,2013-07-19 08:24:00,
2013-07-19 03:25:00,76.3,76.3,28.73,SSW,200,0.0,0.0,100,0.00,,---,0.00,VWS V14.01,2013-07-19 08:25:00,
2013-07-19 03:26:00,76.3,76.3,28.73,SSW,200,0.0,0.0,100,0.00,,---,0.00,VWS V14.01,2013-07-19 08:26:00,
2013-07-19 03:27:00,76.3,76.3,28.73,SSW,200,0.0,0.0,100,0.00,,---,0.00,VWS V14.01,2013-07-19 08:27:00,
2013-07-19 03:28:00,76.3,76.3,28.73,SSW,200,0.0,0.0,100,0.00,,---,0.00,VWS V14.01,2013-07-19 08:28:00,
2013-07-19 03:29:00,76.5,76.5,28.73,SSW,200,0.0,0.0,100,0.00,,---,0.00,VWS V14.01,2013-07-19 08:29:00,
2013-07-19 03:30:00,76.5,76.5,28.73,SSW,200,0.0,0.0,100,0.00,,---,0.00,VWS V14.01,2013-07-19 08:30:00,
2013-07-19 03:31:00,76.5,76.5,28.73,SSW,200,0.0,0.0,100,0.00,,---,0.00,VWS V14.01,2013-07-19 08:31:00,
2013-07-19 03:32:00,76.5,76.5,28.73,SSW,200,0.0,0.0,100,0.00,,---,0.00,VWS V14.01,2013-07-19 08:32:00,
2013-07-19 03:33:00,76.5,76.5,28.73,SSW,200,0.0,0.0,100,0.00,,---,0.00,VWS V14.01,2013-07-19 08:33:00,
2013-07-19 03:34:00,76.5,76.5,28.73,SSW,200,0.0,0.0,100,0.00,,---,0.00,VWS V14.01,2013-07-19 08:34:00,
2013-07-19 03:35:00,76.5,76.5,28.73,SSW,200,0.0,0.0,100,0.00,,---,0.00,VWS V14.01,2013-07-19 08:35:00,
2013-07-19 03:36:00,76.5,76.5,28.73,SSW,200,0.0,0.0,100,0.00,,---,0.00,VWS V14.01,2013-07-19 08:36:00,
2013-07-19 03:37:00,76.5,76.5,28.73,SSW,200,0.0,0.0,100,0.00,,---,0.00,VWS V14.01,2013-07-19 08:37:00,
2013-07-19 03:38:00,76.5,76.5,28.73,SSW,200,0.0,0.0,100,0.00,,---,0.00,VWS V14.01,2013-07-19 08:38:00,
2013-07-19 03:39:00,76.5,76.5,28.73,SSW,200,0.0,0.0,100,0.00,,---,0.00,VWS V14.01,2013-07-19 08:39:00,
2013-07-19 03:40:00,76.5,76.5,28.73,SSW,200,0.0,0.0,100,0.00,,---,0.00,VWS V14.01,2013-07-19 08:40:00,
2013-07-19 03:41:00,76.5,76.5,28.73,SSW,200,0.0,0.0,100,0.00,,---,0.00,VWS V14.01,2013-07-19 08:41:00,
2013-07-19 03:42:00,76.5,76.5,28.73,SSW,200,0.0,0.0,100,0.00,,---,0.00,VWS V14.01,2013-07-19 08:42:00,
2013-07-19 03:43:00,76.5,76.5,28.73,WSW,251,0.0,0.0,100,0.00,,---,0.00,VWS V14.01,2013-07-19 08:43:00,
2013-07-19 03:44:00,76.5,76.5,28.73,WSW,251,0.0,0.0,100,0.00,,---,0.00,VWS V14.01,2013-07-19 08:44:00,
2013-07-19 03:45:00,76.5,76.5,28.73,WSW,251,0.0,0.0,100,0.00,,---,0.00,VWS V14.01,2013-07-19 08:45:00,
2013-07-19 03:46:00,76.5,76.5,28.73,WSW,251,0.0,0.0,100,0.00,,---,0.00,VWS V14.01,2013-07-19 08:46:00,
2013-07-19 03:47:00,76.5,76.5,28.73,WSW,251,0.0,0.0,100,0.00,,---,0.00,VWS V14.01,2013-07-19 08:47:00,
2013-07-19 03:48:00,76.5,76.5,28.73,WSW,253,0.0,0.0,100,0.00,,---,0.00,VWS V14.01,2013-07-19 08:48:00,
2013-07-19 03:49:00,76.5,76.5,28.73,WSW,253,0.0,0.0,100,0.00,,---,0.00,VWS V14.01,2013-07-19 08:49:00,
2013-07-19 03:50:00,76.5,76.5,28.73,West,276,0.0,0.0,100,0.00,,---,0.00,VWS V14.01,2013-07-19 08:50:00,
2013-07-19 03:51:00,76.5,76.5,28.73,West,276,0.0,0.0,100,0.00,,---,0.00,VWS V14.01,2013-07-19 08:51:00,
2013-07-19 03:52:00,76.5,76.5,28.73,WSW,256,0.0,0.0,100,0.00,,---,0.00,VWS V14.01,2013-07-19 08:52:00,
2013-07-19 03:53:00,76.6,76.7,28.73,WSW,256,0.0,0.0,100,0.00,,---,0.00,VWS V14.01,2013-07-19 08:53:00,
2013-07-19 03:54:00,76.6,76.7,28.70,WSW,256,0.0,0.0,100,0.00,,---,0.00,VWS V14.01,2013-07-19 08:54:00,
2013-07-19 03:55:00,76.5,76.5,28.70,WSW,258,0.0,0.0,100,0.00,,---,0.00,VWS V14.01,2013-07-19 08:55:00,
2013-07-19 03:56:00,76.5,76.5,28.70,WSW,258,0.0,0.0,100,0.00,,---,0.00,VWS V14.01,2013-07-19 08:56:00,
2013-07-19 03:57:00,76.5,76.5,28.70,West,259,0.0,0.0,100,0.00,,---,0.00,VWS V14.01,2013-07-19 08:57:00,
2013-07-19 03:58:00,76.5,76.5,28.70,West,263,0.0,0.0,100,0.00,,---,0.00,VWS V14.01,2013-07-19 08:58:00,
2013-07-19 03:59:00,76.5,76.5,28.70,West,263,0.0,0.0,100,0.00,,---,0.00,VWS V14.01,2013-07-19 08:59:00,
2013-07-19 04:00:00,76.5,76.5,28.70,WSW,258,0.0,0.0,100,0.00,,---,0.00,VWS V14.01,2013-07-19 09:00:00,
2013-07-19 04:01:00,76.5,76.5,28.70,WSW,258,0.0,0.0,100,0.00,,---,0.00,VWS V14.01,2013-07-19 09:01:00,
2013-07-19 04:02:00,76.5,76.5,28.70,WSW,258,0.0,0.0,100,0.00,,---,0.00,VWS V14.01,2013-07-19 09:02:00,
2013-07-19 04:03:00,76.5,76.5,28.70,WSW,258,0.0,0.0,100,0.00,,---,0.00,VWS V14.01,2013-07-19 09:03:00,
2013-07-19 04:04:00,76.5,76.5,28.70,WSW,258,0.0,0.0,100,0.00,,---,0.00,VWS V14.01,2013-07-19 09:04:00,
2013-07-19 04:05:00,76.5,76.5,28.70,WSW,258,0.0,0.0,100,0.00,,---,0.00,VWS V14.01,2013-07-19 09:05:00,
2013-07-19 04:06:00,76.5,76.5,28.70,WSW,258,0.0,0.0,100,0.00,,---,0.00,VWS V14.01,2013-07-19 09:06:00,
2013-07-19 04:07:00,76.5,76.5,28.70,WSW,258,0.0,0.0,100,0.00,,---,0.00,VWS V14.01,2013-07-19 09:07:00,
2013-07-19 04:08:00,76.3,76.3,28.70,WSW,258,0.0,0.0,100,0.00,,---,0.00,VWS V14.01,2013-07-19 09:08:00,
2013-07-19 04:09:00,76.3,76.3,28.70,WSW,258,0.0,0.0,100,0.00,,---,0.00,VWS V14.01,2013-07-19 09:09:00,
2013-07-19 04:10:00,76.3,76.3,28.70,WSW,258,0.0,0.0,100,0.00,,---,0.00,VWS V14.01,2013-07-19 09:10:00,
2013-07-19 04:11:00,76.3,76.3,28.70,WSW,258,0.0,0.0,100,0.00,,---,0.00,VWS V14.01,2013-07-19 09:11:00,
2013-07-19 04:12:00,76.3,76.3,28.70,WSW,258,0.0,0.0,100,0.00,,---,0.00,VWS V14.01,2013-07-19 09:12:00,
2013-07-19 04:13:00,76.3,76.3,28.70,WSW,258,0.0,0.0,100,0.00,,---,0.00,VWS V14.01,2013-07-19 09:13:00,
2013-07-19 04:14:00,76.3,76.3,28.70,WSW,258,0.0,0.0,100,0.00,,---,0.00,VWS V14.01,2013-07-19 09:14:00,
2013-07-19 04:15:00,76.3,76.3,28.70,WSW,258,0.0,0.0,100,0.00,,---,0.00,VWS V14.01,2013-07-19 09:15:00,
2013-07-19 04:16:00,76.3,76.3,28.70,WSW,258,0.0,0.0,100,0.00,,---,0.00,VWS V14.01,2013-07-19 09:16:00,
2013-07-19 04:17:00,76.1,76.1,28.70,WSW,258,0.0,0.0,100,0.00,,---,0.00,VWS V14.01,2013-07-19 09:17:00,
2013-07-19 04:18:00,76.1,76.1,28.70,WSW,258,0.0,0.0,100,0.00,,---,0.00,VWS V14.01,2013-07-19 09:18:00,
2013-07-19 04:19:00,76.1,76.1,28.70,WSW,258,0.0,0.0,100,0.00,,---,0.00,VWS V14.01,2013-07-19 09:19:00,
2013-07-19 04:20:00,75.9,75.9,28.70,WSW,258,0.0,0.0,100,0.00,,---,0.00,VWS V14.01,2013-07-19 09:20:00,
2013-07-19 04:21:00,75.9,75.9,28.70,WSW,258,0.0,0.0,100,0.00,,---,0.00,VWS V14.01,2013-07-19 09:21:00,
2013-07-19 04:22:00,75.9,75.9,28.70,West,269,0.0,0.0,100,0.00,,---,0.00,VWS V14.01,2013-07-19 09:22:00,
2013-07-19 04:23:00,75.9,75.9,28.70,West,269,0.0,0.0,100,0.00,,---,0.00,VWS V14.01,2013-07-19 09:23:00,
2013-07-19 04:24:00,75.9,75.9,28.70,West,269,0.0,0.0,100,0.00,,---,0.00,VWS V14.01,2013-07-19 09:24:00,
2013-07-19 04:25:00,75.9,75.9,28.70,West,269,0.0,0.0,100,0.00,,---,0.00,VWS V14.01,2013-07-19 09:25:00,
2013-07-19 04:26:00,75.9,75.9,28.70,West,269,0.0,0.0,100,0.00,,---,0.00,VWS V14.01,2013-07-19 09:26:00,
2013-07-19 04:27:00,75.9,75.9,28.70,West,269,0.0,0.0,100,0.00,,---,0.00,VWS V14.01,2013-07-19 09:27:00,
2013-07-19 04:28:00,75.9,75.9,28.70,West,269,0.0,0.0,100,0.00,,---,0.00,VWS V14.01,2013-07-19 09:28:00,
2013-07-19 04:29:00,75.9,75.9,28.70,West,269,0.0,0.0,100,0.00,,---,0.00,VWS V14.01,2013-07-19 09:29:00,
2013-07-19 04:30:00,75.9,75.9,28.70,West,268,0.0,0.0,100,0.00,,---,0.00,VWS V14.01,2013-07-19 09:30:00,
2013-07-19 04:31:00,75.9,75.9,28.70,West,268,0.0,0.0,100,0.00,,---,0.00,VWS V14.01,2013-07-19 09:31:00,
2013-07-19 04:32:00,75.9,75.9,28.70,West,268,0.0,0.0,100,0.00,,---,0.00,VWS V14.01,2013-07-19 09:32:00,
2013-07-19 04:33:00,75.9,75.9,28.70,West,268,0.0,0.0,100,0.00,,---,0.00,VWS V14.01,2013-07-19 09:33:00,
2013-07-19 04:34:00,75.9,75.9,28.70,West,268,0.0,0.0,100,0.00,,---,0.00,VWS V14.01,2013-07-19 09:34:00,
2013-07-19 04:35:00,75.9,75.9,28.70,West,268,0.0,0.0,100,0.00,,---,0.00,VWS V14.01,2013-07-19 09:35:00,
2013-07-19 04:36:00,75.9,75.9,28.70,West,268,0.0,0.0,100,0.00,,---,0.00,VWS V14.01,2013-07-19 09:36:00,
2013-07-19 04:37:00,76.1,76.1,28.73,West,271,0.0,0.0,100,0.00,,---,0.00,VWS V14.01,2013-07-19 09:37:00,
2013-07-19 04:38:00,76.1,76.1,28.73,West,271,0.0,0.0,100,0.00,,---,0.00,VWS V14.01,2013-07-19 09:38:00,
2013-07-19 04:39:00,76.1,76.1,28.73,West,271,0.0,0.0,100,0.00,,---,0.00,VWS V14.01,2013-07-19 09:39:00,
2013-07-19 04:40:00,76.1,76.1,28.73,West,271,0.0,0.0,100,0.00,,---,0.00,VWS V14.01,2013-07-19 09:40:00,
2013-07-19 04:41:00,76.1,76.1,28.73,West,271,0.0,0.0,100,0.00,,---,0.00,VWS V14.01,2013-07-19 09:41:00,
2013-07-19 04:42:00,76.1,76.1,28.73,West,271,0.0,0.0,100,0.00,,---,0.00,VWS V14.01,2013-07-19 09:42:00,
2013-07-19 04:43:00,76.1,76.1,28.73,West,273,0.0,0.0,100,0.00,,---,0.00,VWS V14.01,2013-07-19 09:43:00,
2013-07-19 04:44:00,76.1,76.1,28.73,West,273,0.0,0.0,100,0.00,,---,0.00,VWS V14.01,2013-07-19 09:44:00,
2013-07-19 04:45:00,76.1,76.1,28.73,West,273,0.0,0.0,100,0.00,,---,0.00,VWS V14.01,2013-07-19 09:45:00,
2013-07-19 04:46:00,76.1,76.1,28.73,West,273,0.0,0.0,100,0.00,,---,0.00,VWS V14.01,2013-07-19 09:46:00,
2013-07-19 04:47:00,76.1,76.1,28.73,West,273,0.0,0.0,100,0.00,,---,0.00,VWS V14.01,2013-07-19 09:47:00,
2013-07-19 04:48:00,76.1,76.1,28.73,West,261,0.0,0.0,100,0.00,,---,0.00,VWS V14.01,2013-07-19 09:48:00,
2013-07-19 04:49:00,76.1,76.1,28.73,West,261,0.0,0.0,100,0.00,,---,0.00,VWS V14.01,2013-07-19 09:49:00,
2013-07-19 04:50:00,76.1,76.1,28.73,WSW,241,0.0,0.0,100,0.00,,---,0.00,VWS V14.01,2013-07-19 09:50:00,
2013-07-19 04:51:00,76.1,76.1,28.73,WSW,241,0.0,0.0,100,0.00,,---,0.00,VWS V14.01,2013-07-19 09:51:00,
2013-07-19 04:52:00,76.1,76.1,28.73,WSW,241,0.0,0.0,100,0.00,,---,0.00,VWS V14.01,2013-07-19 09:52:00,
2013-07-19 04:53:00,76.1,76.1,28.73,WSW,241,0.0,0.0,100,0.00,,---,0.00,VWS V14.01,2013-07-19 09:53:00,
2013-07-19 04:54:00,75.9,75.9,28.73,WSW,241,0.0,0.0,100,0.00,,---,0.00,VWS V14.01,2013-07-19 09:54:00,
2013-07-19 04:55:00,75.9,75.9,28.73,WSW,241,0.0,0.0,100,0.00,,---,0.00,VWS V14.01,2013-07-19 09:55:00,
2013-07-19 04:56:00,75.9,75.9,28.73,WSW,241,0.0,0.0,100,0.00,,---,0.00,VWS V14.01,2013-07-19 09:56:00,
2013-07-19 04:57:00,75.9,75.9,28.73,West,267,0.0,0.0,100,0.00,,---,0.00,VWS V14.01,2013-07-19 09:57:00,
2013-07-19 04:58:00,75.9,75.9,28.73,West,276,0.0,0.0,100,0.00,,---,0.00,VWS V14.01,2013-07-19 09:58:00,
2013-07-19 04:59:00,75.9,75.9,28.73,West,276,0.0,0.0,100,0.00,,---,0.00,VWS V14.01,2013-07-19 09:59:00,
2013-07-19 05:00:00,75.9,75.9,28.73,West,276,0.0,0.0,100,0.00,,---,0.00,VWS V14.01,2013-07-19 10:00:00,
2013-07-19 05:01:00,75.9,75.9,28.73,West,276,0.0,0.0,100,0.00,,---,0.00,VWS V14.01,2013-07-19 10:01:00,
2013-07-19 05:02:00,75.9,75.9,28.73,West,276,0.0,0.0,100,0.00,,---,0.00,VWS V14.01,2013-07-19 10:02:00,
2013-07-19 05:03:00,75.9,75.9,28.73,West,276,0.0,0.0,100,0.00,,---,0.00,VWS V14.01,2013-07-19 10:03:00,
2013-07-19 05:04:00,75.9,75.9,28.73,West,276,0.0,0.0,100,0.00,,---,0.00,VWS V14.01,2013-07-19 10:04:00,
2013-07-19 05:05:00,75.9,75.9,28.73,WSW,256,0.0,0.0,100,0.00,,---,0.00,VWS V14.01,2013-07-19 10:05:00,
2013-07-19 05:06:00,75.9,75.9,28.73,WSW,256,0.0,0.0,100,0.00,,---,0.00,VWS V14.01,2013-07-19 10:06:00,
2013-07-19 05:07:00,75.9,75.9,28.73,WSW,256,0.0,0.0,100,0.00,,---,0.00,VWS V14.01,2013-07-19 10:07:00,
2013-07-19 05:08:00,75.9,75.9,28.73,WSW,256,0.0,0.0,100,0.00,,---,0.00,VWS V14.01,2013-07-19 10:08:00,
2013-07-19 05:09:00,75.9,75.9,28.73,West,268,0.0,0.0,100,0.00,,---,0.00,VWS V14.01,2013-07-19 10:09:00,
2013-07-19 05:10:00,75.9,75.9,28.73,West,268,0.0,0.0,100,0.00,,---,0.00,VWS V14.01,2013-07-19 10:10:00,
2013-07-19 05:11:00,75.7,75.8,28.73,West,270,0.0,0.0,100,0.00,,---,0.00,VWS V14.01,2013-07-19 10:11:00,
2013-07-19 05:12:00,75.7,75.8,28.73,WSW,245,0.0,0.0,100,0.00,,---,0.00,VWS V14.01,2013-07-19 10:12:00,
2013-07-19 05:13:00,75.7,75.8,28.73,WSW,245,0.0,0.0,100,0.00,,---,0.00,VWS V14.01,2013-07-19 10:13:00,
2013-07-19 05:14:00,75.7,75.8,28.73,SW,231,0.0,0.0,100,0.00,,---,0.00,VWS V14.01,2013-07-19 10:14:00,
2013-07-19 05:15:00,75.7,75.8,28.73,SW,231,0.0,0.0,100,0.00,,---,0.00,VWS V14.01,2013-07-19 10:15:00,
2013-07-19 05:16:00,75.7,75.8,28.73,SW,236,0.0,0.0,100,0.00,,---,0.00,VWS V14.01,2013-07-19 10:16:00,
2013-07-19 05:17:00,75.7,75.8,28.73,SW,236,0.0,0.0,100,0.00,,---,0.00,VWS V14.01,2013-07-19 10:17:00,
2013-07-19 05:18:00,75.7,75.8,28.73,West,267,2.7,2.7,100,0.00,,---,0.00,VWS V14.01,2013-07-19 10:18:00,
2013-07-19 05:19:00,75.7,75.8,28.73,West,267,0.0,0.0,100,0.00,,---,0.00,VWS V14.01,2013-07-19 10:19:00,
2013-07-19 05:20:00,75.7,75.8,28.73,West,267,0.0,0.0,100,0.00,,---,0.00,VWS V14.01,2013-07-19 10:20:00,
2013-07-19 05:21:00,75.7,75.8,28.73,West,267,0.0,0.0,100,0.00,,---,0.00,VWS V14.01,2013-07-19 10:21:00,
2013-07-19 05:22:00,75.7,75.8,28.73,West,267,0.0,0.0,100,0.00,,---,0.00,VWS V14.01,2013-07-19 10:22:00,
2013-07-19 05:23:00,75.7,75.8,28.73,West,267,0.0,0.0,100,0.00,,---,0.00,VWS V14.01,2013-07-19 10:23:00,
2013-07-19 05:24:00,75.7,75.8,28.73,West,267,0.0,0.0,100,0.00,,---,0.00,VWS V14.01,2013-07-19 10:24:00,
2013-07-19 05:25:00,75.6,75.6,28.73,West,260,0.0,0.0,100,0.00,,---,0.00,VWS V14.01,2013-07-19 10:25:00,
2013-07-19 05:26:00,75.6,75.6,28.73,West,259,0.0,0.0,100,0.00,,---,0.00,VWS V14.01,2013-07-19 10:26:00,
2013-07-19 05:27:00,75.6,75.6,28.73,West,259,0.0,0.0,100,0.00,,---,0.00,VWS V14.01,2013-07-19 10:27:00,
2013-07-19 05:28:00,75.6,75.6,28.73,West,259,0.0,0.0,100,0.00,,---,0.00,VWS V14.01,2013-07-19 10:28:00,
2013-07-19 05:29:00,75.6,75.6,28.73,West,259,0.0,0.0,100,0.00,,---,0.00,VWS V14.01,2013-07-19 10:29:00,
2013-07-19 05:30:00,75.6,75.6,28.73,West,259,0.0,0.0,100,0.00,,---,0.00,VWS V14.01,2013-07-19 10:30:00,
2013-07-19 05:31:00,75.6,75.6,28.73,West,259,0.0,0.0,100,0.00,,---,0.00,VWS V14.01,2013-07-19 10:31:00,
2013-07-19 05:32:00,75.6,75.6,28.73,West,259,0.0,0.0,100,0.00,,---,0.00,VWS V14.01,2013-07-19 10:32:00,
2013-07-19 05:33:00,75.6,75.6,28.73,WSW,251,0.0,0.0,100,0.00,,---,0.00,VWS V14.01,2013-07-19 10:33:00,
2013-07-19 05:34:00,75.6,75.6,28.73,WSW,251,0.0,0.0,100,0.00,,---,0.00,VWS V14.01,2013-07-19 10:34:00,
2013-07-19 05:35:00,75.6,75.6,28.73,West,277,0.0,0.0,100,0.00,,---,0.00,VWS V14.01,2013-07-19 10:35:00,
2013-07-19 05:36:00,75.6,75.6,28.73,West,277,0.0,0.0,100,0.00,,---,0.00,VWS V14.01,2013-07-19 10:36:00,
2013-07-19 05:37:00,75.6,75.6,28.73,West,277,0.0,0.0,100,0.00,,---,0.00,VWS V14.01,2013-07-19 10:37:00,
2013-07-19 05:38:00,75.6,75.6,28.73,WSW,250,0.0,0.0,100,0.00,,---,0.00,VWS V14.01,2013-07-19 10:38:00,
2013-07-19 05:39:00,75.6,75.6,28.73,WSW,250,0.0,0.0,100,0.00,,---,0.00,VWS V14.01,2013-07-19 10:39:00,
2013-07-19 05:40:00,75.6,75.6,28.73,WSW,249,0.0,0.0,100,0.00,,---,0.00,VWS V14.01,2013-07-19 10:40:00,
2013-07-19 05:41:00,75.6,75.6,28.73,WSW,249,0.0,0.0,100,0.00,,---,0.00,VWS V14.01,2013-07-19 10:41:00,
2013-07-19 05:42:00,75.6,75.6,28.73,West,263,4.0,4.0,100,0.00,,---,0.00,VWS V14.01,2013-07-19 10:42:00,
2013-07-19 05:43:00,75.6,75.6,28.73,West,263,4.0,4.0,100,0.00,,---,0.00,VWS V14.01,2013-07-19 10:43:00,
2013-07-19 05:44:00,75.6,75.6,28.73,WSW,252,2.2,4.0,100,0.00,,---,0.00,VWS V14.01,2013-07-19 10:44:00,
2013-07-19 05:45:00,75.6,75.6,28.73,WSW,252,2.2,2.2,100,0.00,,---,0.00,VWS V14.01,2013-07-19 10:45:00,
2013-07-19 05:46:00,75.6,75.6,28.73,WSW,252,2.2,2.2,100,0.00,,---,0.00,VWS V14.01,2013-07-19 10:46:00,
2013-07-19 05:47:00,75.6,75.6,28.73,West,260,3.6,3.6,100,0.00,,---,0.00,VWS V14.01,2013-07-19 10:47:00,
2013-07-19 05:48:00,75.6,75.6,28.73,West,260,3.6,3.6,100,0.00,,---,0.00,VWS V14.01,2013-07-19 10:48:00,
2013-07-19 05:49:00,75.6,75.6,28.73,West,260,3.6,3.6,100,0.00,,---,0.00,VWS V14.01,2013-07-19 10:49:00,
2013-07-19 05:50:00,75.6,75.6,28.73,West,260,3.6,3.6,100,0.00,,---,0.00,VWS V14.01,2013-07-19 10:50:00,
2013-07-19 05:51:00,75.6,75.6,28.73,West,272,2.7,3.6,100,0.00,,---,0.00,VWS V14.01,2013-07-19 10:51:00,
2013-07-19 05:52:00,75.6,75.6,28.73,WSW,247,2.7,2.7,100,0.00,,---,0.00,VWS V14.01,2013-07-19 10:52:00,
2013-07-19 05:53:00,75.6,75.6,28.73,WSW,247,2.7,2.7,100,0.00,,---,0.00,VWS V14.01,2013-07-19 10:53:00,
2013-07-19 05:54:00,75.7,75.8,28.73,WSW,247,2.7,2.7,100,0.00,,---,0.00,VWS V14.01,2013-07-19 10:54:00,
2013-07-19 05:55:00,75.7,75.8,28.73,WSW,247,2.7,2.7,100,0.00,,---,0.00,VWS V14.01,2013-07-19 10:55:00,
2013-07-19 05:56:00,75.7,75.8,28.73,WSW,247,2.7,2.7,100,0.00,,---,0.00,VWS V14.01,2013-07-19 10:56:00,
2013-07-19 05:57:00,75.7,75.8,28.73,WSW,247,2.7,2.7,100,0.00,,---,0.00,VWS V14.01,2013-07-19 10:57:00,
2013-07-19 05:58:00,75.7,75.8,28.73,WSW,247,2.7,2.7,100,0.00,,---,0.00,VWS V14.01,2013-07-19 10:58:00,
2013-07-19 05:59:00,75.7,75.8,28.73,WSW,247,2.7,2.7,100,0.00,,---,0.00,VWS V14.01,2013-07-19 10:59:00,
2013-07-19 06:00:00,75.7,75.8,28.73,WSW,247,2.7,2.7,100,0.00,,---,0.00,VWS V14.01,2013-07-19 11:00:00,
2013-07-19 06:01:00,75.7,75.8,28.73,WSW,254,0.0,2.7,100,0.00,,---,0.00,VWS V14.01,2013-07-19 11:01:00,
2013-07-19 06:02:00,75.7,75.8,28.73,West,261,0.0,0.0,100,0.00,,---,0.00,VWS V14.01,2013-07-19 11:02:00,
2013-07-19 06:03:00,75.7,75.8,28.73,West,261,0.0,0.0,100,0.00,,---,0.00,VWS V14.01,2013-07-19 11:03:00,
2013-07-19 06:04:00,75.7,75.8,28.73,West,261,0.0,0.0,100,0.00,,---,0.00,VWS V14.01,2013-07-19 11:04:00,
2013-07-19 06:05:00,75.7,75.8,28.73,West,264,0.0,0.0,100,0.00,,---,0.00,VWS V14.01,2013-07-19 11:05:00,
2013-07-19 06:06:00,75.7,75.8,28.73,West,264,0.0,0.0,100,0.00,,---,0.00,VWS V14.01,2013-07-19 11:06:00,
2013-07-19 06:07:00,75.7,75.8,28.73,WSW,257,0.0,0.0,100,0.00,,---,0.00,VWS V14.01,2013-07-19 11:07:00,
2013-07-19 06:08:00,75.7,75.8,28.73,WSW,257,0.0,0.0,100,0.00,,---,0.00,VWS V14.01,2013-07-19 11:08:00,
2013-07-19 06:09:00,75.7,75.8,28.73,WSW,257,0.0,0.0,100,0.00,,---,0.00,VWS V14.01,2013-07-19 11:09:00,
2013-07-19 06:10:00,75.7,75.8,28.73,WSW,252,0.0,0.0,100,0.00,,---,0.00,VWS V14.01,2013-07-19 11:10:00,
2013-07-19 06:11:00,75.7,75.8,28.73,WSW,252,0.0,0.0,100,0.00,,---,0.00,VWS V14.01,2013-07-19 11:11:00,
2013-07-19 06:12:00,75.9,75.9,28.73,WSW,252,0.0,0.0,100,0.00,,---,0.00,VWS V14.01,2013-07-19 11:12:00,
2013-07-19 06:13:00,75.9,75.9,28.73,WSW,252,0.0,0.0,100,0.00,,---,0.00,VWS V14.01,2013-07-19 11:13:00,
2013-07-19 06:14:00,75.9,75.9,28.73,WSW,252,0.0,0.0,100,0.00,,---,0.00,VWS V14.01,2013-07-19 11:14:00,
2013-07-19 06:15:00,75.9,75.9,28.73,West,259,0.0,0.0,100,0.00,,---,0.00,VWS V14.01,2013-07-19 11:15:00,
2013-07-19 06:16:00,75.9,75.9,28.73,West,259,0.0,0.0,100,0.00,,---,0.00,VWS V14.01,2013-07-19 11:16:00,
2013-07-19 06:17:00,75.9,75.9,28.73,West,259,0.0,0.0,100,0.00,,---,0.00,VWS V14.01,2013-07-19 11:17:00,
2013-07-19 06:18:00,75.9,75.9,28.73,West,259,0.0,0.0,100,0.00,,---,0.00,VWS V14.01,2013-07-19 11:18:00,
2013-07-19 06:19:00,75.9,75.9,28.73,West,259,0.0,0.0,100,0.00,,---,0.00,VWS V14.01,2013-07-19 11:19:00,
2013-07-19 06:20:00,76.1,76.1,28.73,West,259,0.0,0.0,100,0.00,,---,0.00,VWS V14.01,2013-07-19 11:20:00,
2013-07-19 06:21:00,76.1,76.1,28.73,West,259,0.0,0.0,100,0.00,,---,0.00,VWS V14.01,2013-07-19 11:21:00,
2013-07-19 06:22:00,76.1,76.1,28.73,West,262,0.0,0.0,100,0.00,,---,0.00,VWS V14.01,2013-07-19 11:22:00,
2013-07-19 06:23:00,76.1,76.1,28.73,West,262,0.0,0.0,100,0.00,,---,0.00,VWS V14.01,2013-07-19 11:23:00,
2013-07-19 06:24:00,76.1,76.1,28.73,West,262,0.0,0.0,100,0.00,,---,0.00,VWS V14.01,2013-07-19 11:24:00,
2013-07-19 06:25:00,76.1,76.1,28.73,West,262,0.0,0.0,100,0.00,,---,0.00,VWS V14.01,2013-07-19 11:25:00,
2013-07-19 06:26:00,76.3,76.3,28.73,West,262,0.0,0.0,100,0.00,,---,0.00,VWS V14.01,2013-07-19 11:26:00,
2013-07-19 06:27:00,76.3,76.3,28.73,West,262,0.0,0.0,100,0.00,,---,0.00,VWS V14.01,2013-07-19 11:27:00,
2013-07-19 06:28:00,76.3,76.3,28.73,West,262,0.0,0.0,100,0.00,,---,0.00,VWS V14.01,2013-07-19 11:28:00,
2013-07-19 06:29:00,76.3,76.3,28.73,West,262,0.0,0.0,100,0.00,,---,0.00,VWS V14.01,2013-07-19 11:29:00,
2013-07-19 06:30:00,76.3,76.3,28.73,West,262,0.0,0.0,100,0.00,,---,0.00,VWS V14.01,2013-07-19 11:30:00,
2013-07-19 06:31:00,76.5,76.5,28.73,West,262,0.0,0.0,100,0.00,,---,0.00,VWS V14.01,2013-07-19 11:31:00,
2013-07-19 06:32:00,76.5,76.5,28.73,West,262,0.0,0.0,100,0.00,,---,0.00,VWS V14.01,2013-07-19 11:32:00,
2013-07-19 06:33:00,76.5,76.5,28.73,West,262,0.0,0.0,100,0.00,,---,0.00,VWS V14.01,2013-07-19 11:33:00,
2013-07-19 06:34:00,76.5,76.5,28.73,West,262,0.0,0.0,100,0.00,,---,0.00,VWS V14.01,2013-07-19 11:34:00,
2013-07-19 06:35:00,76.6,76.7,28.73,WSW,243,0.0,0.0,100,0.00,,---,0.00,VWS V14.01,2013-07-19 11:35:00,
2013-07-19 06:36:00,76.6,76.7,28.73,West,260,0.0,0.0,100,0.00,,---,0.00,VWS V14.01,2013-07-19 11:36:00,
2013-07-19 06:37:00,76.6,76.7,28.73,West,262,0.0,0.0,100,0.00,,---,0.00,VWS V14.01,2013-07-19 11:37:00,
2013-07-19 06:38:00,76.6,76.7,28.73,West,262,0.0,0.0,100,0.00,,---,0.00,VWS V14.01,2013-07-19 11:38:00,
2013-07-19 06:39:00,76.6,76.7,28.73,West,262,0.0,0.0,100,0.00,,---,0.00,VWS V14.01,2013-07-19 11:39:00,
2013-07-19 06:40:00,76.6,76.7,28.73,West,262,0.0,0.0,100,0.00,,---,0.00,VWS V14.01,2013-07-19 11:40:00,
2013-07-19 06:41:00,76.6,76.7,28.73,West,262,0.0,0.0,100,0.00,,---,0.00,VWS V14.01,2013-07-19 11:41:00,
2013-07-19 06:42:00,76.6,76.7,28.73,West,262,0.0,0.0,100,0.00,,---,0.00,VWS V14.01,2013-07-19 11:42:00,
2013-07-19 06:43:00,76.6,76.7,28.73,West,262,0.0,0.0,100,0.00,,---,0.00,VWS V14.01,2013-07-19 11:43:00,
2013-07-19 06:44:00,76.6,76.7,28.73,West,274,3.1,3.1,100,0.00,,---,0.00,VWS V14.01,2013-07-19 11:44:00,
2013-07-19 06:45:00,77.0,77.0,28.73,SW,220,0.0,3.1,100,0.00,,---,0.00,VWS V14.01,2013-07-19 11:45:00,
2013-07-19 06:46:00,77.0,77.0,28.73,SW,220,0.0,0.0,100,0.00,,---,0.00,VWS V14.01,2013-07-19 11:46:00,
2013-07-19 06:47:00,77.0,77.0,28.73,SW,220,0.0,0.0,100,0.00,,---,0.00,VWS V14.01,2013-07-19 11:47:00,
2013-07-19 06:48:00,77.0,77.0,28.73,SW,220,0.0,0.0,100,0.00,,---,0.00,VWS V14.01,2013-07-19 11:48:00,
2013-07-19 06:49:00,77.0,77.0,28.73,SW,220,0.0,0.0,100,0.00,,---,0.00,VWS V14.01,2013-07-19 11:49:00,
2013-07-19 06:50:00,77.0,77.0,28.73,WSW,250,0.0,0.0,100,0.00,,---,0.00,VWS V14.01,2013-07-19 11:50:00,
2013-07-19 06:51:00,77.0,77.0,28.73,WSW,250,0.0,0.0,100,0.00,,---,0.00,VWS V14.01,2013-07-19 11:51:00,
2013-07-19 06:52:00,77.0,77.0,28.73,WSW,250,0.0,0.0,100,0.00,,---,0.00,VWS V14.01,2013-07-19 11:52:00,
2013-07-19 06:53:00,77.0,77.0,28.73,WSW,256,2.2,2.2,100,0.00,,---,0.00,VWS V14.01,2013-07-19 11:53:00,
2013-07-19 06:54:00,77.5,77.6,28.73,WSW,256,2.2,2.2,100,0.00,,---,0.00,VWS V14.01,2013-07-19 11:54:00,
2013-07-19 06:55:00,77.5,77.6,28.73,WSW,256,2.2,2.2,100,0.00,,---,0.00,VWS V14.01,2013-07-19 11:55:00,
2013-07-19 06:56:00,77.5,77.6,28.73,WSW,256,2.2,2.2,100,0.00,,---,0.00,VWS V14.01,2013-07-19 11:56:00,
2013-07-19 06:57:00,77.7,77.7,28.73,WNW,283,0.0,2.2,100,0.00,,---,0.00,VWS V14.01,2013-07-19 11:57:00,
2013-07-19 06:58:00,77.7,77.7,28.73,WNW,283,0.0,0.0,100,0.00,,---,0.00,VWS V14.01,2013-07-19 11:58:00,
2013-07-19 06:59:00,77.9,77.9,28.73,SSW,206,4.9,4.9,100,0.00,,---,0.00,VWS V14.01,2013-07-19 11:59:00,
2013-07-19 07:00:00,77.9,77.9,28.73,SSW,206,4.9,4.9,100,0.00,,---,0.00,VWS V14.01,2013-07-19 12:00:00,
2013-07-19 07:01:00,77.9,77.9,28.73,SSW,206,4.9,4.9,100,0.00,,---,0.00,VWS V14.01,2013-07-19 12:01:00,
2013-07-19 07:02:00,77.9,77.9,28.73,West,265,0.0,0.0,100,0.00,,---,0.00,VWS V14.01,2013-07-19 12:02:00,
2013-07-19 07:03:00,77.9,77.9,28.73,West,265,0.0,0.0,100,0.00,,---,0.00,VWS V14.01,2013-07-19 12:03:00,
2013-07-19 07:04:00,77.9,77.9,28.73,West,275,4.0,4.0,100,0.00,,---,0.00,VWS V14.01,2013-07-19 12:04:00,
2013-07-19 07:05:00,77.9,77.9,28.73,West,275,4.0,4.0,100,0.00,,---,0.00,VWS V14.01,2013-07-19 12:05:00,
2013-07-19 07:06:00,78.1,78.1,28.73,West,275,4.0,4.0,100,0.00,,---,0.00,VWS V14.01,2013-07-19 12:06:00,
2013-07-19 07:07:00,78.1,78.1,28.73,West,275,4.0,4.0,100,0.00,,---,0.00,VWS V14.01,2013-07-19 12:07:00,
2013-07-19 07:08:00,78.1,78.1,28.73,West,260,2.2,4.0,100,0.00,,---,0.00,VWS V14.01,2013-07-19 12:08:00,
2013-07-19 07:09:00,78.1,78.1,28.73,West,260,2.2,2.2,100,0.00,,---,0.00,VWS V14.01,2013-07-19 12:09:00,
2013-07-19 07:10:00,78.1,78.1,28.73,SW,234,3.1,7.2,100,0.00,,---,0.00,VWS V14.01,2013-07-19 12:10:00,
2013-07-19 07:11:00,78.1,78.1,28.73,West,263,2.7,3.1,100,0.00,,---,0.00,VWS V14.01,2013-07-19 12:11:00,
2013-07-19 07:12:00,78.6,78.6,28.73,West,263,2.7,2.7,100,0.00,,---,0.00,VWS V14.01,2013-07-19 12:12:00,
2013-07-19 07:13:00,78.6,78.6,28.73,West,263,2.7,2.7,100,0.00,,---,0.00,VWS V14.01,2013-07-19 12:13:00,
2013-07-19 07:14:00,78.6,78.6,28.73,West,263,2.7,2.7,100,0.00,,---,0.00,VWS V14.01,2013-07-19 12:14:00,
2013-07-19 07:15:00,78.6,77.4,28.73,West,263,2.7,2.7,96,0.00,,---,0.00,VWS V14.01,2013-07-19 12:15:00,
2013-07-19 07:16:00,78.6,77.4,28.73,West,263,2.7,2.7,96,0.00,,---,0.00,VWS V14.01,2013-07-19 12:16:00,
2013-07-19 07:17:00,78.6,77.4,28.73,West,263,2.7,2.7,96,0.00,,---,0.00,VWS V14.01,2013-07-19 12:17:00,
2013-07-19 07:18:00,78.6,77.4,28.73,West,265,3.6,3.6,96,0.00,,---,0.00,VWS V14.01,2013-07-19 12:18:00,
2013-07-19 07:19:00,78.6,77.4,28.73,West,264,5.8,5.8,96,0.00,,---,0.00,VWS V14.01,2013-07-19 12:19:00,
2013-07-19 07:20:00,79.0,76.5,28.73,West,264,5.8,5.8,92,0.00,,---,0.00,VWS V14.01,2013-07-19 12:20:00,
2013-07-19 07:21:00,79.0,76.5,28.73,West,264,5.8,5.8,92,0.00,,---,0.00,VWS V14.01,2013-07-19 12:21:00,
2013-07-19 07:22:00,79.0,76.5,28.73,West,264,5.8,5.8,92,0.00,,---,0.00,VWS V14.01,2013-07-19 12:22:00,
2013-07-19 07:23:00,79.0,76.5,28.73,West,264,5.8,5.8,92,0.00,,---,0.00,VWS V14.01,2013-07-19 12:23:00,
2013-07-19 07:24:00,79.0,76.5,28.73,WSW,253,2.2,6.3,92,0.00,,---,0.00,VWS V14.01,2013-07-19 12:24:00,
2013-07-19 07:25:00,79.0,76.5,28.73,SSW,197,3.6,3.6,92,0.00,,---,0.00,VWS V14.01,2013-07-19 12:25:00,
2013-07-19 07:26:00,79.0,76.5,28.73,SSW,197,3.6,3.6,92,0.00,,---,0.00,VWS V14.01,2013-07-19 12:26:00,
2013-07-19 07:27:00,79.0,76.5,28.73,West,263,3.1,3.1,92,0.00,,---,0.00,VWS V14.01,2013-07-19 12:27:00,
2013-07-19 07:28:00,79.0,76.5,28.73,West,263,3.1,3.1,92,0.00,,---,0.00,VWS V14.01,2013-07-19 12:28:00,
2013-07-19 07:29:00,79.0,76.5,28.73,West,263,3.1,3.1,92,0.00,,---,0.00,VWS V14.01,2013-07-19 12:29:00,
2013-07-19 07:30:00,79.0,76.5,28.73,West,263,0.0,0.0,92,0.00,,---,0.00,VWS V14.01,2013-07-19 12:30:00,
2013-07-19 07:31:00,79.0,76.5,28.73,West,263,0.0,0.0,92,0.00,,---,0.00,VWS V14.01,2013-07-19 12:31:00,
2013-07-19 07:32:00,79.0,76.5,28.73,WSW,250,2.2,2.2,92,0.00,,---,0.00,VWS V14.01,2013-07-19 12:32:00,
2013-07-19 07:33:00,79.0,76.5,28.73,WSW,250,2.2,2.2,92,0.00,,---,0.00,VWS V14.01,2013-07-19 12:33:00,
2013-07-19 07:34:00,79.0,76.5,28.73,West,270,2.2,2.2,92,0.00,,---,0.00,VWS V14.01,2013-07-19 12:34:00,
2013-07-19 07:35:00,79.0,76.5,28.73,West,270,2.2,2.2,92,0.00,,---,0.00,VWS V14.01,2013-07-19 12:35:00,
2013-07-19 07:36:00,79.0,76.5,28.73,West,261,3.1,3.1,92,0.00,,---,0.00,VWS V14.01,2013-07-19 12:36:00,
2013-07-19 07:37:00,79.0,76.5,28.73,West,261,3.1,3.1,92,0.00,,---,0.00,VWS V14.01,2013-07-19 12:37:00,
2013-07-19 07:38:00,79.9,76.0,28.73,WSW,257,3.6,3.6,88,0.00,,---,0.00,VWS V14.01,2013-07-19 12:38:00,
2013-07-19 07:39:00,79.9,76.0,28.73,West,279,4.9,4.9,88,0.00,,---,0.00,VWS V14.01,2013-07-19 12:39:00,
2013-07-19 07:40:00,79.9,76.0,28.73,West,279,4.9,4.9,88,0.00,,---,0.00,VWS V14.01,2013-07-19 12:40:00,
2013-07-19 07:41:00,79.9,76.0,28.73,West,264,7.6,7.6,88,0.00,,---,0.00,VWS V14.01,2013-07-19 12:41:00,
2013-07-19 07:42:00,79.9,76.0,28.73,West,264,7.6,7.6,88,0.00,,---,0.00,VWS V14.01,2013-07-19 12:42:00,
2013-07-19 07:43:00,80.4,75.2,28.73,West,264,7.6,7.6,84,0.00,,---,0.00,VWS V14.01,2013-07-19 12:43:00,
2013-07-19 07:44:00,80.4,75.2,28.73,WSW,258,5.4,5.4,84,0.00,,---,0.00,VWS V14.01,2013-07-19 12:44:00,
2013-07-19 07:45:00,80.4,75.2,28.73,WSW,258,5.4,5.4,84,0.00,,---,0.00,VWS V14.01,2013-07-19 12:45:00,
2013-07-19 07:46:00,80.4,75.2,28.73,WNW,299,0.0,0.0,84,0.00,,---,0.00,VWS V14.01,2013-07-19 12:46:00,
2013-07-19 07:47:00,80.4,75.2,28.73,WNW,299,0.0,0.0,84,0.00,,---,0.00,VWS V14.01,2013-07-19 12:47:00,
2013-07-19 07:48:00,80.6,73.9,28.73,WNW,299,0.0,0.0,80,0.00,,---,0.00,VWS V14.01,2013-07-19 12:48:00,
2013-07-19 07:49:00,80.6,73.9,28.73,WNW,299,0.0,0.0,80,0.00,,---,0.00,VWS V14.01,2013-07-19 12:49:00,
2013-07-19 07:50:00,80.6,73.9,28.73,West,260,2.2,2.2,80,0.00,,---,0.00,VWS V14.01,2013-07-19 12:50:00,
2013-07-19 07:51:00,81.0,74.2,28.73,West,259,0.0,2.2,80,0.00,,---,0.00,VWS V14.01,2013-07-19 12:51:00,
2013-07-19 07:52:00,81.0,74.2,28.73,West,259,0.0,0.0,80,0.00,,---,0.00,VWS V14.01,2013-07-19 12:52:00,
2013-07-19 07:53:00,81.3,74.6,28.73,West,276,2.2,2.2,80,0.00,,---,0.00,VWS V14.01,2013-07-19 12:53:00,
2013-07-19 07:54:00,81.3,74.6,28.73,West,276,2.2,2.2,80,0.00,,---,0.00,VWS V14.01,2013-07-19 12:54:00,
2013-07-19 07:55:00,81.3,74.6,28.73,West,276,2.2,2.2,80,0.00,,---,0.00,VWS V14.01,2013-07-19 12:55:00,
2013-07-19 07:56:00,81.3,74.6,28.73,West,276,2.2,2.2,80,0.00,,---,0.00,VWS V14.01,2013-07-19 12:56:00,
2013-07-19 07:57:00,81.3,74.6,28.73,West,276,2.2,2.2,80,0.00,,---,0.00,VWS V14.01,2013-07-19 12:57:00,
2013-07-19 07:58:00,81.3,74.6,28.73,West,276,2.2,2.2,80,0.00,,---,0.00,VWS V14.01,2013-07-19 12:58:00,
2013-07-19 07:59:00,82.4,74.1,28.73,West,276,2.2,2.2,76,0.00,,---,0.00,VWS V14.01,2013-07-19 12:59:00,
2013-07-19 08:00:00,82.4,74.1,28.73,WSW,244,4.9,5.8,76,0.00,,---,0.00,VWS V14.01,2013-07-19 13:00:00,
2013-07-19 08:01:00,82.4,74.1,28.73,WSW,244,4.9,4.9,76,0.00,,---,0.00,VWS V14.01,2013-07-19 13:01:00,
2013-07-19 08:02:00,82.4,74.1,28.73,SW,220,2.7,4.9,76,0.00,,---,0.00,VWS V14.01,2013-07-19 13:02:00,
2013-07-19 08:03:00,82.4,74.1,28.73,West,272,6.3,6.3,76,0.00,,---,0.00,VWS V14.01,2013-07-19 13:03:00,
2013-07-19 08:04:00,82.9,74.6,28.73,SW,236,2.7,6.3,76,0.00,,---,0.00,VWS V14.01,2013-07-19 13:04:00,
2013-07-19 08:05:00,82.9,74.6,28.73,SW,236,2.7,2.7,76,0.00,,---,0.00,VWS V14.01,2013-07-19 13:05:00,
2013-07-19 08:06:00,82.9,74.6,28.73,SW,236,2.7,2.7,76,0.00,,---,0.00,VWS V14.01,2013-07-19 13:06:00,
2013-07-19 08:07:00,82.9,74.6,28.73,SW,236,2.7,2.7,76,0.00,,---,0.00,VWS V14.01,2013-07-19 13:07:00,
2013-07-19 08:08:00,82.9,74.6,28.73,SW,236,2.7,2.7,76,0.00,,---,0.00,VWS V14.01,2013-07-19 13:08:00,
2013-07-19 08:09:00,83.3,74.9,28.73,SW,236,2.7,2.7,76,0.00,,---,0.00,VWS V14.01,2013-07-19 13:09:00,
2013-07-19 08:10:00,83.3,74.9,28.73,SW,236,2.7,2.7,76,0.00,,---,0.00,VWS V14.01,2013-07-19 13:10:00,
2013-07-19 08:11:00,83.3,74.9,28.73,SSW,208,0.0,0.0,76,0.00,,---,0.00,VWS V14.01,2013-07-19 13:11:00,
2013-07-19 08:12:00,83.3,74.9,28.73,SSW,208,0.0,0.0,76,0.00,,---,0.00,VWS V14.01,2013-07-19 13:12:00,
2013-07-19 08:13:00,83.8,75.5,28.73,West,281,0.0,0.0,76,0.00,,---,0.00,VWS V14.01,2013-07-19 13:13:00,
2013-07-19 08:14:00,83.8,75.5,28.73,West,281,0.0,0.0,76,0.00,,---,0.00,VWS V14.01,2013-07-19 13:14:00,
2013-07-19 08:15:00,83.8,75.5,28.73,West,281,0.0,0.0,76,0.00,,---,0.00,VWS V14.01,2013-07-19 13:15:00,
2013-07-19 08:16:00,83.8,75.5,28.73,West,263,5.4,5.4,76,0.00,,---,0.00,VWS V14.01,2013-07-19 13:16:00,
2013-07-19 08:17:00,83.8,75.5,28.73,West,263,5.4,5.4,76,0.00,,---,0.00,VWS V14.01,2013-07-19 13:17:00,
2013-07-19 08:18:00,83.8,75.5,28.73,WNW,290,3.1,3.1,76,0.00,,---,0.00,VWS V14.01,2013-07-19 13:18:00,
2013-07-19 08:19:00,83.8,75.5,28.73,WSW,257,3.6,3.6,76,0.00,,---,0.00,VWS V14.01,2013-07-19 13:19:00,
2013-07-19 08:20:00,83.5,75.1,28.73,WSW,257,3.6,3.6,76,0.00,,---,0.00,VWS V14.01,2013-07-19 13:20:00,
2013-07-19 08:21:00,83.7,75.3,28.73,West,276,4.9,4.9,76,0.00,,---,0.00,VWS V14.01,2013-07-19 13:21:00,
2013-07-19 08:22:00,83.7,75.3,28.73,West,276,4.9,4.9,76,0.00,,---,0.00,VWS V14.01,2013-07-19 13:22:00,
2013-07-19 08:23:00,83.7,75.3,28.73,West,276,4.9,4.9,76,0.00,,---,0.00,VWS V14.01,2013-07-19 13:23:00,
2013-07-19 08:24:00,83.7,75.3,28.73,West,276,4.9,4.9,76,0.00,,---,0.00,VWS V14.01,2013-07-19 13:24:00,
2013-07-19 08:25:00,83.7,75.3,28.73,West,276,4.9,4.9,76,0.00,,---,0.00,VWS V14.01,2013-07-19 13:25:00,
2013-07-19 08:26:00,83.7,75.3,28.73,West,271,6.3,6.3,76,0.00,,---,0.00,VWS V14.01,2013-07-19 13:26:00,
2013-07-19 08:27:00,83.7,75.3,28.73,WSW,256,4.0,6.3,76,0.00,,---,0.00,VWS V14.01,2013-07-19 13:27:00,
2013-07-19 08:28:00,84.7,74.7,28.73,West,263,3.1,4.0,72,0.00,,---,0.00,VWS V14.01,2013-07-19 13:28:00,
2013-07-19 08:29:00,84.7,74.7,28.73,West,263,3.1,3.1,72,0.00,,---,0.00,VWS V14.01,2013-07-19 13:29:00,
2013-07-19 08:30:00,84.9,74.9,28.73,West,263,3.1,3.1,72,0.00,,---,0.00,VWS V14.01,2013-07-19 13:30:00,
2013-07-19 08:31:00,84.9,74.9,28.73,SSW,196,3.6,3.6,72,0.00,,---,0.00,VWS V14.01,2013-07-19 13:31:00,
2013-07-19 08:32:00,85.3,75.2,28.73,SSW,196,3.6,3.6,72,0.00,,---,0.00,VWS V14.01,2013-07-19 13:32:00,
2013-07-19 08:33:00,85.5,75.4,28.73,SSW,196,3.6,3.6,72,0.00,,---,0.00,VWS V14.01,2013-07-19 13:33:00,
2013-07-19 08:34:00,85.5,75.4,28.73,SSW,196,3.6,3.6,72,0.00,,---,0.00,VWS V14.01,2013-07-19 13:34:00,
2013-07-19 08:35:00,85.5,75.4,28.73,SSW,198,6.3,6.3,72,0.00,,---,0.00,VWS V14.01,2013-07-19 13:35:00,
2013-07-19 08:36:00,86.0,75.9,28.73,SSW,203,3.6,6.3,72,0.00,,---,0.00,VWS V14.01,2013-07-19 13:36:00,
2013-07-19 08:37:00,86.0,75.9,28.73,SSW,200,3.1,3.1,72,0.00,,---,0.00,VWS V14.01,2013-07-19 13:37:00,
2013-07-19 08:38:00,86.2,72.6,28.73,SSW,200,3.1,3.1,64,0.00,,---,0.00,VWS V14.01,2013-07-19 13:38:00,
2013-07-19 08:39:00,86.2,72.6,28.73,SSW,200,3.1,3.1,64,0.00,,---,0.00,VWS V14.01,2013-07-19 13:39:00,
2013-07-19 08:40:00,85.8,72.2,28.73,WSW,239,5.8,5.8,64,0.00,,---,0.00,VWS V14.01,2013-07-19 13:40:00,
2013-07-19 08:41:00,85.8,72.2,28.73,WSW,239,5.8,5.8,64,0.00,,---,0.00,VWS V14.01,2013-07-19 13:41:00,
2013-07-19 08:42:00,85.6,72.1,28.73,WSW,248,5.8,5.8,64,0.00,,---,0.00,VWS V14.01,2013-07-19 13:42:00,
2013-07-19 08:43:00,85.6,72.1,28.73,WSW,248,0.0,5.8,64,0.00,,---,0.00,VWS V14.01,2013-07-19 13:43:00,
2013-07-19 08:44:00,85.6,72.1,28.73,WSW,248,0.0,0.0,64,0.00,,---,0.00,VWS V14.01,2013-07-19 13:44:00,
2013-07-19 08:45:00,85.6,72.1,28.73,WSW,247,0.0,0.0,64,0.00,,---,0.00,VWS V14.01,2013-07-19 13:45:00,
2013-07-19 08:46:00,85.6,72.1,28.73,WSW,247,0.0,0.0,64,0.00,,---,0.00,VWS V14.01,2013-07-19 13:46:00,
2013-07-19 08:47:00,85.6,72.1,28.73,WSW,247,0.0,0.0,64,0.00,,---,0.00,VWS V14.01,2013-07-19 13:47:00,
2013-07-19 08:48:00,85.6,72.1,28.73,WSW,247,0.0,0.0,64,0.00,,---,0.00,VWS V14.01,2013-07-19 13:48:00,
2013-07-19 08:49:00,85.6,72.1,28.73,West,268,3.6,3.6,64,0.00,,---,0.00,VWS V14.01,2013-07-19 13:49:00,
2013-07-19 08:50:00,85.6,72.1,28.73,West,268,3.6,3.6,64,0.00,,---,0.00,VWS V14.01,2013-07-19 13:50:00,
2013-07-19 08:51:00,85.6,72.1,28.73,West,268,3.6,3.6,64,0.00,,---,0.00,VWS V14.01,2013-07-19 13:51:00,
2013-07-19 08:52:00,85.6,72.1,28.73,WSW,248,2.7,3.6,64,0.00,,---,0.00,VWS V14.01,2013-07-19 13:52:00,
2013-07-19 08:53:00,85.6,72.1,28.73,SW,220,3.6,3.6,64,0.00,,---,0.00,VWS V14.01,2013-07-19 13:53:00,
2013-07-19 08:54:00,85.6,72.1,28.73,West,264,3.1,3.6,64,0.00,,---,0.00,VWS V14.01,2013-07-19 13:54:00,
2013-07-19 08:55:00,85.6,72.1,28.73,West,264,3.1,3.1,64,0.00,,---,0.00,VWS V14.01,2013-07-19 13:55:00,
2013-07-19 08:56:00,86.5,72.9,28.73,WSW,248,4.9,4.9,64,0.00,,---,0.00,VWS V14.01,2013-07-19 13:56:00,
2013-07-19 08:57:00,86.5,72.9,28.73,WSW,248,4.9,4.9,64,0.00,,---,0.00,VWS V14.01,2013-07-19 13:57:00,
2013-07-19 08:58:00,86.5,72.9,28.73,WNW,295,7.6,7.6,64,0.00,,---,0.00,VWS V14.01,2013-07-19 13:58:00,
2013-07-19 08:59:00,86.5,72.9,28.73,WNW,295,7.6,7.6,64,0.00,,---,0.00,VWS V14.01,2013-07-19 13:59:00,
2013-07-19 09:00:00,86.5,72.9,28.73,WNW,295,7.6,7.6,64,0.00,,---,0.00,VWS V14.01,2013-07-19 14:00:00,
2013-07-19 09:01:00,86.5,72.9,28.73,WNW,295,7.6,7.6,64,0.00,,---,0.00,VWS V14.01,2013-07-19 14:01:00,
2013-07-19 09:02:00,86.5,72.9,28.73,WSW,249,2.2,2.2,64,0.00,,---,0.00,VWS V14.01,2013-07-19 14:02:00,
2013-07-19 09:03:00,86.5,72.9,28.73,West,277,4.0,4.0,64,0.00,,---,0.00,VWS V14.01,2013-07-19 14:03:00,
2013-07-19 09:04:00,85.8,72.2,28.73,West,277,4.0,4.0,64,0.00,,---,0.00,VWS V14.01,2013-07-19 14:04:00,
2013-07-19 09:05:00,86.0,72.4,28.73,West,277,4.0,4.0,64,0.00,,---,0.00,VWS V14.01,2013-07-19 14:05:00,
2013-07-19 09:06:00,85.8,72.2,28.73,WSW,250,5.8,5.8,64,0.00,,---,0.00,VWS V14.01,2013-07-19 14:06:00,
2013-07-19 09:07:00,85.8,72.2,28.73,West,269,4.0,4.0,64,0.00,,---,0.00,VWS V14.01,2013-07-19 14:07:00,
2013-07-19 09:08:00,85.8,72.2,28.73,West,262,3.6,4.0,64,0.00,,---,0.00,VWS V14.01,2013-07-19 14:08:00,
2013-07-19 09:09:00,85.8,72.2,28.73,WSW,254,4.0,4.0,64,0.00,,---,0.00,VWS V14.01,2013-07-19 14:09:00,
2013-07-19 09:10:00,85.8,72.2,28.73,WSW,249,6.3,6.3,64,0.00,,---,0.00,VWS V14.01,2013-07-19 14:10:00,
2013-07-19 09:11:00,85.8,72.2,28.73,West,278,8.1,8.1,64,0.00,,---,0.00,VWS V14.01,2013-07-19 14:11:00,
2013-07-19 09:12:00,85.8,72.2,28.73,West,278,8.1,8.1,64,0.00,,---,0.00,VWS V14.01,2013-07-19 14:12:00,
2013-07-19 09:13:00,85.8,72.2,28.73,West,278,8.1,8.1,64,0.00,,---,0.00,VWS V14.01,2013-07-19 14:13:00,
2013-07-19 09:14:00,85.8,72.2,28.73,West,278,8.1,8.1,64,0.00,,---,0.00,VWS V14.01,2013-07-19 14:14:00,
2013-07-19 09:15:00,85.8,72.2,28.73,West,278,8.1,8.1,64,0.00,,---,0.00,VWS V14.01,2013-07-19 14:15:00,
2013-07-19 09:16:00,85.8,72.2,28.73,West,279,4.5,8.1,64,0.00,,---,0.00,VWS V14.01,2013-07-19 14:16:00,
2013-07-19 09:17:00,85.8,72.2,28.73,West,279,4.5,4.5,64,0.00,,---,0.00,VWS V14.01,2013-07-19 14:17:00,
2013-07-19 09:18:00,85.8,72.2,28.73,West,279,4.5,4.5,64,0.00,,---,0.00,VWS V14.01,2013-07-19 14:18:00,
2013-07-19 09:19:00,86.0,72.4,28.73,West,279,4.5,4.5,64,0.00,,---,0.00,VWS V14.01,2013-07-19 14:19:00,
2013-07-19 09:20:00,86.2,72.6,28.73,SSW,208,4.9,4.9,64,0.00,,---,0.00,VWS V14.01,2013-07-19 14:20:00,
2013-07-19 09:21:00,86.5,72.9,28.73,SSW,208,4.9,4.9,64,0.00,,---,0.00,VWS V14.01,2013-07-19 14:21:00,
2013-07-19 09:22:00,86.5,72.9,28.73,WSW,253,2.7,2.7,64,0.00,,---,0.00,VWS V14.01,2013-07-19 14:22:00,
2013-07-19 09:23:00,86.5,72.9,28.73,WSW,253,2.7,2.7,64,0.00,,---,0.00,VWS V14.01,2013-07-19 14:23:00,
2013-07-19 09:24:00,86.5,72.9,28.73,SW,215,2.7,3.6,64,0.00,,---,0.00,VWS V14.01,2013-07-19 14:24:00,
2013-07-19 09:25:00,86.5,72.9,28.73,SW,215,2.7,2.7,64,0.00,,---,0.00,VWS V14.01,2013-07-19 14:25:00,
2013-07-19 09:26:00,86.5,72.9,28.73,SW,215,2.7,2.7,64,0.00,,---,0.00,VWS V14.01,2013-07-19 14:26:00,
2013-07-19 09:27:00,86.5,72.9,28.73,SW,215,2.7,2.7,64,0.00,,---,0.00,VWS V14.01,2013-07-19 14:27:00,
2013-07-19 09:28:00,86.5,72.9,28.73,WNW,292,6.3,6.3,64,0.00,,---,0.00,VWS V14.01,2013-07-19 14:28:00,
2013-07-19 09:29:00,86.5,72.9,28.73,WNW,292,6.3,6.3,64,0.00,,---,0.00,VWS V14.01,2013-07-19 14:29:00,
2013-07-19 09:30:00,87.6,73.9,28.73,WNW,292,6.3,6.3,64,0.00,,---,0.00,VWS V14.01,2013-07-19 14:30:00,
2013-07-19 09:31:00,87.6,73.9,28.73,WSW,247,4.9,6.3,64,0.00,,---,0.00,VWS V14.01,2013-07-19 14:31:00,
2013-07-19 09:32:00,87.8,72.2,28.73,WSW,247,4.9,4.9,60,0.00,,---,0.00,VWS V14.01,2013-07-19 14:32:00,
2013-07-19 09:33:00,87.8,72.2,28.73,West,271,5.4,6.3,60,0.00,,---,0.00,VWS V14.01,2013-07-19 14:33:00,
2013-07-19 09:34:00,87.8,72.2,28.73,West,271,5.4,5.4,60,0.00,,---,0.00,VWS V14.01,2013-07-19 14:34:00,
2013-07-19 09:35:00,87.8,72.2,28.73,West,264,2.7,2.7,60,0.00,,---,0.00,VWS V14.01,2013-07-19 14:35:00,
2013-07-19 09:36:00,87.8,72.2,28.73,West,264,2.7,2.7,60,0.00,,---,0.00,VWS V14.01,2013-07-19 14:36:00,
2013-07-19 09:37:00,87.8,72.2,28.73,NW,317,0.0,2.7,60,0.00,,---,0.00,VWS V14.01,2013-07-19 14:37:00,
2013-07-19 09:38:00,87.8,72.2,28.73,NW,324,0.0,0.0,60,0.00,,---,0.00,VWS V14.01,2013-07-19 14:38:00,
2013-07-19 09:39:00,87.8,72.2,28.73,NW,324,0.0,0.0,60,0.00,,---,0.00,VWS V14.01,2013-07-19 14:39:00,
2013-07-19 09:40:00,87.8,72.2,28.73,NW,324,0.0,0.0,60,0.00,,---,0.00,VWS V14.01,2013-07-19 14:40:00,
2013-07-19 09:41:00,87.8,72.2,28.73,NW,324,0.0,0.0,60,0.00,,---,0.00,VWS V14.01,2013-07-19 14:41:00,
2013-07-19 09:42:00,89.1,73.4,28.73,SSW,211,3.1,3.1,60,0.00,,---,0.00,VWS V14.01,2013-07-19 14:42:00,
2013-07-19 09:43:00,89.2,73.6,28.73,SSW,211,3.1,3.1,60,0.00,,---,0.00,VWS V14.01,2013-07-19 14:43:00,
2013-07-19 09:44:00,89.2,73.6,28.73,WSW,247,4.0,4.0,60,0.00,,---,0.00,VWS V14.01,2013-07-19 14:44:00,
2013-07-19 09:45:00,89.2,73.6,28.73,SSW,202,2.7,2.7,60,0.00,,---,0.00,VWS V14.01,2013-07-19 14:45:00,
2013-07-19 09:46:00,89.2,73.6,28.73,SSW,213,4.9,4.9,60,0.00,,---,0.00,VWS V14.01,2013-07-19 14:46:00,
2013-07-19 09:47:00,89.2,73.6,28.73,SSW,213,4.9,4.9,60,0.00,,---,0.00,VWS V14.01,2013-07-19 14:47:00,
2013-07-19 09:48:00,89.2,73.6,28.73,SSW,213,4.9,4.9,60,0.00,,---,0.00,VWS V14.01,2013-07-19 14:48:00,
2013-07-19 09:49:00,89.4,73.7,28.73,SSW,213,4.9,4.9,60,0.00,,---,0.00,VWS V14.01,2013-07-19 14:49:00,
2013-07-19 09:50:00,89.6,73.9,28.73,West,263,0.0,4.9,60,0.00,,---,0.00,VWS V14.01,2013-07-19 14:50:00,
2013-07-19 09:51:00,89.6,73.9,28.73,West,263,0.0,4.9,60,0.00,,---,0.00,VWS V14.01,2013-07-19 14:51:00,
2013-07-19 09:52:00,89.6,73.9,28.73,SSW,203,3.1,3.1,60,0.00,,---,0.00,VWS V14.01,2013-07-19 14:52:00,
2013-07-19 09:53:00,89.6,73.9,28.73,SSW,203,3.1,3.1,60,0.00,,---,0.00,VWS V14.01,2013-07-19 14:53:00,
2013-07-19 09:54:00,89.6,73.9,28.73,SSW,203,3.1,3.1,60,0.00,,---,0.00,VWS V14.01,2013-07-19 14:54:00,
2013-07-19 09:55:00,89.6,73.9,28.73,WSW,257,5.8,5.8,60,0.00,,---,0.00,VWS V14.01,2013-07-19 14:55:00,
2013-07-19 09:56:00,89.4,73.7,28.73,WSW,257,5.8,5.8,60,0.00,,---,0.00,VWS V14.01,2013-07-19 14:56:00,
2013-07-19 09:57:00,89.4,73.7,28.73,WSW,257,5.8,5.8,60,0.00,,---,0.00,VWS V14.01,2013-07-19 14:57:00,
2013-07-19 09:58:00,89.2,73.6,28.73,WSW,257,5.8,5.8,60,0.00,,---,0.00,VWS V14.01,2013-07-19 14:58:00,
2013-07-19 09:59:00,89.2,73.6,28.73,West,263,2.2,5.8,60,0.00,,---,0.00,VWS V14.01,2013-07-19 14:59:00,
2013-07-19 10:00:00,89.2,73.6,28.73,West,278,4.0,4.0,60,0.00,,---,0.00,VWS V14.01,2013-07-19 15:00:00,
2013-07-19 10:01:00,89.2,73.6,28.73,West,274,6.7,6.7,60,0.00,,---,0.00,VWS V14.01,2013-07-19 15:01:00,
2013-07-19 10:02:00,89.2,73.6,28.73,West,274,6.7,6.7,60,0.00,,---,0.00,VWS V14.01,2013-07-19 15:02:00,
2013-07-19 10:03:00,89.2,73.6,28.73,West,265,4.9,6.7,60,0.00,,---,0.00,VWS V14.01,2013-07-19 15:03:00,
2013-07-19 10:04:00,89.2,73.6,28.73,SW,218,2.7,2.7,60,0.00,,---,0.00,VWS V14.01,2013-07-19 15:04:00,
2013-07-19 10:05:00,89.2,73.6,28.73,SW,218,2.7,2.7,60,0.00,,---,0.00,VWS V14.01,2013-07-19 15:05:00,
2013-07-19 10:06:00,89.4,73.7,28.73,WNW,297,3.1,3.1,60,0.00,,---,0.00,VWS V14.01,2013-07-19 15:06:00,
2013-07-19 10:07:00,89.6,73.9,28.73,WNW,297,3.1,3.1,60,0.00,,---,0.00,VWS V14.01,2013-07-19 15:07:00,
2013-07-19 10:08:00,89.6,73.9,28.73,WNW,297,3.1,3.1,60,0.00,,---,0.00,VWS V14.01,2013-07-19 15:08:00,
2013-07-19 10:09:00,89.6,73.9,28.73,WNW,297,3.1,3.1,60,0.00,,---,0.00,VWS V14.01,2013-07-19 15:09:00,
2013-07-19 10:10:00,89.6,73.9,28.73,WSW,239,3.6,3.6,60,0.00,,---,0.00,VWS V14.01,2013-07-19 15:10:00,
2013-07-19 10:11:00,89.2,73.6,28.73,WSW,239,3.6,3.6,60,0.00,,---,0.00,VWS V14.01,2013-07-19 15:11:00,
2013-07-19 10:12:00,89.2,73.6,28.73,SSW,198,3.6,3.6,60,0.00,,---,0.00,VWS V14.01,2013-07-19 15:12:00,
2013-07-19 10:13:00,89.6,73.9,28.73,SSW,199,3.6,3.6,60,0.00,,---,0.00,VWS V14.01,2013-07-19 15:13:00,
2013-07-19 10:14:00,89.6,73.9,28.73,SSW,202,5.8,5.8,60,0.00,,---,0.00,VWS V14.01,2013-07-19 15:14:00,
2013-07-19 10:15:00,89.6,73.9,28.73,SSW,202,5.8,5.8,60,0.00,,---,0.00,VWS V14.01,2013-07-19 15:15:00,
2013-07-19 10:16:00,89.6,73.9,28.73,SSW,202,5.8,5.8,60,0.00,,---,0.00,VWS V14.01,2013-07-19 15:16:00,
2013-07-19 10:17:00,89.6,73.9,28.73,WNW,287,4.9,5.8,60,0.00,,---,0.00,VWS V14.01,2013-07-19 15:17:00,
2013-07-19 10:18:00,89.6,73.9,28.73,WNW,287,4.9,4.9,60,0.00,,---,0.00,VWS V14.01,2013-07-19 15:18:00,
2013-07-19 10:19:00,88.9,73.2,28.73,WNW,287,4.9,4.9,60,0.00,,---,0.00,VWS V14.01,2013-07-19 15:19:00,
2013-07-19 10:20:00,88.9,73.2,28.73,WNW,291,4.0,4.9,60,0.00,,---,0.00,VWS V14.01,2013-07-19 15:20:00,
2013-07-19 10:21:00,88.9,73.2,28.73,WNW,291,4.0,4.0,60,0.00,,---,0.00,VWS V14.01,2013-07-19 15:21:00,
2013-07-19 10:22:00,88.5,72.9,28.73,WNW,291,4.0,4.0,60,0.00,,---,0.00,VWS V14.01,2013-07-19 15:22:00,
2013-07-19 10:23:00,88.5,72.9,28.73,WNW,291,4.0,4.0,60,0.00,,---,0.00,VWS V14.01,2013-07-19 15:23:00,
2013-07-19 10:24:00,88.5,72.9,28.73,WNW,291,4.0,4.0,60,0.00,,---,0.00,VWS V14.01,2013-07-19 15:24:00,
2013-07-19 10:25:00,88.5,72.9,28.73,West,277,2.7,4.0,60,0.00,,---,0.00,VWS V14.01,2013-07-19 15:25:00,
2013-07-19 10:26:00,88.5,72.9,28.73,West,267,3.1,3.1,60,0.00,,---,0.00,VWS V14.01,2013-07-19 15:26:00,
2013-07-19 10:27:00,89.1,73.4,28.73,WSW,240,2.7,3.1,60,0.00,,---,0.00,VWS V14.01,2013-07-19 15:27:00,
2013-07-19 10:28:00,89.1,73.4,28.73,West,276,2.7,2.7,60,0.00,,---,0.00,VWS V14.01,2013-07-19 15:28:00,
2013-07-19 10:29:00,89.1,73.4,28.73,West,276,2.7,2.7,60,0.00,,---,0.00,VWS V14.01,2013-07-19 15:29:00,
2013-07-19 10:30:00,89.6,73.9,28.73,West,276,2.7,2.7,60,0.00,,---,0.00,VWS V14.01,2013-07-19 15:30:00,
2013-07-19 10:31:00,89.6,73.9,28.73,SW,219,3.6,3.6,60,0.00,,---,0.00,VWS V14.01,2013-07-19 15:31:00,
2013-07-19 10:32:00,89.6,73.9,28.73,SW,219,3.6,3.6,60,0.00,,---,0.00,VWS V14.01,2013-07-19 15:32:00,
2013-07-19 10:33:00,89.6,73.9,28.73,SW,219,3.6,3.6,60,0.00,,---,0.00,VWS V14.01,2013-07-19 15:33:00,
2013-07-19 10:34:00,89.6,73.9,28.73,West,261,3.6,3.6,60,0.00,,---,0.00,VWS V14.01,2013-07-19 15:34:00,
2013-07-19 10:35:00,89.6,73.9,28.73,West,261,3.6,3.6,60,0.00,,---,0.00,VWS V14.01,2013-07-19 15:35:00,
2013-07-19 10:36:00,89.6,73.9,28.73,West,267,3.6,3.6,60,0.00,,---,0.00,VWS V14.01,2013-07-19 15:36:00,
2013-07-19 10:37:00,89.6,73.9,28.73,WSW,251,3.6,3.6,60,0.00,,---,0.00,VWS V14.01,2013-07-19 15:37:00,
2013-07-19 10:38:00,89.6,73.9,28.73,WSW,251,3.6,3.6,60,0.00,,---,0.00,VWS V14.01,2013-07-19 15:38:00,
2013-07-19 10:39:00,90.1,74.4,28.73,WSW,251,3.6,3.6,60,0.00,,---,0.00,VWS V14.01,2013-07-19 15:39:00,
2013-07-19 10:40:00,90.1,74.4,28.73,WSW,246,2.7,3.6,60,0.00,,---,0.00,VWS V14.01,2013-07-19 15:40:00,
2013-07-19 10:41:00,90.1,74.4,28.73,SW,217,2.7,2.7,60,0.00,,---,0.00,VWS V14.01,2013-07-19 15:41:00,
2013-07-19 10:42:00,90.1,74.4,28.73,SW,217,2.7,2.7,60,0.00,,---,0.00,VWS V14.01,2013-07-19 15:42:00,
2013-07-19 10:43:00,90.1,74.4,28.73,SW,217,2.7,2.7,60,0.00,,---,0.00,VWS V14.01,2013-07-19 15:43:00,
2013-07-19 10:44:00,90.1,74.4,28.73,WSW,239,0.0,2.7,60,0.00,,---,0.00,VWS V14.01,2013-07-19 15:44:00,
2013-07-19 10:45:00,90.1,74.4,28.73,WSW,239,0.0,0.0,60,0.00,,---,0.00,VWS V14.01,2013-07-19 15:45:00,
2013-07-19 10:46:00,90.1,74.4,28.73,WSW,244,4.0,4.0,60,0.00,,---,0.00,VWS V14.01,2013-07-19 15:46:00,
2013-07-19 10:47:00,91.8,73.8,28.73,WSW,244,4.0,4.0,56,0.00,,---,0.00,VWS V14.01,2013-07-19 15:47:00,
2013-07-19 10:48:00,91.8,73.8,28.73,South,183,3.1,3.1,56,0.00,,---,0.00,VWS V14.01,2013-07-19 15:48:00,
2013-07-19 10:49:00,91.8,73.8,28.73,South,183,3.1,3.1,56,0.00,,---,0.00,VWS V14.01,2013-07-19 15:49:00,
2013-07-19 10:50:00,91.9,74.0,28.73,South,183,3.1,3.1,56,0.00,,---,0.00,VWS V14.01,2013-07-19 15:50:00,
2013-07-19 10:51:00,91.9,74.0,28.73,South,183,3.1,3.1,56,0.00,,---,0.00,VWS V14.01,2013-07-19 15:51:00,
2013-07-19 10:52:00,91.9,74.0,28.73,South,183,3.1,3.1,56,0.00,,---,0.00,VWS V14.01,2013-07-19 15:52:00,
2013-07-19 10:53:00,90.5,74.7,28.73,WNW,299,3.1,3.1,60,0.00,,---,0.00,VWS V14.01,2013-07-19 15:53:00,
2013-07-19 10:54:00,90.5,74.7,28.73,West,266,5.8,5.8,60,0.00,,---,0.00,VWS V14.01,2013-07-19 15:54:00,
2013-07-19 10:55:00,90.5,74.7,28.73,West,266,3.6,3.6,60,0.00,,---,0.00,VWS V14.01,2013-07-19 15:55:00,
2013-07-19 10:56:00,89.2,73.6,28.73,WNW,287,3.1,3.6,60,0.00,,---,0.00,VWS V14.01,2013-07-19 15:56:00,
2013-07-19 10:57:00,89.2,73.6,28.73,West,277,3.6,3.6,60,0.00,,---,0.00,VWS V14.01,2013-07-19 15:57:00,
2013-07-19 10:58:00,89.2,73.6,28.73,West,277,3.6,3.6,60,0.00,,---,0.00,VWS V14.01,2013-07-19 15:58:00,
2013-07-19 10:59:00,89.2,73.6,28.73,SW,235,5.8,5.8,60,0.00,,---,0.00,VWS V14.01,2013-07-19 15:59:00,
2013-07-19 11:00:00,89.2,73.6,28.73,SW,235,5.8,5.8,60,0.00,,---,0.00,VWS V14.01,2013-07-19 16:00:00,
2013-07-19 11:01:00,89.2,73.6,28.73,WNW,285,4.9,5.8,60,0.00,,---,0.00,VWS V14.01,2013-07-19 16:01:00,
2013-07-19 11:02:00,89.2,73.6,28.73,WSW,256,3.1,4.9,60,0.00,,---,0.00,VWS V14.01,2013-07-19 16:02:00,
2013-07-19 11:03:00,89.2,73.6,28.73,SSW,207,2.2,3.1,60,0.00,,---,0.00,VWS V14.01,2013-07-19 16:03:00,
2013-07-19 11:04:00,87.8,72.2,28.73,SSW,207,2.2,2.2,60,0.00,,---,0.00,VWS V14.01,2013-07-19 16:04:00,
2013-07-19 11:05:00,87.8,72.2,28.73,SSW,207,2.2,2.2,60,0.00,,---,0.00,VWS V14.01,2013-07-19 16:05:00,
2013-07-19 11:06:00,87.8,72.2,28.73,SW,233,0.0,2.2,60,0.00,,---,0.00,VWS V14.01,2013-07-19 16:06:00,
2013-07-19 11:07:00,87.8,72.2,28.73,SW,233,0.0,0.0,60,0.00,,---,0.00,VWS V14.01,2013-07-19 16:07:00,
2013-07-19 11:08:00,87.8,72.2,28.73,SW,233,0.0,0.0,60,0.00,,---,0.00,VWS V14.01,2013-07-19 16:08:00,
2013-07-19 11:09:00,87.8,72.2,28.73,WNW,287,8.1,8.1,60,0.00,,---,0.00,VWS V14.01,2013-07-19 16:09:00,
2013-07-19 11:10:00,87.8,72.2,28.73,WNW,287,8.1,8.1,60,0.00,,---,0.00,VWS V14.01,2013-07-19 16:10:00,
2013-07-19 11:11:00,87.8,72.2,28.73,SSW,196,2.7,8.1,60,0.00,,---,0.00,VWS V14.01,2013-07-19 16:11:00,
2013-07-19 11:12:00,87.8,72.2,28.73,West,262,2.2,2.7,60,0.00,,---,0.00,VWS V14.01,2013-07-19 16:12:00,
2013-07-19 11:13:00,88.2,72.5,28.73,West,262,2.2,2.2,60,0.00,,---,0.00,VWS V14.01,2013-07-19 16:13:00,
2013-07-19 11:14:00,88.2,72.5,28.73,West,262,2.2,2.2,60,0.00,,---,0.00,VWS V14.01,2013-07-19 16:14:00,
2013-07-19 11:15:00,88.2,72.5,28.73,West,262,2.2,2.2,60,0.00,,---,0.00,VWS V14.01,2013-07-19 16:15:00,
2013-07-19 11:16:00,87.6,73.9,28.73,West,266,3.6,3.6,64,0.00,,---,0.00,VWS V14.01,2013-07-19 16:16:00,
2013-07-19 11:17:00,87.6,73.9,28.73,West,270,8.3,8.3,64,0.00,,---,0.00,VWS V14.01,2013-07-19 16:17:00,
2013-07-19 11:18:00,87.4,73.8,28.73,SSW,200,3.1,8.3,64,0.00,,---,0.00,VWS V14.01,2013-07-19 16:18:00,
2013-07-19 11:19:00,87.4,73.8,28.73,SSW,200,3.1,8.3,64,0.00,,---,0.00,VWS V14.01,2013-07-19 16:19:00,
2013-07-19 11:20:00,87.4,73.8,28.73,WSW,249,3.1,3.1,64,0.00,,---,0.00,VWS V14.01,2013-07-19 16:20:00,
2013-07-19 11:21:00,87.4,73.8,28.73,West,262,2.7,3.1,64,0.00,,---,0.00,VWS V14.01,2013-07-19 16:21:00,
2013-07-19 11:22:00,87.4,73.8,28.73,West,262,2.7,2.7,64,0.00,,---,0.00,VWS V14.01,2013-07-19 16:22:00,
2013-07-19 11:23:00,87.4,73.8,28.73,SSW,205,3.6,3.6,64,0.00,,---,0.00,VWS V14.01,2013-07-19 16:23:00,
2013-07-19 11:24:00,87.4,73.8,28.73,West,262,0.0,3.6,64,0.00,,---,0.00,VWS V14.01,2013-07-19 16:24:00,
2013-07-19 11:25:00,90.7,74.9,28.73,West,262,0.0,0.0,60,0.00,,---,0.00,VWS V14.01,2013-07-19 16:25:00,
2013-07-19 11:26:00,90.7,74.9,28.73,West,262,0.0,0.0,60,0.00,,---,0.00,VWS V14.01,2013-07-19 16:26:00,
2013-07-19 11:27:00,90.7,74.9,28.73,West,260,0.0,0.0,60,0.00,,---,0.00,VWS V14.01,2013-07-19 16:27:00,
2013-07-19 11:28:00,90.7,74.9,28.73,West,260,0.0,0.0,60,0.00,,---,0.00,VWS V14.01,2013-07-19 16:28:00,
2013-07-19 11:29:00,90.7,74.9,28.73,NW,312,2.7,2.7,60,0.00,,---,0.00,VWS V14.01,2013-07-19 16:29:00,
2013-07-19 11:30:00,90.7,74.9,28.73,WNW,291,2.7,2.7,60,0.00,,---,0.00,VWS V14.01,2013-07-19 16:30:00,
2013-07-19 11:31:00,91.6,73.7,28.73,West,276,6.3,6.3,56,0.00,,---,0.00,VWS V14.01,2013-07-19 16:31:00,
2013-07-19 11:32:00,91.6,73.7,28.73,West,276,6.3,6.3,56,0.00,,---,0.00,VWS V14.01,2013-07-19 16:32:00,
2013-07-19 11:33:00,91.0,75.2,28.73,WNW,293,0.0,6.3,60,0.00,,---,0.00,VWS V14.01,2013-07-19 16:33:00,
2013-07-19 11:34:00,91.0,75.2,28.73,WNW,300,0.0,0.0,60,0.00,,---,0.00,VWS V14.01,2013-07-19 16:34:00,
2013-07-19 11:35:00,91.0,75.2,28.73,WNW,300,0.0,0.0,60,0.00,,---,0.00,VWS V14.01,2013-07-19 16:35:00,
2013-07-19 11:36:00,90.5,74.7,28.73,WNW,300,0.0,0.0,60,0.00,,---,0.00,VWS V14.01,2013-07-19 16:36:00,
2013-07-19 11:37:00,90.5,74.7,28.73,WNW,297,3.6,3.6,60,0.00,,---,0.00,VWS V14.01,2013-07-19 16:37:00,
2013-07-19 11:38:00,90.5,74.7,28.73,West,264,3.6,3.6,60,0.00,,---,0.00,VWS V14.01,2013-07-19 16:38:00,
2013-07-19 11:39:00,90.3,74.6,28.73,West,264,3.6,3.6,60,0.00,,---,0.00,VWS V14.01,2013-07-19 16:39:00,
2013-07-19 11:40:00,90.3,74.6,28.73,WNW,287,3.1,3.1,60,0.00,,---,0.00,VWS V14.01,2013-07-19 16:40:00,
2013-07-19 11:41:00,90.5,74.7,28.73,WNW,287,3.1,3.1,60,0.00,,---,0.00,VWS V14.01,2013-07-19 16:41:00,
2013-07-19 11:42:00,90.7,74.9,28.73,WNW,287,3.1,3.1,60,0.00,,---,0.00,VWS V14.01,2013-07-19 16:42:00,
2013-07-19 11:43:00,90.7,74.9,28.73,WSW,245,4.0,4.0,60,0.00,,---,0.00,VWS V14.01,2013-07-19 16:43:00,
2013-07-19 11:44:00,90.7,74.9,28.73,WNW,282,5.4,5.4,60,0.00,,---,0.00,VWS V14.01,2013-07-19 16:44:00,
2013-07-19 11:45:00,90.7,74.9,28.73,WNW,282,5.4,5.4,60,0.00,,---,0.00,VWS V14.01,2013-07-19 16:45:00,
2013-07-19 11:46:00,90.7,74.9,28.73,SSW,207,4.9,5.4,60,0.00,,---,0.00,VWS V14.01,2013-07-19 16:46:00,
2013-07-19 11:47:00,90.7,74.9,28.73,West,277,4.0,4.0,60,0.00,,---,0.00,VWS V14.01,2013-07-19 16:47:00,
2013-07-19 11:48:00,90.7,74.9,28.73,West,277,4.0,4.0,60,0.00,,---,0.00,VWS V14.01,2013-07-19 16:48:00,
2013-07-19 11:49:00,90.7,74.9,28.73,West,277,4.0,4.0,60,0.00,,---,0.00,VWS V14.01,2013-07-19 16:49:00,
2013-07-19 11:50:00,90.7,74.9,28.73,West,277,4.0,4.0,60,0.00,,---,0.00,VWS V14.01,2013-07-19 16:50:00,
2013-07-19 11:51:00,90.7,74.9,28.73,SW,216,2.7,2.7,60,0.00,,---,0.00,VWS V14.01,2013-07-19 16:51:00,
2013-07-19 11:52:00,90.7,74.9,28.73,SW,216,2.7,2.7,60,0.00,,---,0.00,VWS V14.01,2013-07-19 16:52:00,
2013-07-19 11:53:00,90.7,74.9,28.73,SW,216,2.7,2.7,60,0.00,,---,0.00,VWS V14.01,2013-07-19 16:53:00,
2013-07-19 11:54:00,90.7,74.9,28.73,SW,216,2.7,2.7,60,0.00,,---,0.00,VWS V14.01,2013-07-19 16:54:00,
2013-07-19 11:55:00,90.7,74.9,28.70,SSW,196,3.1,3.1,60,0.00,,---,0.00,VWS V14.01,2013-07-19 16:55:00,
2013-07-19 11:56:00,90.7,74.9,28.70,SSW,196,3.1,3.1,60,0.00,,---,0.00,VWS V14.01,2013-07-19 16:56:00,
2013-07-19 11:57:00,92.3,74.3,28.70,SSW,196,3.1,3.1,56,0.00,,---,0.00,VWS V14.01,2013-07-19 16:57:00,
2013-07-19 11:58:00,92.3,74.3,28.70,WNW,283,5.8,5.8,56,0.00,,---,0.00,VWS V14.01,2013-07-19 16:58:00,
2013-07-19 11:59:00,92.3,74.3,28.70,WNW,302,2.7,5.8,56,0.00,,---,0.00,VWS V14.01,2013-07-19 16:59:00,
2013-07-19 12:00:00,92.3,74.3,28.70,WNW,302,2.7,2.7,56,0.00,,---,0.00,VWS V14.01,2013-07-19 17:00:00,
2013-07-19 12:01:00,92.3,74.3,28.70,WNW,302,2.7,2.7,56,0.00,,---,0.00,VWS V14.01,2013-07-19 17:01:00,
2013-07-19 12:02:00,91.8,73.8,28.70,WNW,302,2.7,2.7,56,0.00,,---,0.00,VWS V14.01,2013-07-19 17:02:00,
2013-07-19 12:03:00,91.8,73.8,28.70,WNW,302,2.7,2.7,56,0.00,,---,0.00,VWS V14.01,2013-07-19 17:03:00,
2013-07-19 12:04:00,91.9,74.0,28.70,West,276,4.5,4.5,56,0.00,,---,0.00,VWS V14.01,2013-07-19 17:04:00,
2013-07-19 12:05:00,91.9,74.0,28.70,West,279,5.8,5.8,56,0.00,,---,0.00,VWS V14.01,2013-07-19 17:05:00,
2013-07-19 12:06:00,92.3,74.3,28.70,West,279,5.8,5.8,56,0.00,,---,0.00,VWS V14.01,2013-07-19 17:06:00,
2013-07-19 12:07:00,92.7,74.7,28.70,SW,232,4.0,4.0,56,0.00,,---,0.00,VWS V14.01,2013-07-19 17:07:00,
2013-07-19 12:08:00,92.7,74.7,28.70,SW,232,4.0,4.0,56,0.00,,---,0.00,VWS V14.01,2013-07-19 17:08:00,
2013-07-19 12:09:00,92.7,74.7,28.70,WSW,244,3.6,4.0,56,0.00,,---,0.00,VWS V14.01,2013-07-19 17:09:00,
2013-07-19 12:10:00,92.8,74.8,28.70,WSW,257,4.9,4.9,56,0.00,,---,0.00,VWS V14.01,2013-07-19 17:10:00,
2013-07-19 12:11:00,92.8,74.8,28.70,WSW,257,4.9,4.9,56,0.00,,---,0.00,VWS V14.01,2013-07-19 17:11:00,
2013-07-19 12:12:00,92.8,74.8,28.70,SSW,208,3.6,4.9,56,0.00,,---,0.00,VWS V14.01,2013-07-19 17:12:00,
2013-07-19 12:13:00,92.8,74.8,28.70,SSW,208,2.2,2.2,56,0.00,,---,0.00,VWS V14.01,2013-07-19 17:13:00,
2013-07-19 12:14:00,92.1,74.2,28.70,SSW,208,2.2,2.2,56,0.00,,---,0.00,VWS V14.01,2013-07-19 17:14:00,
2013-07-19 12:15:00,92.1,74.2,28.70,SSW,208,2.2,2.2,56,0.00,,---,0.00,VWS V14.01,2013-07-19 17:15:00,
2013-07-19 12:16:00,92.1,74.2,28.70,SSW,208,2.2,2.2,56,0.00,,---,0.00,VWS V14.01,2013-07-19 17:16:00,
2013-07-19 12:17:00,92.1,74.2,28.70,WNW,283,5.8,5.8,56,0.00,,---,0.00,VWS V14.01,2013-07-19 17:17:00,
2013-07-19 12:18:00,92.1,74.2,28.70,WNW,283,5.8,5.8,56,0.00,,---,0.00,VWS V14.01,2013-07-19 17:18:00,
2013-07-19 12:19:00,92.1,74.2,28.70,WSW,247,2.7,5.8,56,0.00,,---,0.00,VWS V14.01,2013-07-19 17:19:00,
2013-07-19 12:20:00,92.1,74.2,28.70,WSW,247,2.7,2.7,56,0.00,,---,0.00,VWS V14.01,2013-07-19 17:20:00,
2013-07-19 12:21:00,92.1,74.2,28.70,SSW,196,4.0,4.0,56,0.00,,---,0.00,VWS V14.01,2013-07-19 17:21:00,
2013-07-19 12:22:00,92.1,74.2,28.70,SSW,196,4.0,4.0,56,0.00,,---,0.00,VWS V14.01,2013-07-19 17:22:00,
2013-07-19 12:23:00,90.7,74.9,28.70,SSW,196,4.0,4.0,60,0.00,,---,0.00,VWS V14.01,2013-07-19 17:23:00,
2013-07-19 12:24:00,90.7,74.9,28.70,WNW,291,0.0,4.0,60,0.00,,---,0.00,VWS V14.01,2013-07-19 17:24:00,
2013-07-19 12:25:00,90.7,74.9,28.70,SW,221,4.0,4.0,60,0.00,,---,0.00,VWS V14.01,2013-07-19 17:25:00,
2013-07-19 12:26:00,90.7,74.9,28.70,WSW,247,3.1,4.0,60,0.00,,---,0.00,VWS V14.01,2013-07-19 17:26:00,
2013-07-19 12:27:00,90.3,74.6,28.70,WSW,247,3.1,3.1,60,0.00,,---,0.00,VWS V14.01,2013-07-19 17:27:00,
2013-07-19 12:28:00,90.5,74.7,28.70,WSW,247,3.1,3.1,60,0.00,,---,0.00,VWS V14.01,2013-07-19 17:28:00,
2013-07-19 12:29:00,90.5,74.7,28.70,WSW,247,3.1,3.1,60,0.00,,---,0.00,VWS V14.01,2013-07-19 17:29:00,
2013-07-19 12:30:00,90.5,74.7,28.70,West,271,3.6,3.6,60,0.00,,---,0.00,VWS V14.01,2013-07-19 17:30:00,
2013-07-19 12:31:00,90.5,74.7,28.70,West,271,3.6,3.6,60,0.00,,---,0.00,VWS V14.01,2013-07-19 17:31:00,
2013-07-19 12:32:00,90.9,75.1,28.70,West,271,3.6,3.6,60,0.00,,---,0.00,VWS V14.01,2013-07-19 17:32:00,
2013-07-19 12:33:00,91.6,73.7,28.70,West,271,3.6,3.6,56,0.00,,---,0.00,VWS V14.01,2013-07-19 17:33:00,
2013-07-19 12:34:00,91.6,73.7,28.70,West,271,3.6,3.6,56,0.00,,---,0.00,VWS V14.01,2013-07-19 17:34:00,
2013-07-19 12:35:00,91.6,73.7,28.70,WSW,252,0.0,3.6,56,0.00,,---,0.00,VWS V14.01,2013-07-19 17:35:00,
2013-07-19 12:36:00,91.6,73.7,28.70,WSW,252,0.0,0.0,56,0.00,,---,0.00,VWS V14.01,2013-07-19 17:36:00,
2013-07-19 12:37:00,91.6,73.7,28.70,SW,217,3.1,3.1,56,0.00,,---,0.00,VWS V14.01,2013-07-19 17:37:00,
2013-07-19 12:38:00,91.6,73.7,28.70,SSW,212,4.9,4.9,56,0.00,,---,0.00,VWS V14.01,2013-07-19 17:38:00,
2013-07-19 12:39:00,93.7,75.7,28.70,WSW,253,4.0,5.8,56,0.00,,---,0.00,VWS V14.01,2013-07-19 17:39:00,
2013-07-19 12:40:00,93.7,75.7,28.70,West,264,3.1,4.0,56,0.00,,---,0.00,VWS V14.01,2013-07-19 17:40:00,
2013-07-19 12:41:00,93.7,75.7,28.70,West,264,3.1,3.1,56,0.00,,---,0.00,VWS V14.01,2013-07-19 17:41:00,
2013-07-19 12:42:00,93.7,75.7,28.70,West,264,3.1,3.1,56,0.00,,---,0.00,VWS V14.01,2013-07-19 17:42:00,
2013-07-19 12:43:00,92.8,74.8,28.70,WSW,241,4.9,4.9,56,0.00,,---,0.00,VWS V14.01,2013-07-19 17:43:00,
2013-07-19 12:44:00,92.8,74.8,28.70,WSW,241,4.9,4.9,56,0.00,,---,0.00,VWS V14.01,2013-07-19 17:44:00,
2013-07-19 12:45:00,92.8,74.8,28.70,WSW,249,3.6,4.9,56,0.00,,---,0.00,VWS V14.01,2013-07-19 17:45:00,
2013-07-19 12:46:00,92.8,74.8,28.70,SW,223,2.7,2.7,56,0.00,,---,0.00,VWS V14.01,2013-07-19 17:46:00,
2013-07-19 12:47:00,90.5,74.7,28.70,SW,227,3.6,3.6,60,0.00,,---,0.00,VWS V14.01,2013-07-19 17:47:00,
2013-07-19 12:48:00,89.4,73.7,28.70,SW,227,3.6,3.6,60,0.00,,---,0.00,VWS V14.01,2013-07-19 17:48:00,
2013-07-19 12:49:00,89.4,73.7,28.70,SW,227,3.6,3.6,60,0.00,,---,0.00,VWS V14.01,2013-07-19 17:49:00,
2013-07-19 12:50:00,88.9,73.2,28.70,SW,227,3.6,3.6,60,0.00,,---,0.00,VWS V14.01,2013-07-19 17:50:00,
2013-07-19 12:51:00,88.5,72.9,28.70,SW,227,3.6,3.6,60,0.00,,---,0.00,VWS V14.01,2013-07-19 17:51:00,
2013-07-19 12:52:00,88.5,72.9,28.70,SW,227,3.6,3.6,60,0.00,,---,0.00,VWS V14.01,2013-07-19 17:52:00,
2013-07-19 12:53:00,88.5,72.9,28.70,NW,304,8.3,8.3,60,0.00,,---,0.00,VWS V14.01,2013-07-19 17:53:00,
2013-07-19 12:54:00,88.5,72.9,28.70,NW,320,3.6,8.3,60,0.00,,---,0.00,VWS V14.01,2013-07-19 17:54:00,
2013-07-19 12:55:00,82.6,69.2,28.70,NW,320,3.6,3.6,64,0.00,,---,0.00,VWS V14.01,2013-07-19 17:55:00,
2013-07-19 12:56:00,82.6,69.2,28.70,WNW,286,5.8,5.8,64,0.00,,---,0.00,VWS V14.01,2013-07-19 17:56:00,
2013-07-19 12:57:00,82.6,69.2,28.70,WNW,302,4.9,5.8,64,0.00,,---,0.00,VWS V14.01,2013-07-19 17:57:00,
2013-07-19 12:58:00,79.2,67.7,28.70,WNW,302,4.9,4.9,68,0.00,,---,0.00,VWS V14.01,2013-07-19 17:58:00,
2013-07-19 12:59:00,75.7,66.1,28.70,NW,326,5.8,5.8,72,0.00,,---,0.00,VWS V14.01,2013-07-19 17:59:00,
2013-07-19 13:00:00,75.7,66.1,28.70,NNW,328,4.0,5.8,72,0.00,,---,0.00,VWS V14.01,2013-07-19 18:00:00,
2013-07-19 13:01:00,75.7,66.1,28.70,NW,325,4.0,4.0,72,0.00,,---,0.00,VWS V14.01,2013-07-19 18:01:00,
2013-07-19 13:02:00,75.7,66.1,28.70,NW,320,3.6,4.0,72,0.00,,---,0.00,VWS V14.01,2013-07-19 18:02:00,
2013-07-19 13:03:00,72.9,69.1,28.70,NW,320,3.6,3.6,88,0.00,,---,0.00,VWS V14.01,2013-07-19 18:03:00,
2013-07-19 13:04:00,72.9,69.1,28.70,NNW,327,0.0,3.6,88,0.00,,---,0.00,VWS V14.01,2013-07-19 18:04:00,
2013-07-19 13:05:00,72.9,69.1,28.70,NNW,327,0.0,0.0,88,0.00,,---,0.00,VWS V14.01,2013-07-19 18:05:00,
2013-07-19 13:06:00,72.9,69.1,28.70,NNW,327,0.0,0.0,88,0.00,,---,0.00,VWS V14.01,2013-07-19 18:06:00,
2013-07-19 13:07:00,72.9,69.1,28.70,NNW,327,0.0,0.0,88,0.00,,---,0.00,VWS V14.01,2013-07-19 18:07:00,
2013-07-19 13:08:00,72.9,69.1,28.70,NNW,327,0.0,0.0,88,0.00,,---,0.00,VWS V14.01,2013-07-19 18:08:00,
2013-07-19 13:09:00,72.9,69.1,28.70,NNW,327,0.0,0.0,88,0.00,,---,0.00,VWS V14.01,2013-07-19 18:09:00,
2013-07-19 13:10:00,72.9,69.1,28.70,NNW,327,0.0,0.0,88,0.00,,---,0.00,VWS V14.01,2013-07-19 18:10:00,
2013-07-19 13:11:00,72.9,69.1,28.70,SSW,212,0.0,0.0,88,0.00,,---,0.00,VWS V14.01,2013-07-19 18:11:00,
2013-07-19 13:12:00,72.9,69.1,28.70,SSW,196,2.7,2.7,88,0.00,,---,0.00,VWS V14.01,2013-07-19 18:12:00,
2013-07-19 13:13:00,72.9,69.1,28.70,SSW,196,2.7,2.7,88,0.00,,---,0.00,VWS V14.01,2013-07-19 18:13:00,
2013-07-19 13:14:00,77.5,77.6,28.70,SSW,196,2.7,2.7,100,0.00,,---,0.00,VWS V14.01,2013-07-19 18:14:00,
2013-07-19 13:15:00,77.9,77.9,28.70,South,186,0.0,2.7,100,0.00,,---,0.00,VWS V14.01,2013-07-19 18:15:00,
2013-07-19 13:16:00,78.8,78.8,28.70,South,186,0.0,0.0,100,0.00,,---,0.00,VWS V14.01,2013-07-19 18:16:00,
2013-07-19 13:17:00,78.8,78.8,28.70,South,186,0.0,0.0,100,0.00,,---,0.00,VWS V14.01,2013-07-19 18:17:00,
2013-07-19 13:18:00,78.8,78.8,28.70,South,186,0.0,0.0,100,0.00,,---,0.00,VWS V14.01,2013-07-19 18:18:00,
2013-07-19 13:19:00,78.8,78.8,28.70,South,186,0.0,0.0,100,0.00,,---,0.00,VWS V14.01,2013-07-19 18:19:00,
2013-07-19 13:20:00,78.8,78.8,28.70,South,186,0.0,0.0,100,0.00,,---,0.00,VWS V14.01,2013-07-19 18:20:00,
2013-07-19 13:21:00,78.8,78.8,28.70,South,188,0.0,0.0,100,0.00,,---,0.00,VWS V14.01,2013-07-19 18:21:00,
2013-07-19 13:22:00,78.8,78.8,28.70,South,188,0.0,0.0,100,0.00,,---,0.00,VWS V14.01,2013-07-19 18:22:00,
2013-07-19 13:23:00,78.8,78.8,28.70,South,188,0.0,0.0,100,0.00,,---,0.00,VWS V14.01,2013-07-19 18:23:00,
2013-07-19 13:24:00,80.4,76.5,28.70,South,188,0.0,0.0,88,0.00,,---,0.00,VWS V14.01,2013-07-19 18:24:00,
2013-07-19 13:25:00,80.2,76.4,28.70,South,188,0.0,0.0,88,0.00,,---,0.00,VWS V14.01,2013-07-19 18:25:00,
2013-07-19 13:26:00,80.2,76.4,28.70,North,0,0.0,0.0,88,0.00,,---,0.00,VWS V14.01,2013-07-19 18:26:00,
2013-07-19 13:27:00,79.5,74.3,28.70,North,0,0.0,0.0,84,0.00,,---,0.00,VWS V14.01,2013-07-19 18:27:00,
2013-07-19 13:28:00,79.5,74.3,28.70,North,0,0.0,0.0,84,0.00,,---,0.00,VWS V14.01,2013-07-19 18:28:00,
2013-07-19 13:29:00,79.5,74.3,28.70,NNW,333,2.7,3.1,84,0.00,,---,0.00,VWS V14.01,2013-07-19 18:29:00,
2013-07-19 13:30:00,79.5,74.3,28.70,NNW,333,0.0,3.1,84,0.00,,---,0.00,VWS V14.01,2013-07-19 18:30:00,
2013-07-19 13:31:00,79.5,74.3,28.70,NNW,333,0.0,0.0,84,0.00,,---,0.00,VWS V14.01,2013-07-19 18:31:00,
2013-07-19 13:32:00,78.1,72.9,28.70,NNW,333,0.0,0.0,84,0.00,,---,0.00,VWS V14.01,2013-07-19 18:32:00,
2013-07-19 13:33:00,78.1,72.9,28.70,NNW,333,0.0,0.0,84,0.00,,---,0.00,VWS V14.01,2013-07-19 18:33:00,
2013-07-19 13:34:00,78.1,72.9,28.70,NNW,333,0.0,0.0,84,0.00,,---,0.00,VWS V14.01,2013-07-19 18:34:00,
2013-07-19 13:35:00,78.1,72.9,28.70,NNW,333,0.0,0.0,84,0.00,,---,0.00,VWS V14.01,2013-07-19 18:35:00,
2013-07-19 13:36:00,78.1,72.9,28.70,NNW,333,0.0,0.0,84,0.00,,---,0.00,VWS V14.01,2013-07-19 18:36:00,
2013-07-19 13:37:00,78.1,72.9,28.67,NNW,333,0.0,0.0,84,0.00,,---,0.00,VWS V14.01,2013-07-19 18:37:00,
2013-07-19 13:38:00,78.3,73.0,28.67,NNW,333,0.0,0.0,84,0.04,,---,0.04,VWS V14.01,2013-07-19 18:38:00,
2013-07-19 13:39:00,78.3,73.0,28.67,SSW,204,2.7,2.7,84,0.04,,---,0.04,VWS V14.01,2013-07-19 18:39:00,
2013-07-19 13:40:00,78.3,73.0,28.67,SSW,204,2.7,2.7,84,0.04,,---,0.04,VWS V14.01,2013-07-19 18:40:00,
2013-07-19 13:41:00,77.7,72.5,28.67,SW,225,3.1,3.1,84,0.04,,---,0.04,VWS V14.01,2013-07-19 18:41:00,
2013-07-19 13:42:00,77.7,72.5,28.67,SW,225,3.1,3.1,84,0.04,,---,0.04,VWS V14.01,2013-07-19 18:42:00,
2013-07-19 13:43:00,77.7,72.5,28.67,South,179,0.0,3.1,84,0.08,,---,0.08,VWS V14.01,2013-07-19 18:43:00,
2013-07-19 13:44:00,77.7,72.5,28.67,South,179,0.0,0.0,84,0.08,,---,0.08,VWS V14.01,2013-07-19 18:44:00,
2013-07-19 13:45:00,77.7,72.5,28.67,South,179,0.0,0.0,84,0.08,,---,0.08,VWS V14.01,2013-07-19 18:45:00,
2013-07-19 13:46:00,77.7,72.5,28.67,NE,37,0.0,0.0,84,0.08,,---,0.08,VWS V14.01,2013-07-19 18:46:00,
2013-07-19 13:47:00,77.7,72.5,28.67,NE,37,0.0,0.0,84,0.08,,---,0.08,VWS V14.01,2013-07-19 18:47:00,
2013-07-19 13:48:00,77.7,72.5,28.67,NE,37,0.0,0.0,84,0.08,,---,0.08,VWS V14.01,2013-07-19 18:48:00,
2013-07-19 13:49:00,77.7,72.5,28.67,NE,37,0.0,0.0,84,0.08,,---,0.08,VWS V14.01,2013-07-19 18:49:00,
2013-07-19 13:50:00,77.7,72.5,28.67,NE,37,0.0,0.0,84,0.08,,---,0.08,VWS V14.01,2013-07-19 18:50:00,
2013-07-19 13:51:00,80.1,80.1,28.67,NE,37,0.0,0.0,100,0.08,,---,0.08,VWS V14.01,2013-07-19 18:51:00,
2013-07-19 13:52:00,81.3,81.3,28.67,NE,37,0.0,0.0,100,0.08,,---,0.08,VWS V14.01,2013-07-19 18:52:00,
2013-07-19 13:53:00,81.3,81.3,28.67,NE,37,0.0,0.0,100,0.08,,---,0.08,VWS V14.01,2013-07-19 18:53:00,
2013-07-19 13:54:00,81.3,81.3,28.67,West,276,0.0,0.0,100,0.08,,---,0.08,VWS V14.01,2013-07-19 18:54:00,
2013-07-19 13:55:00,81.3,81.3,28.67,West,276,0.0,0.0,100,0.08,,---,0.08,VWS V14.01,2013-07-19 18:55:00,
2013-07-19 13:56:00,81.3,81.3,28.67,West,276,0.0,0.0,100,0.08,,---,0.08,VWS V14.01,2013-07-19 18:56:00,
2013-07-19 13:57:00,84.2,80.3,28.67,West,276,0.0,0.0,88,0.08,,---,0.08,VWS V14.01,2013-07-19 18:57:00,
2013-07-19 13:58:00,84.2,80.3,28.67,West,276,0.0,0.0,88,0.08,,---,0.08,VWS V14.01,2013-07-19 18:58:00,
2013-07-19 13:59:00,84.2,80.3,28.67,SSW,206,0.0,0.0,88,0.08,,---,0.08,VWS V14.01,2013-07-19 18:59:00,
2013-07-19 14:00:00,85.1,78.2,28.67,SSW,206,0.0,0.0,80,0.08,,---,0.08,VWS V14.01,2013-07-19 19:00:00,
2013-07-19 14:01:00,85.5,78.6,28.67,SSW,206,0.0,0.0,80,0.08,,---,0.08,VWS V14.01,2013-07-19 19:01:00,
2013-07-19 14:02:00,85.5,78.6,28.67,WSW,238,3.1,3.1,80,0.08,,---,0.08,VWS V14.01,2013-07-19 19:02:00,
2013-07-19 14:03:00,85.5,78.6,28.67,WSW,238,3.1,3.1,80,0.08,,---,0.08,VWS V14.01,2013-07-19 19:03:00,
2013-07-19 14:04:00,85.5,78.6,28.67,SSW,205,0.0,3.1,80,0.08,,---,0.08,VWS V14.01,2013-07-19 19:04:00,
2013-07-19 14:05:00,85.5,78.6,28.67,SW,218,3.1,3.1,80,0.08,,---,0.08,VWS V14.01,2013-07-19 19:05:00,
2013-07-19 14:06:00,85.5,78.6,28.67,SW,218,3.1,3.1,80,0.08,,---,0.08,VWS V14.01,2013-07-19 19:06:00,
2013-07-19 14:07:00,86.4,77.9,28.67,SW,218,3.1,3.1,76,0.08,,---,0.08,VWS V14.01,2013-07-19 19:07:00,
2013-07-19 14:08:00,86.4,77.9,28.67,SW,218,3.1,3.1,76,0.08,,---,0.08,VWS V14.01,2013-07-19 19:08:00,
2013-07-19 14:09:00,87.1,77.0,28.67,SW,218,3.1,3.1,72,0.08,,---,0.08,VWS V14.01,2013-07-19 19:09:00,
2013-07-19 14:10:00,87.3,77.1,28.67,SW,218,3.1,3.1,72,0.08,,---,0.08,VWS V14.01,2013-07-19 19:10:00,
2013-07-19 14:11:00,87.3,77.1,28.67,South,187,0.0,3.1,72,0.08,,---,0.08,VWS V14.01,2013-07-19 19:11:00,
2013-07-19 14:12:00,87.3,77.1,28.67,SSW,200,4.0,4.0,72,0.08,,---,0.08,VWS V14.01,2013-07-19 19:12:00,
2013-07-19 14:13:00,87.3,77.1,28.67,SSW,200,4.0,4.0,72,0.08,,---,0.08,VWS V14.01,2013-07-19 19:13:00,
2013-07-19 14:14:00,87.3,77.1,28.67,SSW,193,3.1,3.1,72,0.08,,---,0.08,VWS V14.01,2013-07-19 19:14:00,
2013-07-19 14:15:00,88.3,78.2,28.67,SSW,193,3.1,3.1,72,0.08,,---,0.08,VWS V14.01,2013-07-19 19:15:00,
2013-07-19 14:16:00,88.3,78.2,28.67,SSW,202,3.1,3.1,72,0.08,,---,0.08,VWS V14.01,2013-07-19 19:16:00,
2013-07-19 14:17:00,88.5,78.3,28.67,SSW,202,3.1,3.1,72,0.08,,---,0.08,VWS V14.01,2013-07-19 19:17:00,
2013-07-19 14:18:00,88.5,78.3,28.67,SW,218,3.6,3.6,72,0.08,,---,0.08,VWS V14.01,2013-07-19 19:18:00,
2013-07-19 14:19:00,88.5,72.9,28.67,SW,218,3.6,3.6,60,0.08,,---,0.08,VWS V14.01,2013-07-19 19:19:00,
2013-07-19 14:20:00,88.5,72.9,28.67,West,272,3.1,3.6,60,0.08,,---,0.08,VWS V14.01,2013-07-19 19:20:00,
2013-07-19 14:21:00,88.5,72.9,28.67,West,272,3.1,3.1,60,0.08,,---,0.08,VWS V14.01,2013-07-19 19:21:00,
2013-07-19 14:22:00,88.5,72.9,28.67,SSW,210,0.0,3.1,60,0.08,,---,0.08,VWS V14.01,2013-07-19 19:22:00,
2013-07-19 14:23:00,88.5,72.9,28.67,SSW,210,0.0,0.0,60,0.08,,---,0.08,VWS V14.01,2013-07-19 19:23:00,
2013-07-19 14:24:00,89.4,73.7,28.67,SSW,210,0.0,0.0,60,0.08,,---,0.08,VWS V14.01,2013-07-19 19:24:00,
2013-07-19 14:25:00,89.4,73.7,28.67,WSW,256,0.0,0.0,60,0.08,,---,0.08,VWS V14.01,2013-07-19 19:25:00,
2013-07-19 14:26:00,89.4,73.7,28.67,SW,225,3.6,3.6,60,0.08,,---,0.08,VWS V14.01,2013-07-19 19:26:00,
2013-07-19 14:27:00,89.4,73.7,28.67,SW,225,3.6,3.6,60,0.08,,---,0.08,VWS V14.01,2013-07-19 19:27:00,
2013-07-19 14:28:00,89.4,73.7,28.67,SW,225,3.6,3.6,60,0.08,,---,0.08,VWS V14.01,2013-07-19 19:28:00,
2013-07-19 14:29:00,89.4,73.7,28.67,SW,225,3.6,3.6,60,0.08,,---,0.08,VWS V14.01,2013-07-19 19:29:00,
2013-07-19 14:30:00,90.3,74.6,28.67,SW,225,3.6,3.6,60,0.08,,---,0.08,VWS V14.01,2013-07-19 19:30:00,
2013-07-19 14:31:00,90.3,74.6,28.67,SW,225,3.6,3.6,60,0.08,,---,0.08,VWS V14.01,2013-07-19 19:31:00,
2013-07-19 14:32:00,90.3,74.6,28.67,West,260,2.7,3.6,60,0.08,,---,0.08,VWS V14.01,2013-07-19 19:32:00,
2013-07-19 14:33:00,90.3,74.6,28.67,West,260,2.7,2.7,60,0.08,,---,0.08,VWS V14.01,2013-07-19 19:33:00,
2013-07-19 14:34:00,90.5,74.7,28.67,West,260,2.7,2.7,60,0.08,,---,0.08,VWS V14.01,2013-07-19 19:34:00,
2013-07-19 14:35:00,90.5,74.7,28.67,West,260,2.7,2.7,60,0.08,,---,0.08,VWS V14.01,2013-07-19 19:35:00,
2013-07-19 14:36:00,90.5,74.7,28.67,SW,235,3.1,3.1,60,0.08,,---,0.08,VWS V14.01,2013-07-19 19:36:00,
2013-07-19 14:37:00,90.5,74.7,28.67,SW,235,3.1,3.1,60,0.08,,---,0.08,VWS V14.01,2013-07-19 19:37:00,
2013-07-19 14:38:00,91.0,75.2,28.67,SW,235,3.1,3.1,60,0.04,,---,0.08,VWS V14.01,2013-07-19 19:38:00,
2013-07-19 14:39:00,91.0,75.2,28.67,WNW,297,0.0,0.0,60,0.04,,---,0.08,VWS V14.01,2013-07-19 19:39:00,
2013-07-19 14:40:00,91.0,75.2,28.67,WNW,297,0.0,0.0,60,0.04,,---,0.08,VWS V14.01,2013-07-19 19:40:00,
2013-07-19 14:41:00,91.4,73.5,28.67,WNW,297,0.0,0.0,56,0.04,,---,0.08,VWS V14.01,2013-07-19 19:41:00,
2013-07-19 14:42:00,91.4,73.5,28.67,WNW,297,0.0,0.0,56,0.04,,---,0.08,VWS V14.01,2013-07-19 19:42:00,
2013-07-19 14:43:00,91.8,73.8,28.67,WNW,297,0.0,0.0,56,0.00,,---,0.08,VWS V14.01,2013-07-19 19:43:00,
2013-07-19 14:44:00,91.8,73.8,28.64,WNW,297,0.0,0.0,56,0.00,,---,0.08,VWS V14.01,2013-07-19 19:44:00,
2013-07-19 14:45:00,91.8,73.8,28.64,WNW,297,0.0,0.0,56,0.00,,---,0.08,VWS V14.01,2013-07-19 19:45:00,
2013-07-19 14:46:00,91.8,73.8,28.64,SW,221,2.2,2.2,56,0.00,,---,0.08,VWS V14.01,2013-07-19 19:46:00,
2013-07-19 14:47:00,91.9,74.0,28.64,SW,221,2.2,2.2,56,0.00,,---,0.08,VWS V14.01,2013-07-19 19:47:00,
2013-07-19 14:48:00,91.9,74.0,28.64,West,281,5.8,5.8,56,0.00,,---,0.08,VWS V14.01,2013-07-19 19:48:00,
2013-07-19 14:49:00,91.9,74.0,28.64,West,281,5.8,5.8,56,0.00,,---,0.08,VWS V14.01,2013-07-19 19:49:00,
2013-07-19 14:50:00,91.9,74.0,28.64,West,281,5.8,5.8,56,0.00,,---,0.08,VWS V14.01,2013-07-19 19:50:00,
2013-07-19 14:51:00,91.9,74.0,28.64,West,281,5.8,5.8,56,0.00,,---,0.08,VWS V14.01,2013-07-19 19:51:00,
2013-07-19 14:52:00,91.9,74.0,28.64,West,259,6.3,6.3,56,0.00,,---,0.08,VWS V14.01,2013-07-19 19:52:00,
2013-07-19 14:53:00,91.9,74.0,28.64,West,259,6.3,6.3,56,0.00,,---,0.08,VWS V14.01,2013-07-19 19:53:00,
2013-07-19 14:54:00,91.9,74.0,28.64,West,259,6.3,6.3,56,0.00,,---,0.08,VWS V14.01,2013-07-19 19:54:00,
2013-07-19 14:55:00,91.9,74.0,28.64,West,259,6.3,6.3,56,0.00,,---,0.08,VWS V14.01,2013-07-19 19:55:00,
2013-07-19 14:56:00,91.9,74.0,28.64,SW,226,5.4,6.3,56,0.00,,---,0.08,VWS V14.01,2013-07-19 19:56:00,
2013-07-19 14:57:00,91.9,74.0,28.64,SW,226,5.4,5.4,56,0.00,,---,0.08,VWS V14.01,2013-07-19 19:57:00,
2013-07-19 14:58:00,92.1,74.2,28.64,SW,226,5.4,5.4,56,0.00,,---,0.08,VWS V14.01,2013-07-19 19:58:00,
2013-07-19 14:59:00,92.1,74.2,28.64,SW,214,2.7,5.4,56,0.00,,---,0.08,VWS V14.01,2013-07-19 19:59:00,
2013-07-19 15:00:00,92.5,74.5,28.64,SW,214,2.7,2.7,56,0.00,,---,0.08,VWS V14.01,2013-07-19 20:00:00,
2013-07-19 15:01:00,92.5,74.5,28.64,SW,214,2.7,2.7,56,0.00,,---,0.08,VWS V14.01,2013-07-19 20:01:00,
2013-07-19 15:02:00,92.5,74.5,28.64,SW,214,2.7,2.7,56,0.00,,---,0.08,VWS V14.01,2013-07-19 20:02:00,
2013-07-19 15:03:00,92.5,74.5,28.64,SW,214,2.7,2.7,56,0.00,,---,0.08,VWS V14.01,2013-07-19 20:03:00,
2013-07-19 15:04:00,92.5,74.5,28.64,SW,214,2.7,2.7,56,0.00,,---,0.08,VWS V14.01,2013-07-19 20:04:00,
2013-07-19 15:05:00,92.5,74.5,28.64,SW,224,5.4,5.4,56,0.00,,---,0.08,VWS V14.01,2013-07-19 20:05:00,
2013-07-19 15:06:00,92.5,74.5,28.64,SW,224,5.4,5.4,56,0.00,,---,0.08,VWS V14.01,2013-07-19 20:06:00,
2013-07-19 15:07:00,91.0,75.2,28.64,SW,229,3.6,5.4,60,0.00,,---,0.08,VWS V14.01,2013-07-19 20:07:00,
2013-07-19 15:08:00,90.9,75.1,28.64,WSW,247,2.7,3.6,60,0.00,,---,0.08,VWS V14.01,2013-07-19 20:08:00,
2013-07-19 15:09:00,90.7,74.9,28.64,WSW,247,2.7,2.7,60,0.00,,---,0.08,VWS V14.01,2013-07-19 20:09:00,
2013-07-19 15:10:00,89.6,73.9,28.64,WSW,247,2.7,2.7,60,0.00,,---,0.08,VWS V14.01,2013-07-19 20:10:00,
2013-07-19 15:11:00,89.6,73.9,28.64,WSW,247,2.7,2.7,60,0.00,,---,0.08,VWS V14.01,2013-07-19 20:11:00,
2013-07-19 15:12:00,89.6,73.9,28.64,WSW,238,8.1,8.1,60,0.00,,---,0.08,VWS V14.01,2013-07-19 20:12:00,
2013-07-19 15:13:00,89.6,73.9,28.64,WSW,238,8.1,8.1,60,0.00,,---,0.08,VWS V14.01,2013-07-19 20:13:00,
2013-07-19 15:14:00,89.6,73.9,28.64,WSW,250,3.1,8.1,60,0.00,,---,0.08,VWS V14.01,2013-07-19 20:14:00,
2013-07-19 15:15:00,88.0,72.4,28.64,WSW,250,3.1,3.1,60,0.00,,---,0.08,VWS V14.01,2013-07-19 20:15:00,
2013-07-19 15:16:00,88.0,72.4,28.64,WSW,250,3.1,3.1,60,0.00,,---,0.08,VWS V14.01,2013-07-19 20:16:00,
2013-07-19 15:17:00,88.0,72.4,28.64,WSW,250,3.1,3.1,60,0.00,,---,0.08,VWS V14.01,2013-07-19 20:17:00,
2013-07-19 15:18:00,88.0,72.4,28.64,WSW,250,3.1,3.1,60,0.00,,---,0.08,VWS V14.01,2013-07-19 20:18:00,
2013-07-19 15:19:00,88.0,72.4,28.64,SSW,203,4.0,4.0,60,0.00,,---,0.08,VWS V14.01,2013-07-19 20:19:00,
2013-07-19 15:20:00,88.0,72.4,28.64,SSW,203,4.0,4.0,60,0.00,,---,0.08,VWS V14.01,2013-07-19 20:20:00,
2013-07-19 15:21:00,88.0,72.4,28.64,SSW,200,3.1,4.0,60,0.00,,---,0.08,VWS V14.01,2013-07-19 20:21:00,
2013-07-19 15:22:00,88.0,72.4,28.64,South,182,3.1,3.1,60,0.00,,---,0.08,VWS V14.01,2013-07-19 20:22:00,
2013-07-19 15:23:00,86.0,72.4,28.64,WNW,284,2.7,2.7,64,0.00,,---,0.08,VWS V14.01,2013-07-19 20:23:00,
2013-07-19 15:24:00,85.8,72.2,28.64,WNW,284,2.7,2.7,64,0.00,,---,0.08,VWS V14.01,2013-07-19 20:24:00,
2013-07-19 15:25:00,85.8,72.2,28.64,WNW,284,2.7,2.7,64,0.00,,---,0.08,VWS V14.01,2013-07-19 20:25:00,
2013-07-19 15:26:00,85.5,71.9,28.64,WNW,284,2.7,2.7,64,0.00,,---,0.08,VWS V14.01,2013-07-19 20:26:00,
2013-07-19 15:27:00,85.5,71.9,28.64,WNW,284,2.7,2.7,64,0.00,,---,0.08,VWS V14.01,2013-07-19 20:27:00,
2013-07-19 15:28:00,85.5,71.9,28.64,West,269,6.3,6.3,64,0.00,,---,0.08,VWS V14.01,2013-07-19 20:28:00,
2013-07-19 15:29:00,85.5,71.9,28.64,West,269,6.3,6.3,64,0.00,,---,0.08,VWS V14.01,2013-07-19 20:29:00,
2013-07-19 15:30:00,85.5,71.9,28.64,West,269,6.3,6.3,64,0.00,,---,0.08,VWS V14.01,2013-07-19 20:30:00,
2013-07-19 15:31:00,85.5,71.9,28.64,West,269,6.3,6.3,64,0.00,,---,0.08,VWS V14.01,2013-07-19 20:31:00,
2013-07-19 15:32:00,85.5,71.9,28.64,NW,318,5.4,6.3,64,0.00,,---,0.08,VWS V14.01,2013-07-19 20:32:00,
2013-07-19 15:33:00,81.5,69.9,28.64,NW,318,5.4,5.4,68,0.00,,---,0.08,VWS V14.01,2013-07-19 20:33:00,
2013-07-19 15:34:00,80.2,68.7,28.64,NW,318,5.4,5.4,68,0.00,,---,0.08,VWS V14.01,2013-07-19 20:34:00,
2013-07-19 15:35:00,79.5,68.0,28.64,NNE,15,6.3,6.3,68,0.00,,---,0.08,VWS V14.01,2013-07-19 20:35:00,
2013-07-19 15:36:00,77.9,68.2,28.64,NNE,15,6.3,6.3,72,0.00,,---,0.08,VWS V14.01,2013-07-19 20:36:00,
2013-07-19 15:37:00,77.9,68.2,28.64,NNE,15,6.3,6.3,72,0.00,,---,0.08,VWS V14.01,2013-07-19 20:37:00,
2013-07-19 15:38:00,77.9,68.2,28.64,NW,321,4.0,4.0,72,0.00,,---,0.08,VWS V14.01,2013-07-19 20:38:00,
2013-07-19 15:39:00,77.9,68.2,28.64,West,271,2.7,4.0,72,0.00,,---,0.08,VWS V14.01,2013-07-19 20:39:00,
2013-07-19 15:40:00,77.9,68.2,28.64,West,271,2.7,4.0,72,0.00,,---,0.08,VWS V14.01,2013-07-19 20:40:00,
2013-07-19 15:41:00,76.8,67.1,28.64,WNW,297,3.1,4.0,72,0.00,,---,0.08,VWS V14.01,2013-07-19 20:41:00,
2013-07-19 15:42:00,76.8,67.1,28.64,WNW,297,3.1,4.0,72,0.00,,---,0.08,VWS V14.01,2013-07-19 20:42:00,
2013-07-19 15:43:00,76.8,67.1,28.64,WNW,297,3.1,3.1,72,0.00,,---,0.08,VWS V14.01,2013-07-19 20:43:00,
2013-07-19 15:44:00,77.0,67.3,28.64,WNW,297,3.1,3.1,72,0.00,,---,0.08,VWS V14.01,2013-07-19 20:44:00,
2013-07-19 15:45:00,77.0,67.3,28.64,NW,315,2.7,3.1,72,0.00,,---,0.08,VWS V14.01,2013-07-19 20:45:00,
2013-07-19 15:46:00,77.0,67.3,28.64,NW,315,2.7,2.7,72,0.00,,---,0.08,VWS V14.01,2013-07-19 20:46:00,
2013-07-19 15:47:00,77.0,67.3,28.64,NW,315,2.7,2.7,72,0.00,,---,0.08,VWS V14.01,2013-07-19 20:47:00,
2013-07-19 15:48:00,77.0,67.3,28.64,WSW,254,0.0,0.0,72,0.00,,---,0.08,VWS V14.01,2013-07-19 20:48:00,
2013-07-19 15:49:00,77.0,67.3,28.64,West,263,4.0,4.0,72,0.00,,---,0.08,VWS V14.01,2013-07-19 20:49:00,
2013-07-19 15:50:00,77.7,68.0,28.64,West,263,4.0,4.0,72,0.00,,---,0.08,VWS V14.01,2013-07-19 20:50:00,
2013-07-19 15:51:00,78.3,68.5,28.64,West,263,4.0,4.0,72,0.00,,---,0.08,VWS V14.01,2013-07-19 20:51:00,
2013-07-19 15:52:00,78.3,68.5,28.64,SSW,208,2.7,2.7,72,0.00,,---,0.08,VWS V14.01,2013-07-19 20:52:00,
2013-07-19 15:53:00,78.3,68.5,28.64,SSW,208,2.7,2.7,72,0.00,,---,0.08,VWS V14.01,2013-07-19 20:53:00,
2013-07-19 15:54:00,78.3,68.5,28.64,SSW,208,2.7,2.7,72,0.00,,---,0.08,VWS V14.01,2013-07-19 20:54:00,
2013-07-19 15:55:00,78.3,68.5,28.64,SSW,208,0.0,2.7,72,0.00,,---,0.08,VWS V14.01,2013-07-19 20:55:00,
2013-07-19 15:56:00,78.3,68.5,28.64,WSW,253,0.0,0.0,72,0.00,,---,0.08,VWS V14.01,2013-07-19 20:56:00,
2013-07-19 15:57:00,80.6,69.1,28.64,WSW,253,0.0,0.0,68,0.00,,---,0.08,VWS V14.01,2013-07-19 20:57:00,
2013-07-19 15:58:00,80.6,69.1,28.64,WSW,253,0.0,0.0,68,0.00,,---,0.08,VWS V14.01,2013-07-19 20:58:00,
2013-07-19 15:59:00,80.6,69.1,28.64,WSW,249,3.6,3.6,68,0.00,,---,0.08,VWS V14.01,2013-07-19 20:59:00,
2013-07-19 16:00:00,81.5,69.9,28.64,WSW,249,3.6,3.6,68,0.00,,---,0.08,VWS V14.01,2013-07-19 21:00:00,
2013-07-19 16:01:00,82.0,70.4,28.64,WSW,249,3.6,3.6,68,0.00,,---,0.08,VWS V14.01,2013-07-19 21:01:00,
2013-07-19 16:02:00,83.5,70.0,28.64,WSW,249,3.6,3.6,64,0.00,,---,0.08,VWS V14.01,2013-07-19 21:02:00,
2013-07-19 16:03:00,83.5,70.0,28.64,West,271,3.6,3.6,64,0.00,,---,0.08,VWS V14.01,2013-07-19 21:03:00,
2013-07-19 16:04:00,83.5,70.0,28.64,West,265,2.7,2.7,64,0.00,,---,0.08,VWS V14.01,2013-07-19 21:04:00,
2013-07-19 16:05:00,83.5,70.0,28.64,SSW,201,0.0,2.7,64,0.00,,---,0.08,VWS V14.01,2013-07-19 21:05:00,
2013-07-19 16:06:00,83.5,70.0,28.64,SSW,201,0.0,0.0,64,0.00,,---,0.08,VWS V14.01,2013-07-19 21:06:00,
2013-07-19 16:07:00,86.5,72.9,28.64,SSW,201,0.0,0.0,64,0.00,,---,0.08,VWS V14.01,2013-07-19 21:07:00,
2013-07-19 16:08:00,86.5,72.9,28.64,SSW,201,0.0,0.0,64,0.00,,---,0.08,VWS V14.01,2013-07-19 21:08:00,
2013-07-19 16:09:00,86.5,72.9,28.64,SSW,201,0.0,0.0,64,0.00,,---,0.08,VWS V14.01,2013-07-19 21:09:00,
2013-07-19 16:10:00,86.5,72.9,28.64,WNW,288,0.0,0.0,64,0.00,,---,0.08,VWS V14.01,2013-07-19 21:10:00,
2013-07-19 16:11:00,86.5,72.9,28.64,WNW,288,0.0,0.0,64,0.00,,---,0.08,VWS V14.01,2013-07-19 21:11:00,
2013-07-19 16:12:00,86.5,72.9,28.64,West,265,3.6,3.6,64,0.00,,---,0.08,VWS V14.01,2013-07-19 21:12:00,
2013-07-19 16:13:00,86.5,72.9,28.64,West,265,3.6,3.6,64,0.00,,---,0.08,VWS V14.01,2013-07-19 21:13:00,
2013-07-19 16:14:00,86.5,72.9,28.64,West,265,0.0,0.0,64,0.00,,---,0.08,VWS V14.01,2013-07-19 21:14:00,
2013-07-19 16:15:00,86.5,72.9,28.64,West,265,0.0,0.0,64,0.00,,---,0.08,VWS V14.01,2013-07-19 21:15:00,
2013-07-19 16:16:00,89.2,73.6,28.64,West,265,0.0,0.0,60,0.00,,---,0.08,VWS V14.01,2013-07-19 21:16:00,
2013-07-19 16:17:00,89.2,73.6,28.64,WNW,284,2.7,2.7,60,0.00,,---,0.08,VWS V14.01,2013-07-19 21:17:00,
2013-07-19 16:18:00,89.1,73.4,28.64,WNW,284,2.7,2.7,60,0.00,,---,0.08,VWS V14.01,2013-07-19 21:18:00,
2013-07-19 16:19:00,89.1,73.4,28.64,WNW,284,2.7,2.7,60,0.00,,---,0.08,VWS V14.01,2013-07-19 21:19:00,
2013-07-19 16:20:00,89.1,73.4,28.64,WNW,284,2.7,2.7,60,0.00,,---,0.08,VWS V14.01,2013-07-19 21:20:00,
2013-07-19 16:21:00,89.8,74.1,28.64,WNW,284,2.7,2.7,60,0.00,,---,0.08,VWS V14.01,2013-07-19 21:21:00,
2013-07-19 16:22:00,90.0,74.2,28.64,WNW,284,2.7,2.7,60,0.00,,---,0.08,VWS V14.01,2013-07-19 21:22:00,
2013-07-19 16:23:00,90.0,74.2,28.64,WNW,284,2.7,2.7,60,0.00,,---,0.08,VWS V14.01,2013-07-19 21:23:00,
2013-07-19 16:24:00,90.7,74.9,28.64,WSW,256,0.0,0.0,60,0.00,,---,0.08,VWS V14.01,2013-07-19 21:24:00,
2013-07-19 16:25:00,90.7,74.9,28.64,SW,220,2.7,2.7,60,0.00,,---,0.08,VWS V14.01,2013-07-19 21:25:00,
2013-07-19 16:26:00,91.0,75.2,28.64,SW,220,2.7,2.7,60,0.00,,---,0.08,VWS V14.01,2013-07-19 21:26:00,
2013-07-19 16:27:00,91.0,75.2,28.64,WSW,241,2.7,2.7,60,0.00,,---,0.08,VWS V14.01,2013-07-19 21:27:00,
2013-07-19 16:28:00,91.2,75.4,28.64,WSW,241,2.7,2.7,60,0.00,,---,0.08,VWS V14.01,2013-07-19 21:28:00,
2013-07-19 16:29:00,90.9,75.1,28.64,SW,227,4.0,4.0,60,0.00,,---,0.08,VWS V14.01,2013-07-19 21:29:00,
2013-07-19 16:30:00,90.9,75.1,28.64,SSW,207,5.4,5.4,60,0.00,,---,0.08,VWS V14.01,2013-07-19 21:30:00,
2013-07-19 16:31:00,90.9,75.1,28.64,SSW,207,3.1,5.4,60,0.00,,---,0.08,VWS V14.01,2013-07-19 21:31:00,
2013-07-19 16:32:00,90.9,75.1,28.64,SSW,207,3.1,3.1,60,0.00,,---,0.08,VWS V14.01,2013-07-19 21:32:00,
2013-07-19 16:33:00,89.4,73.7,28.64,SSW,207,3.1,3.1,60,0.00,,---,0.08,VWS V14.01,2013-07-19 21:33:00,
2013-07-19 16:34:00,89.4,73.7,28.64,SSW,207,3.1,3.1,60,0.00,,---,0.08,VWS V14.01,2013-07-19 21:34:00,
2013-07-19 16:35:00,89.4,73.7,28.64,SSW,207,3.1,3.1,60,0.00,,---,0.08,VWS V14.01,2013-07-19 21:35:00,
2013-07-19 16:36:00,89.4,73.7,28.64,SSW,207,3.1,3.1,60,0.00,,---,0.08,VWS V14.01,2013-07-19 21:36:00,
2013-07-19 16:37:00,89.1,73.4,28.64,West,276,0.0,3.1,60,0.00,,---,0.08,VWS V14.01,2013-07-19 21:37:00,
2013-07-19 16:38:00,89.1,73.4,28.64,West,276,0.0,0.0,60,0.00,,---,0.08,VWS V14.01,2013-07-19 21:38:00,
2013-07-19 16:39:00,89.1,73.4,28.64,West,276,0.0,0.0,60,0.00,,---,0.08,VWS V14.01,2013-07-19 21:39:00,
2013-07-19 16:40:00,89.1,73.4,28.64,NW,320,4.0,4.0,60,0.00,,---,0.08,VWS V14.01,2013-07-19 21:40:00,
2013-07-19 16:41:00,89.1,73.4,28.64,NW,320,4.0,4.0,60,0.00,,---,0.08,VWS V14.01,2013-07-19 21:41:00,
2013-07-19 16:42:00,89.4,73.7,28.64,NW,320,4.0,4.0,60,0.00,,---,0.08,VWS V14.01,2013-07-19 21:42:00,
2013-07-19 16:43:00,89.2,73.6,28.64,NW,320,4.0,4.0,60,0.00,,---,0.08,VWS V14.01,2013-07-19 21:43:00,
2013-07-19 16:44:00,89.2,73.6,28.64,NW,320,4.0,4.0,60,0.00,,---,0.08,VWS V14.01,2013-07-19 21:44:00,
2013-07-19 16:45:00,88.9,73.2,28.64,NNW,333,3.1,4.0,60,0.00,,---,0.08,VWS V14.01,2013-07-19 21:45:00,
2013-07-19 16:46:00,88.9,73.2,28.64,NNW,333,3.1,3.1,60,0.00,,---,0.08,VWS V14.01,2013-07-19 21:46:00,
2013-07-19 16:47:00,88.9,73.2,28.64,North,353,2.2,3.1,60,0.00,,---,0.08,VWS V14.01,2013-07-19 21:47:00,
2013-07-19 16:48:00,88.9,73.2,28.64,North,353,2.2,2.2,60,0.00,,---,0.08,VWS V14.01,2013-07-19 21:48:00,
2013-07-19 16:49:00,88.9,73.2,28.64,North,353,2.2,2.2,60,0.00,,---,0.08,VWS V14.01,2013-07-19 21:49:00,
2013-07-19 16:50:00,88.9,73.2,28.64,North,353,2.2,2.2,60,0.00,,---,0.08,VWS V14.01,2013-07-19 21:50:00,
2013-07-19 16:51:00,87.3,73.6,28.64,North,353,2.2,2.2,64,0.00,,---,0.08,VWS V14.01,2013-07-19 21:51:00,
2013-07-19 16:52:00,87.3,73.6,28.64,North,357,0.0,2.2,64,0.00,,---,0.08,VWS V14.01,2013-07-19 21:52:00,
2013-07-19 16:53:00,87.3,73.6,28.64,North,357,0.0,0.0,64,0.00,,---,0.08,VWS V14.01,2013-07-19 21:53:00,
2013-07-19 16:54:00,87.3,73.6,28.64,North,357,0.0,0.0,64,0.00,,---,0.08,VWS V14.01,2013-07-19 21:54:00,
2013-07-19 16:55:00,87.3,73.6,28.64,North,357,0.0,0.0,64,0.00,,---,0.08,VWS V14.01,2013-07-19 21:55:00,
2013-07-19 16:56:00,87.3,73.6,28.64,North,357,0.0,0.0,64,0.00,,---,0.08,VWS V14.01,2013-07-19 21:56:00,
2013-07-19 16:57:00,87.3,73.6,28.61,North,357,0.0,0.0,64,0.00,,---,0.08,VWS V14.01,2013-07-19 21:57:00,
2013-07-19 16:58:00,87.4,73.8,28.61,North,357,0.0,0.0,64,0.00,,---,0.08,VWS V14.01,2013-07-19 21:58:00,
2013-07-19 16:59:00,87.4,73.8,28.61,North,357,0.0,0.0,64,0.00,,---,0.08,VWS V14.01,2013-07-19 21:59:00,
2013-07-19 17:00:00,87.4,73.8,28.61,North,1,0.0,0.0,64,0.00,,---,0.08,VWS V14.01,2013-07-19 22:00:00,
2013-07-19 17:01:00,87.4,73.8,28.61,North,1,0.0,0.0,64,0.00,,---,0.08,VWS V14.01,2013-07-19 22:01:00,
2013-07-19 17:02:00,87.4,73.8,28.61,North,1,0.0,0.0,64,0.00,,---,0.08,VWS V14.01,2013-07-19 22:02:00,
2013-07-19 17:03:00,86.9,73.3,28.61,North,1,0.0,0.0,64,0.00,,---,0.08,VWS V14.01,2013-07-19 22:03:00,
2013-07-19 17:04:00,86.9,73.3,28.61,North,1,0.0,0.0,64,0.00,,---,0.08,VWS V14.01,2013-07-19 22:04:00,
2013-07-19 17:05:00,86.9,73.3,28.61,NW,310,0.0,0.0,64,0.00,,---,0.08,VWS V14.01,2013-07-19 22:05:00,
2013-07-19 17:06:00,86.7,73.1,28.61,NW,310,0.0,0.0,64,0.00,,---,0.08,VWS V14.01,2013-07-19 22:06:00,
2013-07-19 17:07:00,86.7,73.1,28.61,NW,310,0.0,0.0,64,0.00,,---,0.08,VWS V14.01,2013-07-19 22:07:00,
2013-07-19 17:08:00,86.5,72.9,28.61,NW,310,0.0,0.0,64,0.00,,---,0.08,VWS V14.01,2013-07-19 22:08:00,
2013-07-19 17:09:00,86.5,72.9,28.61,NW,310,0.0,0.0,64,0.00,,---,0.08,VWS V14.01,2013-07-19 22:09:00,
2013-07-19 17:10:00,86.5,72.9,28.61,NW,310,0.0,0.0,64,0.00,,---,0.08,VWS V14.01,2013-07-19 22:10:00,
2013-07-19 17:11:00,86.5,72.9,28.61,NW,310,0.0,0.0,64,0.00,,---,0.08,VWS V14.01,2013-07-19 22:11:00,
2013-07-19 17:12:00,86.5,72.9,28.61,NW,310,0.0,0.0,64,0.00,,---,0.08,VWS V14.01,2013-07-19 22:12:00,
2013-07-19 17:13:00,86.5,72.9,28.61,NW,311,0.0,0.0,64,0.00,,---,0.08,VWS V14.01,2013-07-19 22:13:00,
2013-07-19 17:14:00,86.4,72.8,28.61,NW,311,0.0,0.0,64,0.00,,---,0.08,VWS V14.01,2013-07-19 22:14:00,
2013-07-19 17:15:00,86.4,72.8,28.61,NW,311,0.0,0.0,64,0.00,,---,0.08,VWS V14.01,2013-07-19 22:15:00,
2013-07-19 17:16:00,86.4,72.8,28.61,NW,311,0.0,0.0,64,0.00,,---,0.08,VWS V14.01,2013-07-19 22:16:00,
2013-07-19 17:17:00,86.4,72.8,28.61,NW,311,0.0,0.0,64,0.00,,---,0.08,VWS V14.01,2013-07-19 22:17:00,
2013-07-19 17:18:00,86.7,73.1,28.61,SW,214,0.0,0.0,64,0.00,,---,0.08,VWS V14.01,2013-07-19 22:18:00,
2013-07-19 17:19:00,86.7,73.1,28.61,SW,214,0.0,0.0,64,0.00,,---,0.08,VWS V14.01,2013-07-19 22:19:00,
2013-07-19 17:20:00,86.9,73.3,28.61,SW,233,0.0,0.0,64,0.00,,---,0.08,VWS V14.01,2013-07-19 22:20:00,
2013-07-19 17:21:00,86.9,73.3,28.61,SSW,196,0.0,0.0,64,0.00,,---,0.08,VWS V14.01,2013-07-19 22:21:00,
2013-07-19 17:22:00,86.9,73.3,28.61,SSW,196,0.0,0.0,64,0.00,,---,0.08,VWS V14.01,2013-07-19 22:22:00,
2013-07-19 17:23:00,87.4,73.8,28.61,West,268,2.2,2.2,64,0.00,,---,0.08,VWS V14.01,2013-07-19 22:23:00,
2013-07-19 17:24:00,87.4,73.8,28.61,West,268,2.2,2.2,64,0.00,,---,0.08,VWS V14.01,2013-07-19 22:24:00,
2013-07-19 17:25:00,87.6,73.9,28.61,West,268,2.2,2.2,64,0.00,,---,0.08,VWS V14.01,2013-07-19 22:25:00,
2013-07-19 17:26:00,87.6,73.9,28.61,West,268,2.2,2.2,64,0.00,,---,0.08,VWS V14.01,2013-07-19 22:26:00,
2013-07-19 17:27:00,87.6,73.9,28.61,SSW,199,0.0,0.0,64,0.00,,---,0.08,VWS V14.01,2013-07-19 22:27:00,
2013-07-19 17:28:00,87.6,73.9,28.61,SSW,199,0.0,0.0,64,0.00,,---,0.08,VWS V14.01,2013-07-19 22:28:00,
2013-07-19 17:29:00,87.6,73.9,28.61,SSW,199,0.0,0.0,64,0.00,,---,0.08,VWS V14.01,2013-07-19 22:29:00,
2013-07-19 17:30:00,87.6,73.9,28.61,WNW,285,2.7,2.7,64,0.00,,---,0.08,VWS V14.01,2013-07-19 22:30:00,
2013-07-19 17:31:00,88.0,72.4,28.61,WNW,285,2.7,2.7,60,0.00,,---,0.08,VWS V14.01,2013-07-19 22:31:00,
2013-07-19 17:32:00,87.8,72.2,28.61,SW,219,2.2,2.2,60,0.00,,---,0.08,VWS V14.01,2013-07-19 22:32:00,
2013-07-19 17:33:00,87.8,72.2,28.61,SW,231,0.0,0.0,60,0.00,,---,0.08,VWS V14.01,2013-07-19 22:33:00,
2013-07-19 17:34:00,87.8,72.2,28.61,SW,231,0.0,0.0,60,0.00,,---,0.08,VWS V14.01,2013-07-19 22:34:00,
2013-07-19 17:35:00,87.8,72.2,28.61,SW,231,0.0,0.0,60,0.00,,---,0.08,VWS V14.01,2013-07-19 22:35:00,
2013-07-19 17:36:00,87.8,72.2,28.61,SW,231,0.0,0.0,60,0.00,,---,0.08,VWS V14.01,2013-07-19 22:36:00,
2013-07-19 17:37:00,87.8,72.2,28.61,SW,231,0.0,0.0,60,0.00,,---,0.08,VWS V14.01,2013-07-19 22:37:00,
2013-07-19 17:38:00,87.8,72.2,28.61,SW,231,0.0,0.0,60,0.00,,---,0.08,VWS V14.01,2013-07-19 22:38:00,
2013-07-19 17:39:00,87.8,72.2,28.61,SW,231,0.0,0.0,60,0.00,,---,0.08,VWS V14.01,2013-07-19 22:39:00,
2013-07-19 17:40:00,87.8,72.2,28.61,SW,231,0.0,0.0,60,0.00,,---,0.08,VWS V14.01,2013-07-19 22:40:00,
2013-07-19 17:41:00,87.1,73.4,28.61,SSW,207,0.0,0.0,64,0.00,,---,0.08,VWS V14.01,2013-07-19 22:41:00,
2013-07-19 17:42:00,87.1,73.4,28.61,SSW,207,0.0,0.0,64,0.00,,---,0.08,VWS V14.01,2013-07-19 22:42:00,
2013-07-19 17:43:00,86.9,73.3,28.61,SSW,207,0.0,0.0,64,0.00,,---,0.08,VWS V14.01,2013-07-19 22:43:00,
2013-07-19 17:44:00,86.7,73.1,28.61,SSW,207,0.0,0.0,64,0.00,,---,0.08,VWS V14.01,2013-07-19 22:44:00,
2013-07-19 17:45:00,86.7,73.1,28.61,WSW,245,2.7,2.7,64,0.00,,---,0.08,VWS V14.01,2013-07-19 22:45:00,
2013-07-19 17:46:00,86.4,72.8,28.61,WSW,245,2.7,2.7,64,0.00,,---,0.08,VWS V14.01,2013-07-19 22:46:00,
2013-07-19 17:47:00,86.4,72.8,28.61,West,269,2.7,2.7,64,0.00,,---,0.08,VWS V14.01,2013-07-19 22:47:00,
2013-07-19 17:48:00,86.4,72.8,28.61,West,265,3.1,3.1,64,0.00,,---,0.08,VWS V14.01,2013-07-19 22:48:00,
2013-07-19 17:49:00,86.4,72.8,28.61,West,266,2.7,3.1,64,0.00,,---,0.08,VWS V14.01,2013-07-19 22:49:00,
2013-07-19 17:50:00,86.4,72.8,28.61,West,266,2.7,2.7,64,0.00,,---,0.08,VWS V14.01,2013-07-19 22:50:00,
2013-07-19 17:51:00,85.8,72.2,28.61,West,266,2.7,2.7,64,0.00,,---,0.08,VWS V14.01,2013-07-19 22:51:00,
2013-07-19 17:52:00,85.8,72.2,28.61,West,266,2.7,2.7,64,0.00,,---,0.08,VWS V14.01,2013-07-19 22:52:00,
2013-07-19 17:53:00,85.8,72.2,28.61,West,265,0.0,2.7,64,0.00,,---,0.08,VWS V14.01,2013-07-19 22:53:00,
2013-07-19 17:54:00,85.8,72.2,28.61,West,265,0.0,0.0,64,0.00,,---,0.08,VWS V14.01,2013-07-19 22:54:00,
2013-07-19 17:55:00,86.4,72.8,28.61,West,265,0.0,0.0,64,0.00,,---,0.08,VWS V14.01,2013-07-19 22:55:00,
2013-07-19 17:56:00,86.4,72.8,28.61,West,265,0.0,0.0,64,0.00,,---,0.08,VWS V14.01,2013-07-19 22:56:00,
2013-07-19 17:57:00,86.4,72.8,28.61,West,265,0.0,0.0,64,0.00,,---,0.08,VWS V14.01,2013-07-19 22:57:00,
2013-07-19 17:58:00,86.4,72.8,28.61,West,265,0.0,0.0,64,0.00,,---,0.08,VWS V14.01,2013-07-19 22:58:00,
2013-07-19 17:59:00,86.9,73.3,28.61,West,265,0.0,0.0,64,0.00,,---,0.08,VWS V14.01,2013-07-19 22:59:00,
2013-07-19 18:00:00,86.9,73.3,28.61,West,265,0.0,0.0,64,0.00,,---,0.08,VWS V14.01,2013-07-19 23:00:00,
2013-07-19 18:01:00,87.1,73.4,28.61,West,265,0.0,0.0,64,0.00,,---,0.08,VWS V14.01,2013-07-19 23:01:00,
2013-07-19 18:02:00,87.1,73.4,28.61,West,265,0.0,0.0,64,0.00,,---,0.08,VWS V14.01,2013-07-19 23:02:00,
2013-07-19 18:03:00,87.1,73.4,28.61,West,265,0.0,0.0,64,0.00,,---,0.08,VWS V14.01,2013-07-19 23:03:00,
2013-07-19 18:04:00,87.1,73.4,28.61,SW,232,0.0,0.0,64,0.00,,---,0.08,VWS V14.01,2013-07-19 23:04:00,
2013-07-19 18:05:00,87.1,73.4,28.61,SW,232,0.0,0.0,64,0.00,,---,0.08,VWS V14.01,2013-07-19 23:05:00,
2013-07-19 18:06:00,87.1,73.4,28.61,WSW,241,0.0,0.0,64,0.00,,---,0.08,VWS V14.01,2013-07-19 23:06:00,
2013-07-19 18:07:00,87.1,73.4,28.61,WSW,241,0.0,0.0,64,0.00,,---,0.08,VWS V14.01,2013-07-19 23:07:00,
2013-07-19 18:08:00,87.6,73.9,28.61,WSW,241,0.0,0.0,64,0.00,,---,0.08,VWS V14.01,2013-07-19 23:08:00,
2013-07-19 18:09:00,87.6,73.9,28.61,SSW,208,0.0,0.0,64,0.00,,---,0.08,VWS V14.01,2013-07-19 23:09:00,
2013-07-19 18:10:00,87.3,73.6,28.61,SSW,208,0.0,0.0,64,0.00,,---,0.08,VWS V14.01,2013-07-19 23:10:00,
2013-07-19 18:11:00,87.3,73.6,28.61,SSW,208,0.0,0.0,64,0.00,,---,0.08,VWS V14.01,2013-07-19 23:11:00,
2013-07-19 18:12:00,87.1,73.4,28.61,WSW,245,3.1,3.1,64,0.00,,---,0.08,VWS V14.01,2013-07-19 23:12:00,
2013-07-19 18:13:00,87.1,73.4,28.61,SW,214,2.2,2.2,64,0.00,,---,0.08,VWS V14.01,2013-07-19 23:13:00,
2013-07-19 18:14:00,87.1,73.4,28.61,SW,214,2.2,2.2,64,0.00,,---,0.08,VWS V14.01,2013-07-19 23:14:00,
2013-07-19 18:15:00,87.1,73.4,28.61,SW,223,0.0,2.2,64,0.00,,---,0.08,VWS V14.01,2013-07-19 23:15:00,
2013-07-19 18:16:00,87.1,73.4,28.61,WSW,237,0.0,0.0,64,0.00,,---,0.08,VWS V14.01,2013-07-19 23:16:00,
2013-07-19 18:17:00,86.2,72.6,28.61,WSW,237,0.0,0.0,64,0.00,,---,0.08,VWS V14.01,2013-07-19 23:17:00,
2013-07-19 18:18:00,86.0,72.4,28.61,WSW,237,0.0,0.0,64,0.00,,---,0.08,VWS V14.01,2013-07-19 23:18:00,
2013-07-19 18:19:00,86.0,72.4,28.61,WSW,237,0.0,0.0,64,0.00,,---,0.08,VWS V14.01,2013-07-19 23:19:00,
2013-07-19 18:20:00,86.0,72.4,28.61,WSW,237,0.0,0.0,64,0.00,,---,0.08,VWS V14.01,2013-07-19 23:20:00,
2013-07-19 18:21:00,86.0,72.4,28.61,WSW,237,0.0,0.0,64,0.00,,---,0.08,VWS V14.01,2013-07-19 23:21:00,
2013-07-19 18:22:00,86.0,72.4,28.61,WSW,237,0.0,0.0,64,0.00,,---,0.08,VWS V14.01,2013-07-19 23:22:00,
2013-07-19 18:23:00,86.0,72.4,28.61,SW,217,0.0,0.0,64,0.00,,---,0.08,VWS V14.01,2013-07-19 23:23:00,
2013-07-19 18:24:00,86.0,72.4,28.61,SW,217,0.0,0.0,64,0.00,,---,0.08,VWS V14.01,2013-07-19 23:24:00,
2013-07-19 18:25:00,86.0,72.4,28.61,West,270,3.1,3.1,64,0.00,,---,0.08,VWS V14.01,2013-07-19 23:25:00,
2013-07-19 18:26:00,85.6,72.1,28.61,West,270,0.0,0.0,64,0.00,,---,0.08,VWS V14.01,2013-07-19 23:26:00,
2013-07-19 18:27:00,85.6,72.1,28.61,West,270,0.0,0.0,64,0.00,,---,0.08,VWS V14.01,2013-07-19 23:27:00,
2013-07-19 18:28:00,85.6,72.1,28.61,West,270,0.0,0.0,64,0.00,,---,0.08,VWS V14.01,2013-07-19 23:28:00,
2013-07-19 18:29:00,85.6,72.1,28.61,WSW,240,2.7,2.7,64,0.00,,---,0.08,VWS V14.01,2013-07-19 23:29:00,
2013-07-19 18:30:00,85.6,72.1,28.61,WSW,251,3.1,3.1,64,0.00,,---,0.08,VWS V14.01,2013-07-19 23:30:00,
2013-07-19 18:31:00,85.6,72.1,28.61,WSW,251,3.1,3.1,64,0.00,,---,0.08,VWS V14.01,2013-07-19 23:31:00,
2013-07-19 18:32:00,85.6,72.1,28.61,WSW,251,3.1,3.1,64,0.00,,---,0.08,VWS V14.01,2013-07-19 23:32:00,
2013-07-19 18:33:00,85.6,72.1,28.61,WSW,251,3.1,3.1,64,0.00,,---,0.08,VWS V14.01,2013-07-19 23:33:00,
2013-07-19 18:34:00,85.3,71.7,28.61,WSW,251,3.1,3.1,64,0.00,,---,0.08,VWS V14.01,2013-07-19 23:34:00,
2013-07-19 18:35:00,85.3,71.7,28.61,WSW,251,3.1,3.1,64,0.00,,---,0.08,VWS V14.01,2013-07-19 23:35:00,
2013-07-19 18:36:00,85.3,71.7,28.61,South,175,0.0,3.1,64,0.00,,---,0.08,VWS V14.01,2013-07-19 23:36:00,
2013-07-19 18:37:00,85.3,71.7,28.61,South,175,0.0,0.0,64,0.00,,---,0.08,VWS V14.01,2013-07-19 23:37:00,
2013-07-19 18:38:00,85.3,71.7,28.61,SSW,204,0.0,0.0,64,0.00,,---,0.08,VWS V14.01,2013-07-19 23:38:00,
2013-07-19 18:39:00,85.3,71.7,28.61,SSW,204,0.0,0.0,64,0.00,,---,0.08,VWS V14.01,2013-07-19 23:39:00,
2013-07-19 18:40:00,85.3,71.7,28.61,SSW,204,0.0,0.0,64,0.00,,---,0.08,VWS V14.01,2013-07-19 23:40:00,
2013-07-19 18:41:00,85.3,71.7,28.61,SSW,204,0.0,0.0,64,0.00,,---,0.08,VWS V14.01,2013-07-19 23:41:00,
2013-07-19 18:42:00,85.6,72.1,28.61,SSW,204,0.0,0.0,64,0.00,,---,0.08,VWS V14.01,2013-07-19 23:42:00,
2013-07-19 18:43:00,85.6,72.1,28.61,SSW,204,0.0,0.0,64,0.00,,---,0.08,VWS V14.01,2013-07-19 23:43:00,
2013-07-19 18:44:00,85.6,72.1,28.61,WSW,253,0.0,0.0,64,0.00,,---,0.08,VWS V14.01,2013-07-19 23:44:00,
2013-07-19 18:45:00,85.6,72.1,28.61,WSW,253,0.0,0.0,64,0.00,,---,0.08,VWS V14.01,2013-07-19 23:45:00,
2013-07-19 18:46:00,85.6,72.1,28.61,WSW,253,0.0,0.0,64,0.00,,---,0.08,VWS V14.01,2013-07-19 23:46:00,
2013-07-19 18:47:00,85.6,72.1,28.61,WSW,253,0.0,0.0,64,0.00,,---,0.08,VWS V14.01,2013-07-19 23:47:00,
2013-07-19 18:48:00,85.6,72.1,28.61,WSW,253,0.0,0.0,64,0.00,,---,0.08,VWS V14.01,2013-07-19 23:48:00,
2013-07-19 18:49:00,85.6,72.1,28.61,WSW,253,0.0,0.0,64,0.00,,---,0.08,VWS V14.01,2013-07-19 23:49:00,
2013-07-19 18:50:00,85.6,72.1,28.61,WSW,250,0.0,0.0,64,0.00,,---,0.08,VWS V14.01,2013-07-19 23:50:00,
2013-07-19 18:51:00,85.8,72.2,28.61,SW,223,3.6,3.6,64,0.00,,---,0.08,VWS V14.01,2013-07-19 23:51:00,
2013-07-19 18:52:00,85.8,72.2,28.61,South,184,3.1,3.1,64,0.00,,---,0.08,VWS V14.01,2013-07-19 23:52:00,
2013-07-19 18:53:00,85.8,72.2,28.61,South,184,3.1,3.1,64,0.00,,---,0.08,VWS V14.01,2013-07-19 23:53:00,
2013-07-19 18:54:00,85.8,72.2,28.61,SSW,200,2.7,2.7,64,0.00,,---,0.08,VWS V14.01,2013-07-19 23:54:00,
2013-07-19 18:55:00,85.8,72.2,28.61,SSW,200,2.7,2.7,64,0.00,,---,0.08,VWS V14.01,2013-07-19 23:55:00,
2013-07-19 18:56:00,85.8,72.2,28.61,SSW,204,2.2,2.7,64,0.00,,---,0.08,VWS V14.01,2013-07-19 23:56:00,
2013-07-19 18:57:00,85.6,72.1,28.61,SSW,204,2.2,2.2,64,0.00,,---,0.08,VWS V14.01,2013-07-19 23:57:00,
2013-07-19 18:58:00,85.6,72.1,28.61,SSW,211,0.0,0.0,64,0.00,,---,0.08,VWS V14.01,2013-07-19 23:58:00,
2013-07-19 18:59:00,85.6,72.1,28.61,SSW,211,0.0,0.0,64,0.00,,---,0.08,VWS V14.01,2013-07-19 23:59:00,
2013-07-19 19:00:00,85.6,72.1,28.61,SSW,211,0.0,0.0,64,0.00,,---,0.08,VWS V14.01,2013-07-20 00:00:00,
2013-07-19 19:01:00,85.6,72.1,28.61,SSW,211,0.0,0.0,64,0.00,,---,0.08,VWS V14.01,2013-07-20 00:01:00,
2013-07-19 19:02:00,85.6,72.1,28.61,SSW,211,0.0,0.0,64,0.00,,---,0.08,VWS V14.01,2013-07-20 00:02:00,
2013-07-19 19:03:00,85.6,72.1,28.61,SSW,211,0.0,0.0,64,0.00,,---,0.08,VWS V14.01,2013-07-20 00:03:00,
2013-07-19 19:04:00,85.6,72.1,28.61,SSW,211,0.0,0.0,64,0.00,,---,0.08,VWS V14.01,2013-07-20 00:04:00,
2013-07-19 19:05:00,85.5,71.9,28.61,West,267,0.0,0.0,64,0.00,,---,0.08,VWS V14.01,2013-07-20 00:05:00,
2013-07-19 19:06:00,85.5,71.9,28.61,West,267,0.0,0.0,64,0.00,,---,0.08,VWS V14.01,2013-07-20 00:06:00,
2013-07-19 19:07:00,85.5,71.9,28.61,West,267,0.0,0.0,64,0.00,,---,0.08,VWS V14.01,2013-07-20 00:07:00,
2013-07-19 19:08:00,85.3,71.7,28.61,West,267,0.0,0.0,64,0.00,,---,0.08,VWS V14.01,2013-07-20 00:08:00,
2013-07-19 19:09:00,85.3,71.7,28.61,West,267,0.0,0.0,64,0.00,,---,0.08,VWS V14.01,2013-07-20 00:09:00,
2013-07-19 19:10:00,85.3,71.7,28.61,West,269,0.0,0.0,64,0.00,,---,0.08,VWS V14.01,2013-07-20 00:10:00,
2013-07-19 19:11:00,85.3,71.7,28.61,West,269,0.0,0.0,64,0.00,,---,0.08,VWS V14.01,2013-07-20 00:11:00,
2013-07-19 19:12:00,85.3,71.7,28.61,West,269,0.0,0.0,64,0.00,,---,0.08,VWS V14.01,2013-07-20 00:12:00,
2013-07-19 19:13:00,85.3,71.7,28.61,West,269,0.0,0.0,64,0.00,,---,0.08,VWS V14.01,2013-07-20 00:13:00,
2013-07-19 19:14:00,85.3,71.7,28.61,West,269,0.0,0.0,64,0.00,,---,0.08,VWS V14.01,2013-07-20 00:14:00,
2013-07-19 19:15:00,85.3,71.7,28.61,West,269,0.0,0.0,64,0.00,,---,0.08,VWS V14.01,2013-07-20 00:15:00,
2013-07-19 19:16:00,85.3,71.7,28.61,West,269,0.0,0.0,64,0.00,,---,0.08,VWS V14.01,2013-07-20 00:16:00,
2013-07-19 19:17:00,84.7,71.2,28.61,West,269,0.0,0.0,64,0.00,,---,0.08,VWS V14.01,2013-07-20 00:17:00,
2013-07-19 19:18:00,84.7,71.2,28.61,SSW,209,4.9,4.9,64,0.00,,---,0.08,VWS V14.01,2013-07-20 00:18:00,
2013-07-19 19:19:00,84.7,71.2,28.61,SSW,209,4.9,4.9,64,0.00,,---,0.08,VWS V14.01,2013-07-20 00:19:00,
2013-07-19 19:20:00,84.7,71.2,28.61,SSW,209,0.0,4.9,64,0.00,,---,0.08,VWS V14.01,2013-07-20 00:20:00,
2013-07-19 19:21:00,84.7,71.2,28.61,SSW,209,0.0,0.0,64,0.00,,---,0.08,VWS V14.01,2013-07-20 00:21:00,
2013-07-19 19:22:00,84.7,71.2,28.61,West,261,0.0,0.0,64,0.00,,---,0.08,VWS V14.01,2013-07-20 00:22:00,
2013-07-19 19:23:00,84.7,71.2,28.61,West,261,0.0,0.0,64,0.00,,---,0.08,VWS V14.01,2013-07-20 00:23:00,
2013-07-19 19:24:00,84.7,71.2,28.61,West,261,0.0,0.0,64,0.00,,---,0.08,VWS V14.01,2013-07-20 00:24:00,
2013-07-19 19:25:00,84.7,71.2,28.61,West,261,0.0,0.0,64,0.00,,---,0.08,VWS V14.01,2013-07-20 00:25:00,
2013-07-19 19:26:00,84.7,71.2,28.61,South,172,2.7,2.7,64,0.00,,---,0.08,VWS V14.01,2013-07-20 00:26:00,
2013-07-19 19:27:00,84.7,71.2,28.61,South,172,2.7,2.7,64,0.00,,---,0.08,VWS V14.01,2013-07-20 00:27:00,
2013-07-19 19:28:00,84.0,70.5,28.61,South,172,2.7,2.7,64,0.00,,---,0.08,VWS V14.01,2013-07-20 00:28:00,
2013-07-19 19:29:00,84.0,70.5,28.61,South,172,2.7,2.7,64,0.00,,---,0.08,VWS V14.01,2013-07-20 00:29:00,
2013-07-19 19:30:00,84.0,70.5,28.61,South,172,2.7,2.7,64,0.00,,---,0.08,VWS V14.01,2013-07-20 00:30:00,
2013-07-19 19:31:00,84.0,70.5,28.61,SSW,210,3.6,3.6,64,0.00,,---,0.08,VWS V14.01,2013-07-20 00:31:00,
2013-07-19 19:32:00,84.0,70.5,28.61,SSW,210,3.6,3.6,64,0.00,,---,0.08,VWS V14.01,2013-07-20 00:32:00,
2013-07-19 19:33:00,84.0,70.5,28.61,South,183,4.0,4.0,64,0.00,,---,0.08,VWS V14.01,2013-07-20 00:33:00,
2013-07-19 19:34:00,83.7,75.3,28.61,South,183,4.0,4.0,76,0.00,,---,0.08,VWS V14.01,2013-07-20 00:34:00,
2013-07-19 19:35:00,83.7,75.3,28.61,South,183,4.0,4.0,76,0.00,,---,0.08,VWS V14.01,2013-07-20 00:35:00,
2013-07-19 19:36:00,83.7,75.3,28.61,South,183,4.0,4.0,76,0.00,,---,0.08,VWS V14.01,2013-07-20 00:36:00,
2013-07-19 19:37:00,83.7,75.3,28.61,South,183,4.0,4.0,76,0.00,,---,0.08,VWS V14.01,2013-07-20 00:37:00,
2013-07-19 19:38:00,83.7,75.3,28.61,South,183,4.0,4.0,76,0.00,,---,0.08,VWS V14.01,2013-07-20 00:38:00,
2013-07-19 19:39:00,83.7,75.3,28.61,South,183,4.0,4.0,76,0.00,,---,0.08,VWS V14.01,2013-07-20 00:39:00,
2013-07-19 19:40:00,83.7,75.3,28.61,WSW,246,2.7,2.7,76,0.00,,---,0.08,VWS V14.01,2013-07-20 00:40:00,
2013-07-19 19:41:00,83.1,74.8,28.61,WSW,246,2.7,2.7,76,0.00,,---,0.08,VWS V14.01,2013-07-20 00:41:00,
2013-07-19 19:42:00,83.1,74.8,28.61,WSW,246,2.7,2.7,76,0.00,,---,0.08,VWS V14.01,2013-07-20 00:42:00,
2013-07-19 19:43:00,83.1,74.8,28.61,West,263,2.2,2.7,76,0.00,,---,0.08,VWS V14.01,2013-07-20 00:43:00,
2013-07-19 19:44:00,83.1,74.8,28.61,West,263,2.2,2.2,76,0.00,,---,0.08,VWS V14.01,2013-07-20 00:44:00,
2013-07-19 19:45:00,83.1,74.8,28.61,SW,222,0.0,2.2,76,0.00,,---,0.08,VWS V14.01,2013-07-20 00:45:00,
2013-07-19 19:46:00,83.1,74.8,28.61,SW,222,0.0,0.0,76,0.00,,---,0.08,VWS V14.01,2013-07-20 00:46:00,
2013-07-19 19:47:00,83.1,74.8,28.61,West,265,4.0,4.0,76,0.00,,---,0.08,VWS V14.01,2013-07-20 00:47:00,
2013-07-19 19:48:00,83.1,74.8,28.61,SW,219,2.7,4.0,76,0.00,,---,0.08,VWS V14.01,2013-07-20 00:48:00,
2013-07-19 19:49:00,83.1,74.8,28.61,SW,219,2.7,2.7,76,0.00,,---,0.08,VWS V14.01,2013-07-20 00:49:00,
2013-07-19 19:50:00,83.1,74.8,28.61,SW,219,2.7,2.7,76,0.00,,---,0.08,VWS V14.01,2013-07-20 00:50:00,
2013-07-19 19:51:00,83.1,74.8,28.61,SW,219,2.7,2.7,76,0.00,,---,0.08,VWS V14.01,2013-07-20 00:51:00,
2013-07-19 19:52:00,83.1,74.8,28.61,SW,219,2.7,2.7,76,0.00,,---,0.08,VWS V14.01,2013-07-20 00:52:00,
2013-07-19 19:53:00,82.8,74.4,28.61,SW,219,2.7,2.7,76,0.00,,---,0.08,VWS V14.01,2013-07-20 00:53:00,
2013-07-19 19:54:00,82.8,74.4,28.61,WSW,256,2.7,2.7,76,0.00,,---,0.08,VWS V14.01,2013-07-20 00:54:00,
2013-07-19 19:55:00,82.8,74.4,28.61,WSW,256,2.7,2.7,76,0.00,,---,0.08,VWS V14.01,2013-07-20 00:55:00,
2013-07-19 19:56:00,82.8,74.4,28.61,WSW,256,2.7,2.7,76,0.00,,---,0.08,VWS V14.01,2013-07-20 00:56:00,
2013-07-19 19:57:00,82.8,74.4,28.61,West,273,2.7,2.7,76,0.00,,---,0.08,VWS V14.01,2013-07-20 00:57:00,
2013-07-19 19:58:00,82.8,74.4,28.61,SSW,205,0.0,2.7,76,0.00,,---,0.08,VWS V14.01,2013-07-20 00:58:00,
2013-07-19 19:59:00,82.8,74.4,28.61,SSW,205,0.0,0.0,76,0.00,,---,0.08,VWS V14.01,2013-07-20 00:59:00,
2013-07-19 20:00:00,82.8,74.4,28.61,SSW,205,0.0,0.0,76,0.00,,---,0.08,VWS V14.01,2013-07-20 01:00:00,
2013-07-19 20:01:00,82.4,74.1,28.61,SSW,212,0.0,0.0,76,0.00,,---,0.08,VWS V14.01,2013-07-20 01:01:00,
2013-07-19 20:02:00,82.4,74.1,28.61,SSW,212,0.0,0.0,76,0.00,,---,0.08,VWS V14.01,2013-07-20 01:02:00,
2013-07-19 20:03:00,82.4,74.1,28.61,SSW,212,0.0,0.0,76,0.00,,---,0.08,VWS V14.01,2013-07-20 01:03:00,
2013-07-19 20:04:00,82.4,74.1,28.61,SSW,212,0.0,0.0,76,0.00,,---,0.08,VWS V14.01,2013-07-20 01:04:00,
2013-07-19 20:05:00,82.4,74.1,28.61,SSW,212,0.0,0.0,76,0.00,,---,0.08,VWS V14.01,2013-07-20 01:05:00,
2013-07-19 20:06:00,82.0,73.7,28.61,SSW,212,0.0,0.0,76,0.00,,---,0.08,VWS V14.01,2013-07-20 01:06:00,
2013-07-19 20:07:00,82.0,73.7,28.61,SSW,212,0.0,0.0,76,0.00,,---,0.08,VWS V14.01,2013-07-20 01:07:00,
2013-07-19 20:08:00,82.0,73.7,28.61,WSW,246,0.0,0.0,76,0.00,,---,0.08,VWS V14.01,2013-07-20 01:08:00,
2013-07-19 20:09:00,81.9,73.6,28.61,WSW,246,0.0,0.0,76,0.00,,---,0.08,VWS V14.01,2013-07-20 01:09:00,
2013-07-19 20:10:00,81.9,73.6,28.61,WSW,246,0.0,0.0,76,0.00,,---,0.08,VWS V14.01,2013-07-20 01:10:00,
2013-07-19 20:11:00,81.7,73.4,28.61,SW,217,4.0,4.0,76,0.00,,---,0.08,VWS V14.01,2013-07-20 01:11:00,
2013-07-19 20:12:00,81.7,73.4,28.61,SW,235,3.6,3.6,76,0.00,,---,0.08,VWS V14.01,2013-07-20 01:12:00,
2013-07-19 20:13:00,81.7,73.4,28.61,SW,235,3.6,3.6,76,0.00,,---,0.08,VWS V14.01,2013-07-20 01:13:00,
2013-07-19 20:14:00,81.7,73.4,28.61,SW,235,3.6,3.6,76,0.00,,---,0.08,VWS V14.01,2013-07-20 01:14:00,
2013-07-19 20:15:00,81.7,73.4,28.61,West,274,0.0,3.6,76,0.00,,---,0.08,VWS V14.01,2013-07-20 01:15:00,
2013-07-19 20:16:00,81.7,73.4,28.61,West,274,0.0,0.0,76,0.00,,---,0.08,VWS V14.01,2013-07-20 01:16:00,
2013-07-19 20:17:00,81.7,73.4,28.61,West,274,0.0,0.0,76,0.00,,---,0.08,VWS V14.01,2013-07-20 01:17:00,
2013-07-19 20:18:00,81.7,73.4,28.61,WNW,293,0.0,0.0,76,0.00,,---,0.08,VWS V14.01,2013-07-20 01:18:00,
2013-07-19 20:19:00,81.5,73.2,28.61,WNW,293,0.0,0.0,76,0.00,,---,0.08,VWS V14.01,2013-07-20 01:19:00,
2013-07-19 20:20:00,81.5,73.2,28.61,WNW,293,0.0,0.0,76,0.00,,---,0.08,VWS V14.01,2013-07-20 01:20:00,
2013-07-19 20:21:00,81.5,73.2,28.61,WNW,293,0.0,0.0,76,0.00,,---,0.08,VWS V14.01,2013-07-20 01:21:00,
2013-07-19 20:22:00,81.5,73.2,28.61,SSW,211,0.0,3.6,76,0.00,,---,0.08,VWS V14.01,2013-07-20 01:22:00,
2013-07-19 20:23:00,81.5,73.2,28.61,SSW,211,0.0,3.6,76,0.00,,---,0.08,VWS V14.01,2013-07-20 01:23:00,
2013-07-19 20:24:00,81.5,73.2,28.61,SSW,211,0.0,0.0,76,0.00,,---,0.08,VWS V14.01,2013-07-20 01:24:00,
2013-07-19 20:25:00,81.5,73.2,28.61,SSW,211,0.0,0.0,76,0.00,,---,0.08,VWS V14.01,2013-07-20 01:25:00,
2013-07-19 20:26:00,81.3,74.6,28.61,SSW,211,0.0,0.0,80,0.00,,---,0.08,VWS V14.01,2013-07-20 01:26:00,
2013-07-19 20:27:00,81.3,74.6,28.61,SSW,211,0.0,0.0,80,0.00,,---,0.08,VWS V14.01,2013-07-20 01:27:00,
2013-07-19 20:28:00,81.3,74.6,28.61,SSW,211,0.0,0.0,80,0.00,,---,0.08,VWS V14.01,2013-07-20 01:28:00,
2013-07-19 20:29:00,81.3,74.6,28.61,SSW,209,0.0,0.0,80,0.00,,---,0.08,VWS V14.01,2013-07-20 01:29:00,
2013-07-19 20:30:00,81.3,74.6,28.61,SSW,209,0.0,0.0,80,0.00,,---,0.08,VWS V14.01,2013-07-20 01:30:00,
2013-07-19 20:31:00,81.3,74.6,28.61,SSW,209,0.0,0.0,80,0.00,,---,0.08,VWS V14.01,2013-07-20 01:31:00,
2013-07-19 20:32:00,81.3,74.6,28.61,SSW,209,0.0,0.0,80,0.00,,---,0.08,VWS V14.01,2013-07-20 01:32:00,
2013-07-19 20:33:00,81.3,74.6,28.61,SSW,209,0.0,0.0,80,0.00,,---,0.08,VWS V14.01,2013-07-20 01:33:00,
2013-07-19 20:34:00,81.3,74.6,28.61,SSW,209,0.0,0.0,80,0.00,,---,0.08,VWS V14.01,2013-07-20 01:34:00,
2013-07-19 20:35:00,81.0,74.2,28.61,SSW,209,0.0,0.0,80,0.00,,---,0.08,VWS V14.01,2013-07-20 01:35:00,
2013-07-19 20:36:00,81.0,74.2,28.61,SSW,210,0.0,0.0,80,0.00,,---,0.08,VWS V14.01,2013-07-20 01:36:00,
2013-07-19 20:37:00,81.0,74.2,28.61,SSW,210,0.0,0.0,80,0.00,,---,0.08,VWS V14.01,2013-07-20 01:37:00,
2013-07-19 20:38:00,81.0,74.2,28.61,West,274,0.0,0.0,80,0.00,,---,0.08,VWS V14.01,2013-07-20 01:38:00,
2013-07-19 20:39:00,81.0,74.2,28.61,West,274,0.0,0.0,80,0.00,,---,0.08,VWS V14.01,2013-07-20 01:39:00,
2013-07-19 20:40:00,81.0,74.2,28.61,SSW,210,0.0,0.0,80,0.00,,---,0.08,VWS V14.01,2013-07-20 01:40:00,
2013-07-19 20:41:00,81.0,74.2,28.61,SSW,210,0.0,0.0,80,0.00,,---,0.08,VWS V14.01,2013-07-20 01:41:00,
2013-07-19 20:42:00,81.0,74.2,28.61,SSW,210,0.0,0.0,80,0.00,,---,0.08,VWS V14.01,2013-07-20 01:42:00,
2013-07-19 20:43:00,81.0,74.2,28.61,West,263,0.0,0.0,80,0.00,,---,0.08,VWS V14.01,2013-07-20 01:43:00,
2013-07-19 20:44:00,81.0,74.2,28.61,West,263,0.0,0.0,80,0.00,,---,0.08,VWS V14.01,2013-07-20 01:44:00,
2013-07-19 20:45:00,81.0,74.2,28.61,West,263,0.0,0.0,80,0.00,,---,0.08,VWS V14.01,2013-07-20 01:45:00,
2013-07-19 20:46:00,81.0,74.2,28.61,West,263,0.0,0.0,80,0.00,,---,0.08,VWS V14.01,2013-07-20 01:46:00,
2013-07-19 20:47:00,81.0,74.2,28.61,West,263,0.0,0.0,80,0.00,,---,0.08,VWS V14.01,2013-07-20 01:47:00,
2013-07-19 20:48:00,80.6,73.9,28.61,SW,228,0.0,0.0,80,0.00,,---,0.08,VWS V14.01,2013-07-20 01:48:00,
2013-07-19 20:49:00,80.6,73.9,28.61,SW,228,2.7,2.7,80,0.00,,---,0.08,VWS V14.01,2013-07-20 01:49:00,
2013-07-19 20:50:00,80.6,73.9,28.61,WSW,248,2.7,2.7,80,0.00,,---,0.08,VWS V14.01,2013-07-20 01:50:00,
2013-07-19 20:51:00,80.6,73.9,28.61,WSW,248,2.7,2.7,80,0.00,,---,0.08,VWS V14.01,2013-07-20 01:51:00,
2013-07-19 20:52:00,80.6,73.9,28.61,WSW,248,2.7,2.7,80,0.00,,---,0.08,VWS V14.01,2013-07-20 01:52:00,
2013-07-19 20:53:00,80.6,73.9,28.61,WSW,248,2.7,2.7,80,0.00,,---,0.08,VWS V14.01,2013-07-20 01:53:00,
2013-07-19 20:54:00,80.6,73.9,28.61,WSW,248,2.7,2.7,80,0.00,,---,0.08,VWS V14.01,2013-07-20 01:54:00,
2013-07-19 20:55:00,80.6,73.9,28.61,WSW,248,2.7,2.7,80,0.00,,---,0.08,VWS V14.01,2013-07-20 01:55:00,
2013-07-19 20:56:00,80.6,73.9,28.61,WSW,248,2.7,2.7,80,0.00,,---,0.08,VWS V14.01,2013-07-20 01:56:00,
2013-07-19 20:57:00,80.6,73.9,28.61,SSW,194,0.0,2.7,80,0.00,,---,0.08,VWS V14.01,2013-07-20 01:57:00,
2013-07-19 21:45:00,80.4,73.7,28.61,SSW,210,3.1,3.1,80,0.00,,---,0.08,VWS V14.01,2013-07-20 02:45:00,
2013-07-19 21:46:00,80.4,73.7,28.61,SSW,210,3.1,3.1,80,0.00,,---,0.08,VWS V14.01,2013-07-20 02:46:00,
2013-07-19 21:47:00,80.2,73.5,28.61,SSW,201,2.7,4.0,80,0.00,,---,0.08,VWS V14.01,2013-07-20 02:47:00,
2013-07-19 21:48:00,80.2,73.5,28.61,SW,217,3.1,7.2,80,0.00,,---,0.08,VWS V14.01,2013-07-20 02:48:00,
2013-07-19 21:56:00,80.2,73.5,28.64,West,277,3.1,3.1,80,0.00,,---,0.08,VWS V14.01,2013-07-20 02:56:00,
2013-07-19 21:58:00,80.2,73.5,28.64,SSW,200,3.6,3.6,80,0.00,,---,0.08,VWS V14.01,2013-07-20 02:58:00,
2013-07-19 22:01:00,80.2,73.5,28.64,South,191,2.2,3.1,80,0.00,,---,0.08,VWS V14.01,2013-07-20 03:01:00,
2013-07-19 22:03:00,80.1,73.3,28.64,SW,226,8.3,8.3,80,0.00,,---,0.08,VWS V14.01,2013-07-20 03:03:00,
2013-07-19 22:06:00,80.2,73.5,28.61,West,259,3.1,3.1,80,0.00,,---,0.08,VWS V14.01,2013-07-20 03:06:00,
2013-07-19 22:08:00,80.2,73.5,28.61,West,275,3.1,3.1,80,0.00,,---,0.08,VWS V14.01,2013-07-20 03:08:00,
2013-07-19 22:11:00,80.2,73.5,28.61,West,271,4.0,4.0,80,0.00,,---,0.08,VWS V14.01,2013-07-20 03:11:00,
2013-07-19 22:13:00,80.2,73.5,28.61,SSW,197,3.1,3.1,80,0.00,,---,0.08,VWS V14.01,2013-07-20 03:13:00,
2013-07-19 22:14:00,80.1,73.3,28.61,West,266,3.1,4.0,80,0.00,,---,0.08,VWS V14.01,2013-07-20 03:14:00,
2013-07-19 22:17:00,80.1,73.3,28.61,West,261,0.0,4.0,80,0.00,,---,0.08,VWS V14.01,2013-07-20 03:17:00,
2013-07-19 22:18:00,80.1,73.3,28.61,West,280,3.6,3.6,80,0.00,,---,0.08,VWS V14.01,2013-07-20 03:18:00,
2013-07-19 22:19:00,80.1,73.3,28.61,SW,225,6.3,6.3,80,0.00,,---,0.08,VWS V14.01,2013-07-20 03:19:00,
2013-07-19 22:22:00,79.9,73.2,28.61,West,268,2.7,2.7,80,0.00,,---,0.08,VWS V14.01,2013-07-20 03:22:00,
2013-07-19 22:23:00,79.9,73.2,28.61,WNW,290,4.9,5.8,80,0.00,,---,0.08,VWS V14.01,2013-07-20 03:23:00,
2013-07-19 22:24:00,79.9,73.2,28.61,West,265,2.2,3.6,80,0.00,,---,0.08,VWS V14.01,2013-07-20 03:24:00,
2013-07-19 22:25:00,79.9,73.2,28.61,West,265,0.0,3.6,80,0.00,,---,0.08,VWS V14.01,2013-07-20 03:25:00,
2013-07-19 22:27:00,79.7,73.0,28.61,West,269,2.7,4.9,80,0.00,,---,0.08,VWS V14.01,2013-07-20 03:27:00,
2013-07-19 22:28:00,79.7,73.0,28.61,West,263,3.6,4.0,80,0.00,,---,0.08,VWS V14.01,2013-07-20 03:28:00,
2013-07-19 22:29:00,79.7,73.0,28.61,West,263,2.7,4.0,80,0.00,,---,0.08,VWS V14.01,2013-07-20 03:29:00,
2013-07-19 22:30:00,79.7,73.0,28.61,SW,229,3.6,5.4,80,0.00,,---,0.08,VWS V14.01,2013-07-20 03:30:00,
2013-07-19 22:32:00,79.7,73.0,28.61,WSW,239,2.7,2.7,80,0.00,,---,0.08,VWS V14.01,2013-07-20 03:32:00,
2013-07-19 22:34:00,79.7,73.0,28.61,WSW,251,5.4,5.4,80,0.00,,---,0.08,VWS V14.01,2013-07-20 03:34:00,
2013-07-19 22:35:00,79.7,73.0,28.61,WSW,256,4.9,4.9,80,0.00,,---,0.08,VWS V14.01,2013-07-20 03:35:00,
2013-07-19 22:37:00,79.7,73.0,28.61,WSW,257,5.4,5.4,80,0.00,,---,0.08,VWS V14.01,2013-07-20 03:37:00,
2013-07-19 22:39:00,79.7,73.0,28.61,WSW,239,8.1,8.1,80,0.00,,---,0.08,VWS V14.01,2013-07-20 03:39:00,
2013-07-19 22:40:00,79.7,73.0,28.61,West,261,4.0,4.0,80,0.00,,---,0.08,VWS V14.01,2013-07-20 03:40:00,
2013-07-19 22:43:00,79.7,73.0,28.61,West,263,3.6,4.0,80,0.00,,---,0.08,VWS V14.01,2013-07-20 03:43:00,
2013-07-19 22:44:00,79.5,72.8,28.61,West,263,0.0,0.0,80,0.00,,---,0.08,VWS V14.01,2013-07-20 03:44:00,
2013-07-19 22:45:00,79.5,72.8,28.61,West,259,2.7,3.1,80,0.00,,---,0.08,VWS V14.01,2013-07-20 03:45:00,
2013-07-19 22:46:00,79.5,72.8,28.61,WSW,253,4.0,4.0,80,0.00,,---,0.08,VWS V14.01,2013-07-20 03:46:00,
2013-07-19 22:48:00,79.3,72.6,28.61,SW,226,5.4,5.4,80,0.00,,---,0.08,VWS V14.01,2013-07-20 03:48:00,
2013-07-19 22:49:00,79.3,72.6,28.61,SW,227,4.0,4.0,80,0.00,,---,0.08,VWS V14.01,2013-07-20 03:49:00,
2013-07-19 22:50:00,79.3,72.6,28.61,SSW,195,2.7,2.7,80,0.00,,---,0.08,VWS V14.01,2013-07-20 03:50:00,
2013-07-19 22:51:00,79.3,72.6,28.61,WSW,258,4.0,4.0,80,0.00,,---,0.08,VWS V14.01,2013-07-20 03:51:00,
2013-07-19 22:53:00,79.3,72.6,28.61,WSW,258,3.6,5.8,80,0.00,,---,0.08,VWS V14.01,2013-07-20 03:53:00,
2013-07-19 22:54:00,79.2,72.5,28.61,SW,232,6.3,6.3,80,0.00,,---,0.08,VWS V14.01,2013-07-20 03:54:00,
2013-07-19 22:55:00,79.2,72.5,28.61,West,270,2.7,3.1,80,0.00,,---,0.08,VWS V14.01,2013-07-20 03:55:00,
2013-07-19 22:56:00,79.2,72.5,28.61,WSW,251,2.7,3.6,80,0.00,,---,0.08,VWS V14.01,2013-07-20 03:56:00,
2013-07-19 22:58:00,79.2,72.5,28.61,WSW,246,2.7,3.6,80,0.00,,---,0.08,VWS V14.01,2013-07-20 03:58:00,
2013-07-19 22:59:00,79.2,72.5,28.61,WSW,239,0.0,0.0,80,0.00,,---,0.08,VWS V14.01,2013-07-20 03:59:00,
2013-07-19 23:00:00,79.2,72.5,28.61,WSW,253,3.1,4.0,80,0.00,,---,0.00,VWS V14.01,2013-07-20 04:00:00,
2013-07-19 23:01:00,79.2,72.5,28.61,West,269,6.3,6.3,80,0.00,,---,0.00,VWS V14.01,2013-07-20 04:01:00,
2013-07-19 23:02:00,79.2,72.5,28.61,WSW,244,5.8,5.8,80,0.00,,---,0.00,VWS V14.01,2013-07-20 04:02:00,
2013-07-19 23:03:00,79.2,72.5,28.61,WSW,256,3.6,6.3,80,0.00,,---,0.00,VWS V14.01,2013-07-20 04:03:00,
2013-07-19 23:04:00,79.2,72.5,28.61,West,267,3.6,5.4,80,0.00,,---,0.00,VWS V14.01,2013-07-20 04:04:00,
2013-07-19 23:05:00,79.2,72.5,28.61,WSW,256,2.7,4.9,80,0.00,,---,0.00,VWS V14.01,2013-07-20 04:05:00,
2013-07-19 23:06:00,79.2,72.5,28.61,West,267,4.9,5.8,80,0.00,,---,0.00,VWS V14.01,2013-07-20 04:06:00,
2013-07-19 23:07:00,79.2,72.5,28.61,West,259,4.0,5.4,80,0.00,,---,0.00,VWS V14.01,2013-07-20 04:07:00,
2013-07-19 23:08:00,79.2,72.5,28.61,West,269,6.7,6.7,80,0.00,,---,0.00,VWS V14.01,2013-07-20 04:08:00,
2013-07-19 23:09:00,79.2,72.5,28.61,West,261,0.0,6.7,80,0.00,,---,0.00,VWS V14.01,2013-07-20 04:09:00,
2013-07-19 23:10:00,79.2,72.5,28.61,West,269,5.4,6.3,80,0.00,,---,0.00,VWS V14.01,2013-07-20 04:10:00,
2013-07-19 23:11:00,79.2,72.5,28.61,West,261,6.3,7.6,80,0.00,,---,0.00,VWS V14.01,2013-07-20 04:11:00,
2013-07-19 23:12:00,79.2,72.5,28.61,SW,229,5.8,8.3,80,0.00,,---,0.00,VWS V14.01,2013-07-20 04:12:00,
2013-07-19 23:13:00,79.2,72.5,28.61,WSW,254,3.1,4.9,80,0.00,,---,0.00,VWS V14.01,2013-07-20 04:13:00,
2013-07-19 23:14:00,79.2,72.5,28.61,SW,228,2.2,5.4,80,0.00,,---,0.00,VWS V14.01,2013-07-20 04:14:00,
2013-07-19 23:15:00,79.2,72.5,28.61,WNW,283,3.1,3.1,80,0.00,,---,0.00,VWS V14.01,2013-07-20 04:15:00,
2013-07-19 23:16:00,79.2,72.5,28.61,WSW,252,4.9,4.9,80,0.00,,---,0.00,VWS V14.01,2013-07-20 04:16:00,
2013-07-19 23:17:00,79.2,72.5,28.61,WSW,237,5.8,5.8,80,0.00,,---,0.00,VWS V14.01,2013-07-20 04:17:00,
2013-07-19 23:18:00,79.2,72.5,28.61,WSW,255,5.4,5.8,80,0.00,,---,0.00,VWS V14.01,2013-07-20 04:18:00,
2013-07-19 23:19:00,79.0,72.3,28.61,West,267,4.0,5.4,80,0.00,,---,0.00,VWS V14.01,2013-07-20 04:19:00,
2013-07-19 23:20:00,79.0,72.3,28.61,WSW,256,4.9,5.4,80,0.00,,---,0.00,VWS V14.01,2013-07-20 04:20:00,
2013-07-19 23:21:00,79.0,72.3,28.61,SSW,206,5.8,5.8,80,0.00,,---,0.00,VWS V14.01,2013-07-20 04:21:00,
2013-07-19 23:22:00,79.0,72.3,28.61,SW,226,3.6,5.8,80,0.00,,---,0.00,VWS V14.01,2013-07-20 04:22:00,
2013-07-19 23:23:00,79.0,72.3,28.61,SW,227,6.3,6.3,80,0.00,,---,0.00,VWS V14.01,2013-07-20 04:23:00,
2013-07-19 23:24:00,79.0,72.3,28.61,SW,228,4.9,6.7,80,0.00,,---,0.00,VWS V14.01,2013-07-20 04:24:00,
2013-07-19 23:25:00,79.0,72.3,28.61,SSW,210,8.1,8.1,80,0.00,,---,0.00,VWS V14.01,2013-07-20 04:25:00,
2013-07-19 23:26:00,79.0,72.3,28.61,West,264,2.7,3.6,80,0.00,,---,0.00,VWS V14.01,2013-07-20 04:26:00,
2013-07-19 23:27:00,79.0,72.3,28.61,West,260,4.0,5.4,80,0.00,,---,0.00,VWS V14.01,2013-07-20 04:27:00,
2013-07-19 23:28:00,79.0,72.3,28.61,WSW,256,3.1,4.9,80,0.00,,---,0.00,VWS V14.01,2013-07-20 04:28:00,
2013-07-19 23:29:00,79.0,67.5,28.61,WSW,254,6.3,6.3,68,0.00,,---,0.00,VWS V14.01,2013-07-20 04:29:00,
2013-07-19 23:30:00,79.0,72.3,28.61,WSW,245,4.0,6.3,80,0.00,,---,0.00,VWS V14.01,2013-07-20 04:30:00,
2013-07-19 23:31:00,79.0,67.5,28.61,WSW,251,2.7,6.3,68,0.00,,---,0.00,VWS V14.01,2013-07-20 04:31:00,
2013-07-19 23:32:00,79.0,67.5,28.61,West,267,2.7,6.3,68,0.00,,---,0.00,VWS V14.01,2013-07-20 04:32:00,
2013-07-19 23:33:00,79.0,72.3,28.61,WSW,246,2.7,3.1,80,0.00,,---,0.00,VWS V14.01,2013-07-20 04:33:00,
2013-07-19 23:34:00,79.0,67.5,28.61,WSW,257,3.1,5.4,68,0.00,,---,0.00,VWS V14.01,2013-07-20 04:34:00,
2013-07-19 23:35:00,79.0,72.3,28.61,WSW,243,0.0,3.1,80,0.00,,---,0.00,VWS V14.01,2013-07-20 04:35:00,
2013-07-19 23:36:00,79.0,72.3,28.61,West,261,0.0,0.0,80,0.00,,---,0.00,VWS V14.01,2013-07-20 04:36:00,
2013-07-19 23:37:00,79.0,72.3,28.61,West,261,0.0,0.0,80,0.00,,---,0.00,VWS V14.01,2013-07-20 04:37:00,
2013-07-19 23:38:00,78.8,72.1,28.61,West,261,0.0,0.0,80,0.00,,---,0.00,VWS V14.01,2013-07-20 04:38:00,
2013-07-19 23:39:00,78.8,72.1,28.61,West,278,4.9,4.9,80,0.00,,---,0.00,VWS V14.01,2013-07-20 04:39:00,
2013-07-19 23:40:00,78.8,72.1,28.61,West,270,2.7,5.8,80,0.00,,---,0.00,VWS V14.01,2013-07-20 04:40:00,
2013-07-19 23:41:00,78.8,72.1,28.61,West,270,0.0,0.0,80,0.00,,---,0.00,VWS V14.01,2013-07-20 04:41:00,
2013-07-19 23:42:00,78.8,72.1,28.61,NW,317,2.7,2.7,80,0.00,,---,0.00,VWS V14.01,2013-07-20 04:42:00,
2013-07-19 23:43:00,78.6,71.9,28.61,West,273,3.6,3.6,80,0.00,,---,0.00,VWS V14.01,2013-07-20 04:43:00,
2013-07-19 23:44:00,78.6,71.9,28.61,SW,217,2.7,5.4,80,0.00,,---,0.00,VWS V14.01,2013-07-20 04:44:00,
2013-07-19 23:45:00,78.6,71.9,28.61,West,279,0.0,2.7,80,0.00,,---,0.00,VWS V14.01,2013-07-20 04:45:00,
2013-07-19 23:46:00,78.4,71.8,28.61,West,279,0.0,0.0,80,0.00,,---,0.00,VWS V14.01,2013-07-20 04:46:00,
2013-07-19 23:47:00,78.4,71.8,28.61,West,279,0.0,0.0,80,0.00,,---,0.00,VWS V14.01,2013-07-20 04:47:00,
2013-07-19 23:48:00,78.4,71.8,28.61,West,279,0.0,0.0,80,0.00,,---,0.00,VWS V14.01,2013-07-20 04:48:00,
2013-07-19 23:49:00,78.3,71.6,28.61,West,274,4.9,6.3,80,0.00,,---,0.00,VWS V14.01,2013-07-20 04:49:00,
2013-07-19 23:50:00,78.3,71.6,28.61,West,262,2.7,6.3,80,0.00,,---,0.00,VWS V14.01,2013-07-20 04:50:00,
2013-07-19 23:51:00,78.3,71.6,28.61,West,264,8.1,8.1,80,0.00,,---,0.00,VWS V14.01,2013-07-20 04:51:00,
2013-07-19 23:52:00,78.3,71.6,28.61,SSW,197,5.4,5.8,80,0.00,,---,0.00,VWS V14.01,2013-07-20 04:52:00,
2013-07-19 23:53:00,78.3,71.6,28.61,WSW,248,2.7,5.8,80,0.00,,---,0.00,VWS V14.01,2013-07-20 04:53:00,
2013-07-19 23:54:00,78.3,71.6,28.61,SW,225,3.1,3.1,80,0.00,,---,0.00,VWS V14.01,2013-07-20 04:54:00,
2013-07-19 23:55:00,78.3,71.6,28.61,WSW,258,3.1,3.6,80,0.00,,---,0.00,VWS V14.01,2013-07-20 04:55:00,
2013-07-19 23:56:00,78.3,71.6,28.61,WSW,256,6.3,6.3,80,0.00,,---,0.00,VWS V14.01,2013-07-20 04:56:00,
2013-07-19 23:57:00,78.3,71.6,28.61,SW,232,2.7,8.1,80,0.00,,---,0.00,VWS V14.01,2013-07-20 04:57:00,
2013-07-19 23:58:00,78.3,71.6,28.61,West,260,0.0,4.9,80,0.00,,---,0.00,VWS V14.01,2013-07-20 04:58:00,
2013-07-19 23:59:00,78.3,71.6,28.61,West,265,4.9,4.9,80,0.00,,---,0.00,VWS V14.01,2013-07-20 04:59:00,